[[{"header":{"parameterUnit":"m.s-1","parameterCategory":1,"la1":31.0,"la2":29.5877,"lo1":-88.7671,"lo2":-86.6584,"dy":0.0162,"dx":0.0185,"nx":115,"ny":88,"refTime":"2024-03-24T18:00:00:Z","depth":0,"parameterNumber":2,"parameterNumberName":"U-component_of_WINDS"},"data":[0.0,0.0,0.0,0.0,0.0,0.0,0.0,0.0,0.0,0.0,0.0,0.0,0.0,0.0,0.0,0.0,0.0,0.0,0.0,0.0,0.0,0.0,0.0,0.0,0.0,0.0,0.0,0.0,0.0,0.0,0.0,0.0,0.0,0.0,0.0,0.0,0.0,0.0,0.0,0.0,0.0,0.0,0.0,0.0,0.0,0.0,0.0,0.0,0.0,0.0,0.0,0.0,0.0,0.0,0.0,0.0,0.0,0.0,0.0,0.0,0.0,0.0,0.0,0.0,0.0,0.0,0.0,0.0,0.0,0.0,0.0,0.0,0.0,0.0,0.0,0.0,0.0,0.0,0.0,0.0,0.0,0.0,0.0,0.0,0.0,0.0,0.0,0.0,0.0,0.0,0.0,0.0,0.0,0.0,0.0,0.0,0.0,0.0,0.0,0.0,0.0,0.0,0.0,0.0,0.0,0.0,0.0,0.0,0.0,0.0,0.0,0.0,0.0,0.0,0.0,0.0,0.0,0.0,0.0,0.0,0.0,0.0,0.0,0.0,0.0,0.0,0.0,0.0,0.0,0.0,0.0,0.0,0.0,0.0,0.0,0.0,0.0,0.0,0.0,0.0,0.0,0.0,0.0,0.0,0.0,0.0,0.0,0.0,0.0,0.0,0.0,0.0,0.0,0.0,0.0,0.0,0.0,0.0,0.0,0.0,0.0,0.0,0.0,0.0,0.0,0.0,0.0,0.0,0.0,0.0,0.0,0.0,0.0,0.0,0.0,0.0,0.0,0.0,0.0,0.0,0.0,0.0,0.0,0.0,0.0,0.0,0.0,0.0,0.0,0.0,0.0,0.0,0.0,0.0,0.0,0.0,0.0,0.0,0.0,0.0,0.0,0.0,0.0,0.0,0.0,0.0,0.0,0.0,0.0,0.0,0.0,0.0,0.0,0.0,0.0,0.0,0.0,0.0,0.0,0.0,0.0,0.0,0.0,0.0,0.0,0.0,0.0,0.0,0.0,0.0,0.0,0.0,0.0,0.0,0.0,0.0,0.0,0.0,0.0,0.0,0.0,0.0,0.0,0.0,0.0,0.0,0.0,0.0,0.0,0.0,0.0,0.0,0.0,0.0,0.0,0.0,0.0,0.0,0.0,0.0,0.0,0.0,0.0,0.0,0.0,0.0,0.0,0.0,0.0,0.0,0.0,0.0,0.0,0.0,0.0,0.0,0.0,0.0,0.0,0.0,0.0,0.0,0.0,0.0,0.0,0.0,0.0,0.0,0.0,0.0,0.0,0.0,0.0,0.0,0.0,0.0,0.0,0.0,0.0,0.0,0.0,0.0,0.0,0.0,0.0,0.0,0.0,0.0,0.0,0.0,0.0,0.0,0.0,0.0,0.0,0.0,0.0,0.0,0.0,0.0,0.0,0.0,0.0,0.0,0.0,0.0,0.0,0.0,0.0,0.0,0.0,0.0,0.0,0.0,0.0,0.0,0.0,0.0,0.0,0.0,0.0,0.0,0.0,0.0,0.0,0.0,0.0,0.0,0.0,0.0,0.0,0.0,0.0,0.0,0.0,0.0,0.0,0.0,0.0,0.0,0.0,0.0,0.0,0.0,0.0,0.0,0.0,0.0,0.0,0.0,0.0,0.0,0.0,0.0,0.0,0.0,0.0,0.0,0.0,0.0,0.0,0.0,0.0,0.0,0.0,0.0,0.0,0.0,0.0,0.0,0.0,0.0,0.0,0.0,0.0,0.0,0.0,0.0,0.0,0.0,0.0,0.0,0.0,0.0,0.0,0.0,0.0,0.0,0.0,0.0,0.0,0.0,0.0,0.0,0.0,0.0,0.0,0.0,0.0,0.0,0.0,0.0,0.0,0.0,0.0,0.0,0.0,0.0,0.0,0.0,0.0,0.0,0.0,0.0,0.0,0.0,0.0,0.0,0.0,0.0,0.0,0.0,0.0,0.0,0.0,0.0,0.0,0.0,0.0,0.0,0.0,0.0,0.0,0.0,0.0,0.0,0.0,0.0,0.0,0.0,0.0,0.0,0.0,0.0,0.0,0.0,0.0,0.0,0.0,0.0,0.0,0.0,0.0,0.0,0.0,0.0,0.0,0.0,0.0,0.0,0.0,0.0,0.0,0.0,0.0,0.0,0.0,0.0,0.0,0.0,0.0,0.0,0.0,0.0,0.0,0.0,0.0,0.0,0.0,0.0,0.0,0.0,0.0,0.0,0.0,0.0,0.0,0.0,0.0,0.0,0.0,0.0,0.0,0.0,0.0,0.0,0.0,0.0,0.0,0.0,0.0,0.0,0.0,0.0,0.0,0.0,0.0,0.0,0.0,0.0,0.0,0.0,0.0,0.0,0.0,0.0,0.0,0.0,0.0,0.0,0.0,0.0,0.0,0.0,0.0,0.0,0.0,0.0,0.0,0.0,0.0,0.0,0.0,0.0,0.0,0.0,0.0,0.0,0.0,0.0,0.0,0.0,0.0,0.0,0.0,0.0,0.0,0.0,0.0,0.0,0.0,0.0,0.0,0.0,0.0,0.0,0.0,0.0,0.0,0.0,0.0,0.0,0.0,0.0,0.0,0.0,0.0,0.0,0.0,0.0,0.0,0.0,0.0,0.0,0.0,0.0,0.0,0.0,0.0,0.0,0.0,0.0,0.0,0.0,0.0,0.0,0.0,0.0,0.0,0.0,0.0,0.0,0.0,0.0,0.0,0.0,0.0,0.0,0.0,0.0,0.0,0.0,0.0,0.0,0.0,0.0,0.0,0.0,0.0,0.0,0.0,0.0,0.0,0.0,0.0,0.0,0.0,0.0,0.0,0.0,0.0,0.0,0.0,0.0,0.0,0.0,0.0,0.0,0.0,0.0,0.0,0.0,0.0,0.0,0.0,0.0,0.0,0.0,0.0,0.0,0.0,0.0,0.0,0.0,0.0,0.0,0.0,0.0,0.0,0.0,0.0,0.0,0.0,0.0,0.0,0.0,0.0,0.0,0.0,0.0,0.0,0.0,0.0,0.0,0.0,0.0,0.0,0.0,0.0,0.0,0.0,0.0,0.0,0.0,0.0,0.0,0.0,0.0,0.0,0.0,0.0,0.0,0.0,0.0,0.0,0.0,0.0,0.0,0.0,0.0,0.0,0.0,0.0,0.0,0.0,0.0,0.0,0.0,0.0,0.0,0.0,0.0,0.0,0.0,0.0,0.0,0.0,0.0,0.0,0.0,0.0,0.0,0.0,0.0,0.0,0.0,0.0,0.0,0.0,0.0,0.0,0.0,0.0,0.0,0.0,0.0,0.0,0.0,0.0,0.0,0.0,0.0,0.0,0.0,0.0,0.0,0.0,0.0,0.0,0.0,0.0,0.0,0.0,0.0,0.0,0.0,0.0,0.0,0.0,0.0,0.0,0.0,0.0,0.0,0.0,0.0,0.0,0.0,0.0,0.0,0.0,0.0,0.0,0.0,0.0,0.0,0.0,0.0,0.0,0.0,0.0,0.0,0.0,0.0,0.0,0.0,0.0,0.0,0.0,0.0,0.0,0.0,0.0,0.0,0.0,0.0,0.0,0.0,0.0,0.0,0.0,0.0,0.0,0.0,0.0,0.0,0.0,0.0,0.0,0.0,0.0,0.0,0.0,0.0,0.0,0.0,0.0,0.0,0.0,0.0,0.0,0.0,0.0,0.0,0.0,0.0,0.0,0.0,0.0,0.0,0.0,0.0,0.0,0.0,0.0,0.0,0.0,0.0,0.0,0.0,0.0,0.0,0.0,0.0,0.0,0.0,0.0,0.0,0.0,0.0,0.0,0.0,0.0,0.0,0.0,0.0,0.0,0.0,0.0,0.0,0.0,0.0,0.0,0.0,0.0,0.0,0.0,0.0,0.0,0.0,0.0,0.0,0.0,0.0,0.0,0.0,0.0,0.0,0.0,0.0,0.0,0.0,0.0,0.0,0.0,0.0,0.0,0.0,0.0,0.0,0.0,0.0,0.0,0.0,0.0,0.0,0.0,0.0,0.0,0.0,0.0,0.0,0.0,0.0,0.0,0.0,0.0,0.0,0.0,0.0,0.0,0.0,0.0,0.0,0.0,0.0,0.0,0.0,0.0,0.0,0.0,0.0,0.0,0.0,0.0,0.0,0.0,0.0,0.0,0.0,0.0,0.0,0.0,0.0,0.0,0.0,0.0,0.0,0.0,0.0,0.0,0.0,0.0,0.0,0.0,0.0,0.0,0.0,0.0,0.0,0.0,0.0,0.0,0.0,0.0,0.0,-2.8418,0.0,0.0,0.0,0.0,0.0,0.0,0.0,0.0,0.0,0.0,0.0,0.0,0.0,0.0,0.0,0.0,0.0,0.0,0.0,0.0,0.0,0.0,0.0,0.0,0.0,0.0,0.0,0.0,0.0,0.0,0.0,0.0,0.0,0.0,0.0,0.0,0.0,0.0,0.0,0.0,0.0,0.0,0.0,0.0,0.0,0.0,0.0,0.0,0.0,0.0,0.0,0.0,0.0,0.0,0.0,0.0,0.0,0.0,0.0,0.0,0.0,0.0,0.0,0.0,0.0,0.0,0.0,0.0,0.0,0.0,0.0,0.0,0.0,0.0,0.0,0.0,0.0,0.0,0.0,0.0,0.0,0.0,0.0,0.0,0.0,0.0,0.0,0.0,0.0,0.0,0.0,0.0,0.0,0.0,0.0,0.0,0.0,0.0,0.0,0.0,0.0,0.0,0.0,0.0,0.0,0.0,0.0,0.0,0.0,0.0,-3.0425,-3.0015,-2.9521,-2.9058,-2.8511,0.0,0.0,0.0,0.0,0.0,0.0,0.0,0.0,0.0,0.0,0.0,0.0,0.0,0.0,0.0,0.0,0.0,0.0,0.0,0.0,0.0,0.0,0.0,0.0,0.0,0.0,0.0,0.0,0.0,0.0,0.0,0.0,0.0,0.0,0.0,0.0,0.0,0.0,0.0,0.0,0.0,0.0,0.0,0.0,0.0,0.0,0.0,0.0,0.0,0.0,0.0,0.0,0.0,0.0,0.0,0.0,0.0,0.0,0.0,0.0,0.0,0.0,0.0,0.0,0.0,0.0,0.0,0.0,0.0,0.0,0.0,0.0,0.0,0.0,0.0,0.0,0.0,0.0,0.0,0.0,0.0,0.0,0.0,0.0,0.0,0.0,0.0,0.0,0.0,0.0,0.0,0.0,0.0,0.0,0.0,0.0,0.0,0.0,0.0,0.0,0.0,0.0,0.0,0.0,0.0,0.0,0.0,0.0,0.0,0.0,0.0,0.0,-2.9842,-2.9405,-2.8683,0.0,0.0,0.0,0.0,0.0,0.0,0.0,0.0,0.0,0.0,0.0,0.0,0.0,0.0,0.0,0.0,0.0,0.0,0.0,0.0,0.0,0.0,0.0,0.0,0.0,0.0,0.0,0.0,0.0,0.0,0.0,0.0,0.0,0.0,0.0,0.0,0.0,0.0,0.0,0.0,0.0,0.0,0.0,0.0,0.0,0.0,0.0,0.0,0.0,0.0,0.0,0.0,0.0,0.0,0.0,0.0,0.0,0.0,0.0,0.0,0.0,0.0,0.0,0.0,0.0,0.0,0.0,0.0,0.0,0.0,0.0,0.0,0.0,0.0,0.0,0.0,0.0,0.0,0.0,0.0,0.0,0.0,0.0,0.0,0.0,0.0,0.0,0.0,0.0,0.0,0.0,0.0,0.0,0.0,0.0,0.0,0.0,0.0,0.0,0.0,0.0,0.0,0.0,0.0,0.0,0.0,0.0,0.0,0.0,0.0,-3.0509,-3.027,-3.024,0.0,-2.9482,0.0,0.0,0.0,0.0,0.0,0.0,0.0,0.0,0.0,0.0,0.0,0.0,0.0,0.0,0.0,0.0,0.0,0.0,0.0,0.0,0.0,0.0,0.0,0.0,0.0,0.0,0.0,0.0,0.0,0.0,0.0,0.0,0.0,0.0,0.0,0.0,0.0,0.0,0.0,0.0,0.0,0.0,0.0,0.0,0.0,0.0,0.0,0.0,0.0,0.0,0.0,0.0,0.0,0.0,0.0,0.0,0.0,0.0,0.0,0.0,0.0,0.0,0.0,0.0,0.0,0.0,0.0,0.0,0.0,0.0,0.0,0.0,0.0,0.0,0.0,0.0,0.0,0.0,0.0,0.0,0.0,0.0,0.0,0.0,0.0,0.0,0.0,0.0,0.0,0.0,0.0,0.0,0.0,0.0,0.0,0.0,0.0,0.0,0.0,0.0,0.0,0.0,0.0,0.0,0.0,0.0,0.0,0.0,0.0,0.0,-3.0507,-3.0326,-3.0021,-2.9713,0.0,0.0,0.0,0.0,0.0,0.0,0.0,0.0,0.0,0.0,0.0,0.0,0.0,0.0,0.0,0.0,0.0,0.0,0.0,0.0,0.0,0.0,0.0,0.0,0.0,0.0,0.0,0.0,0.0,0.0,0.0,0.0,0.0,0.0,0.0,0.0,0.0,0.0,0.0,0.0,0.0,0.0,0.0,0.0,0.0,0.0,0.0,0.0,0.0,0.0,0.0,0.0,0.0,0.0,0.0,0.0,0.0,0.0,0.0,0.0,0.0,0.0,0.0,0.0,0.0,0.0,0.0,0.0,0.0,0.0,0.0,0.0,0.0,0.0,0.0,0.0,0.0,0.0,0.0,0.0,0.0,0.0,0.0,0.0,0.0,0.0,0.0,0.0,0.0,0.0,0.0,0.0,0.0,0.0,0.0,0.0,0.0,0.0,0.0,0.0,0.0,0.0,0.0,0.0,0.0,0.0,0.0,0.0,0.0,0.0,-3.1089,-3.0906,-3.069,-3.0111,-2.968,-2.9334,0.0,0.0,0.0,0.0,0.0,0.0,0.0,0.0,0.0,0.0,0.0,0.0,0.0,0.0,0.0,0.0,0.0,0.0,0.0,0.0,0.0,0.0,0.0,0.0,0.0,0.0,0.0,0.0,0.0,0.0,0.0,0.0,0.0,0.0,0.0,0.0,0.0,0.0,0.0,0.0,0.0,0.0,0.0,0.0,0.0,0.0,0.0,0.0,0.0,0.0,0.0,0.0,0.0,0.0,0.0,0.0,0.0,0.0,0.0,0.0,0.0,0.0,0.0,0.0,0.0,0.0,0.0,0.0,0.0,0.0,0.0,0.0,0.0,0.0,0.0,0.0,0.0,0.0,0.0,0.0,0.0,0.0,0.0,0.0,0.0,0.0,0.0,0.0,0.0,0.0,0.0,0.0,0.0,0.0,0.0,0.0,0.0,0.0,0.0,0.0,0.0,0.0,0.0,0.0,0.0,0.0,0.0,0.0,-3.2425,-3.2205,-3.1947,-3.1626,-3.0764,-3.0165,0.0,0.0,0.0,0.0,0.0,0.0,0.0,0.0,0.0,0.0,0.0,0.0,0.0,0.0,0.0,0.0,0.0,0.0,0.0,0.0,0.0,0.0,0.0,0.0,0.0,0.0,0.0,0.0,0.0,0.0,0.0,0.0,0.0,0.0,0.0,0.0,0.0,0.0,0.0,0.0,0.0,0.0,0.0,0.0,0.0,0.0,0.0,0.0,0.0,0.0,0.0,0.0,0.0,0.0,0.0,0.0,0.0,0.0,0.0,0.0,0.0,0.0,0.0,0.0,0.0,0.0,0.0,0.0,0.0,0.0,0.0,0.0,0.0,0.0,0.0,0.0,0.0,0.0,0.0,0.0,0.0,0.0,0.0,0.0,0.0,0.0,0.0,0.0,0.0,0.0,0.0,0.0,0.0,0.0,0.0,0.0,0.0,0.0,0.0,0.0,0.0,0.0,0.0,0.0,0.0,0.0,0.0,0.0,0.0,-3.2481,-3.2224,-3.1936,-3.1707,-3.102,-3.045,0.0,0.0,0.0,0.0,0.0,0.0,0.0,0.0,0.0,0.0,0.0,0.0,0.0,0.0,0.0,0.0,0.0,0.0,0.0,0.0,0.0,0.0,0.0,0.0,0.0,0.0,0.0,0.0,0.0,0.0,0.0,0.0,0.0,0.0,0.0,0.0,0.0,0.0,0.0,0.0,0.0,0.0,0.0,0.0,0.0,0.0,0.0,0.0,0.0,0.0,0.0,0.0,0.0,0.0,0.0,0.0,0.0,0.0,0.0,0.0,0.0,0.0,0.0,0.0,0.0,0.0,0.0,0.0,0.0,0.0,0.0,0.0,0.0,0.0,0.0,0.0,0.0,0.0,0.0,0.0,0.0,0.0,0.0,0.0,0.0,0.0,0.0,0.0,0.0,0.0,0.0,0.0,0.0,0.0,0.0,0.0,0.0,0.0,0.0,0.0,0.0,0.0,0.0,0.0,0.0,0.0,0.0,0.0,0.0,-3.3215,0.0,-3.2482,-3.2382,-3.161,-3.0957,0.0,0.0,0.0,0.0,0.0,0.0,0.0,0.0,0.0,0.0,0.0,0.0,0.0,0.0,0.0,0.0,0.0,0.0,0.0,0.0,0.0,0.0,0.0,0.0,0.0,0.0,0.0,0.0,0.0,0.0,0.0,0.0,0.0,0.0,0.0,0.0,0.0,0.0,0.0,0.0,0.0,0.0,0.0,0.0,0.0,0.0,0.0,0.0,0.0,0.0,0.0,0.0,0.0,0.0,0.0,0.0,0.0,0.0,0.0,0.0,0.0,0.0,0.0,0.0,0.0,0.0,0.0,0.0,0.0,0.0,0.0,0.0,0.0,0.0,0.0,0.0,0.0,0.0,0.0,0.0,0.0,0.0,0.0,0.0,0.0,0.0,0.0,0.0,0.0,0.0,0.0,0.0,0.0,0.0,0.0,0.0,0.0,0.0,0.0,0.0,0.0,0.0,0.0,0.0,0.0,0.0,0.0,0.0,-3.4542,-3.4768,-3.3987,-3.3684,-3.3888,-3.2561,-3.1715,0.0,0.0,0.0,0.0,0.0,0.0,0.0,0.0,0.0,0.0,0.0,0.0,0.0,0.0,0.0,0.0,0.0,0.0,0.0,0.0,0.0,0.0,0.0,0.0,0.0,0.0,0.0,0.0,0.0,0.0,0.0,0.0,0.0,0.0,0.0,0.0,0.0,0.0,0.0,0.0,0.0,0.0,0.0,0.0,0.0,0.0,0.0,0.0,0.0,0.0,0.0,0.0,0.0,0.0,0.0,0.0,0.0,0.0,0.0,0.0,0.0,0.0,0.0,0.0,0.0,0.0,0.0,0.0,0.0,0.0,0.0,0.0,0.0,0.0,0.0,0.0,0.0,0.0,0.0,0.0,0.0,0.0,0.0,0.0,0.0,0.0,0.0,0.0,0.0,0.0,0.0,0.0,0.0,0.0,0.0,0.0,0.0,0.0,0.0,0.0,0.0,0.0,0.0,0.0,0.0,0.0,0.0,0.0,0.0,-3.52,-3.482,-3.4601,-3.4483,-3.344,-3.2581,0.0,0.0,0.0,0.0,0.0,0.0,0.0,0.0,0.0,0.0,0.0,0.0,0.0,0.0,0.0,0.0,0.0,0.0,0.0,0.0,0.0,0.0,0.0,0.0,0.0,0.0,0.0,0.0,0.0,0.0,0.0,0.0,0.0,0.0,0.0,0.0,0.0,0.0,0.0,0.0,0.0,0.0,0.0,0.0,0.0,0.0,0.0,0.0,0.0,0.0,0.0,0.0,0.0,0.0,0.0,0.0,0.0,0.0,0.0,0.0,0.0,0.0,0.0,0.0,0.0,0.0,0.0,0.0,0.0,0.0,0.0,0.0,0.0,0.0,0.0,0.0,0.0,0.0,0.0,0.0,0.0,0.0,0.0,0.0,0.0,0.0,0.0,0.0,0.0,0.0,0.0,0.0,0.0,0.0,0.0,0.0,0.0,0.0,0.0,0.0,0.0,0.0,0.0,0.0,0.0,0.0,0.0,0.0,0.0,-3.6452,-3.5965,-3.5551,-3.5256,-3.4448,-3.3472,-3.2461,0.0,0.0,0.0,0.0,0.0,0.0,0.0,0.0,0.0,0.0,0.0,0.0,0.0,0.0,0.0,0.0,0.0,0.0,0.0,0.0,0.0,0.0,0.0,0.0,0.0,0.0,0.0,0.0,0.0,0.0,0.0,0.0,0.0,0.0,0.0,0.0,0.0,0.0,0.0,0.0,0.0,0.0,0.0,0.0,0.0,0.0,0.0,0.0,0.0,0.0,0.0,0.0,0.0,0.0,0.0,0.0,0.0,0.0,0.0,0.0,0.0,0.0,0.0,0.0,0.0,0.0,0.0,0.0,0.0,0.0,0.0,0.0,0.0,0.0,0.0,0.0,0.0,0.0,0.0,0.0,0.0,0.0,0.0,0.0,0.0,0.0,0.0,0.0,0.0,0.0,0.0,0.0,0.0,0.0,0.0,0.0,0.0,0.0,0.0,0.0,0.0,0.0,0.0,0.0,0.0,0.0,0.0,0.0,-3.8283,-3.7423,-3.6733,-3.6208,-3.5499,-3.443,0.0,0.0,0.0,0.0,0.0,0.0,0.0,0.0,0.0,0.0,0.0,0.0,0.0,0.0,0.0,0.0,0.0,0.0,0.0,0.0,0.0,0.0,0.0,0.0,0.0,0.0,0.0,0.0,0.0,0.0,0.0,0.0,0.0,0.0,0.0,0.0,0.0,0.0,0.0,0.0,0.0,0.0,0.0,0.0,0.0,0.0,0.0,0.0,0.0,0.0,0.0,0.0,0.0,0.0,0.0,0.0,0.0,0.0,0.0,0.0,0.0,0.0,0.0,0.0,0.0,0.0,0.0,0.0,0.0,0.0,0.0,0.0,0.0,0.0,0.0,0.0,0.0,0.0,0.0,0.0,0.0,0.0,0.0,0.0,0.0,0.0,0.0,0.0,0.0,0.0,0.0,0.0,0.0,0.0,0.0,0.0,0.0,0.0,0.0,0.0,0.0,0.0,0.0,0.0,0.0,0.0,0.0,0.0,0.0,-3.9223,-3.971,-3.912,-3.7427,-3.6035,-3.5049,0.0,0.0,0.0,0.0,0.0,0.0,0.0,0.0,0.0,0.0,0.0,0.0,0.0,0.0,0.0,0.0,0.0,0.0,0.0,0.0,0.0,0.0,0.0,0.0,0.0,0.0,0.0,0.0,0.0,0.0,0.0,0.0,0.0,0.0,0.0,0.0,0.0,0.0,0.0,0.0,0.0,0.0,0.0,0.0,0.0,0.0,0.0,0.0,0.0,0.0,0.0,0.0,0.0,0.0,0.0,0.0,0.0,0.0,0.0,0.0,0.0,0.0,0.0,0.0,0.0,0.0,0.0,0.0,0.0,0.0,0.0,0.0,0.0,0.0,0.0,0.0,0.0,0.0,0.0,0.0,0.0,0.0,0.0,0.0,0.0,0.0,0.0,0.0,0.0,0.0,0.0,0.0,0.0,0.0,0.0,0.0,0.0,0.0,0.0,0.0,0.0,0.0,0.0,0.0,0.0,0.0,0.0,0.0,-3.9714,-4.0024,-4.0499,-4.0156,-3.8888,-3.7467,-3.6289,0.0,0.0,0.0,0.0,0.0,0.0,0.0,0.0,0.0,0.0,0.0,0.0,0.0,0.0,0.0,0.0,0.0,0.0,0.0,0.0,0.0,0.0,0.0,0.0,0.0,0.0,0.0,0.0,0.0,0.0,0.0,0.0,0.0,0.0,0.0,0.0,0.0,0.0,0.0,0.0,0.0,0.0,0.0,0.0,0.0,0.0,0.0,0.0,0.0,0.0,0.0,0.0,0.0,0.0,0.0,0.0,0.0,0.0,0.0,0.0,0.0,0.0,0.0,0.0,0.0,0.0,0.0,0.0,0.0,0.0,0.0,0.0,0.0,0.0,0.0,0.0,0.0,0.0,0.0,0.0,0.0,0.0,0.0,0.0,0.0,0.0,0.0,0.0,0.0,0.0,0.0,0.0,0.0,0.0,0.0,0.0,0.0,0.0,0.0,0.0,0.0,0.0,0.0,0.0,0.0,0.0,0.0,0.0,-3.9677,-4.0824,-4.0701,-4.0585,-4.0505,-3.9275,-3.7723,0.0,0.0,0.0,0.0,0.0,0.0,0.0,0.0,0.0,0.0,0.0,0.0,0.0,0.0,0.0,0.0,0.0,0.0,0.0,0.0,0.0,0.0,0.0,0.0,0.0,0.0,0.0,0.0,0.0,0.0,0.0,0.0,0.0,0.0,0.0,0.0,0.0,0.0,0.0,0.0,0.0,0.0,0.0,0.0,0.0,0.0,0.0,0.0,0.0,0.0,0.0,0.0,0.0,0.0,0.0,0.0,0.0,0.0,0.0,0.0,0.0,0.0,0.0,0.0,0.0,0.0,0.0,0.0,0.0,0.0,0.0,0.0,0.0,0.0,0.0,0.0,0.0,0.0,0.0,0.0,0.0,0.0,0.0,0.0,0.0,0.0,0.0,0.0,0.0,0.0,0.0,0.0,0.0,0.0,0.0,0.0,0.0,0.0,0.0,0.0,0.0,0.0,0.0,0.0,0.0,0.0,0.0,0.0,-4.1048,-4.1794,-4.2425,-4.2539,-4.209,-3.9606,-3.7983,0.0,0.0,0.0,0.0,0.0,0.0,0.0,0.0,0.0,0.0,0.0,0.0,0.0,0.0,0.0,0.0,0.0,0.0,0.0,0.0,0.0,0.0,0.0,0.0,0.0,0.0,0.0,0.0,0.0,0.0,0.0,0.0,0.0,0.0,0.0,0.0,0.0,0.0,0.0,0.0,0.0,0.0,0.0,0.0,0.0,0.0,0.0,0.0,-3.1985,0.0,0.0,0.0,0.0,0.0,0.0,0.0,0.0,0.0,0.0,0.0,0.0,0.0,0.0,0.0,0.0,0.0,0.0,0.0,0.0,0.0,0.0,0.0,0.0,0.0,0.0,0.0,0.0,0.0,0.0,0.0,0.0,0.0,0.0,0.0,0.0,0.0,0.0,0.0,0.0,0.0,0.0,0.0,0.0,0.0,0.0,0.0,0.0,0.0,0.0,0.0,0.0,0.0,0.0,0.0,0.0,0.0,0.0,0.0,-4.1736,-4.2345,-4.2938,-4.2968,-4.2364,-4.0507,-3.9029,0.0,0.0,0.0,0.0,0.0,0.0,0.0,0.0,0.0,0.0,0.0,0.0,0.0,0.0,0.0,0.0,0.0,0.0,0.0,0.0,0.0,0.0,0.0,0.0,0.0,0.0,0.0,0.0,0.0,0.0,0.0,0.0,0.0,0.0,0.0,0.0,0.0,0.0,0.0,0.0,0.0,0.0,0.0,0.0,0.0,0.0,0.0,0.0,0.0,0.0,0.0,0.0,0.0,0.0,0.0,0.0,0.0,0.0,0.0,0.0,0.0,0.0,0.0,0.0,0.0,0.0,0.0,0.0,0.0,0.0,0.0,0.0,0.0,0.0,0.0,0.0,0.0,0.0,0.0,0.0,0.0,0.0,0.0,0.0,0.0,0.0,0.0,0.0,0.0,0.0,0.0,0.0,0.0,0.0,0.0,0.0,0.0,0.0,0.0,0.0,0.0,0.0,0.0,0.0,0.0,0.0,0.0,-4.1033,-4.2121,-4.2807,-4.3101,-4.2971,-4.2266,-4.1516,-4.0251,-3.8445,0.0,0.0,0.0,0.0,0.0,0.0,0.0,0.0,0.0,0.0,0.0,0.0,0.0,0.0,0.0,0.0,0.0,0.0,0.0,0.0,0.0,0.0,0.0,0.0,0.0,0.0,0.0,0.0,0.0,0.0,0.0,0.0,0.0,0.0,0.0,0.0,0.0,0.0,-3.5917,-3.6033,0.0,0.0,0.0,0.0,0.0,0.0,0.0,0.0,-3.3501,0.0,0.0,0.0,0.0,0.0,0.0,0.0,0.0,0.0,0.0,0.0,0.0,0.0,0.0,0.0,0.0,0.0,0.0,0.0,0.0,0.0,0.0,0.0,0.0,0.0,0.0,0.0,0.0,0.0,0.0,0.0,0.0,0.0,0.0,0.0,0.0,0.0,0.0,0.0,0.0,0.0,0.0,0.0,0.0,0.0,0.0,0.0,0.0,0.0,0.0,0.0,0.0,0.0,0.0,0.0,0.0,-4.0193,-4.1476,-4.2655,-4.3677,-4.4147,-4.3831,-4.2605,-4.2136,-4.0824,-3.8505,0.0,0.0,0.0,0.0,0.0,0.0,0.0,0.0,0.0,0.0,0.0,0.0,0.0,0.0,0.0,0.0,0.0,0.0,0.0,0.0,0.0,0.0,0.0,0.0,0.0,0.0,0.0,0.0,0.0,0.0,0.0,0.0,0.0,0.0,0.0,0.0,0.0,0.0,0.0,-3.8411,-3.8787,0.0,0.0,0.0,0.0,0.0,0.0,0.0,0.0,-3.3814,0.0,0.0,0.0,0.0,0.0,0.0,0.0,0.0,0.0,0.0,0.0,0.0,0.0,0.0,0.0,0.0,0.0,0.0,0.0,0.0,0.0,0.0,0.0,0.0,0.0,0.0,0.0,0.0,0.0,0.0,0.0,0.0,0.0,0.0,0.0,0.0,0.0,0.0,0.0,0.0,0.0,0.0,0.0,0.0,0.0,0.0,0.0,0.0,0.0,0.0,0.0,0.0,0.0,0.0,0.0,-4.0409,-4.1873,-4.3023,-4.3912,-4.4434,-4.4012,-4.263,-4.2315,-4.1003,0.0,0.0,0.0,0.0,0.0,0.0,0.0,0.0,0.0,0.0,0.0,0.0,0.0,0.0,0.0,0.0,0.0,0.0,0.0,0.0,0.0,0.0,0.0,0.0,0.0,0.0,0.0,0.0,0.0,0.0,0.0,0.0,0.0,0.0,0.0,0.0,0.0,0.0,0.0,0.0,-3.9733,-4.008,-4.008,0.0,0.0,0.0,0.0,0.0,0.0,-3.6194,-3.5665,0.0,0.0,0.0,0.0,0.0,0.0,0.0,0.0,0.0,0.0,0.0,0.0,0.0,0.0,0.0,0.0,0.0,0.0,0.0,0.0,0.0,0.0,0.0,0.0,0.0,0.0,0.0,0.0,0.0,0.0,0.0,0.0,0.0,0.0,0.0,0.0,0.0,0.0,0.0,0.0,0.0,0.0,0.0,0.0,0.0,0.0,0.0,0.0,0.0,0.0,0.0,0.0,0.0,0.0,0.0,-4.0592,-4.2213,-4.3363,-4.4016,-4.4433,-4.4011,-4.2733,-4.2287,-4.0976,0.0,0.0,0.0,0.0,0.0,0.0,0.0,0.0,0.0,0.0,0.0,0.0,0.0,0.0,0.0,0.0,0.0,0.0,0.0,0.0,0.0,0.0,0.0,0.0,0.0,0.0,0.0,0.0,0.0,0.0,0.0,0.0,0.0,0.0,0.0,0.0,0.0,0.0,0.0,0.0,0.0,-4.138,-4.1594,-4.118,0.0,0.0,0.0,0.0,-3.8586,-3.8022,0.0,0.0,0.0,0.0,0.0,0.0,0.0,0.0,0.0,0.0,0.0,0.0,0.0,0.0,0.0,0.0,0.0,0.0,0.0,0.0,0.0,0.0,0.0,0.0,0.0,0.0,0.0,0.0,0.0,0.0,0.0,0.0,0.0,0.0,0.0,0.0,0.0,0.0,0.0,0.0,0.0,0.0,0.0,0.0,0.0,0.0,0.0,0.0,0.0,0.0,0.0,0.0,0.0,0.0,0.0,0.0,-4.1167,-4.2396,-4.3493,-4.4511,-4.4424,-4.3893,-4.3005,-4.2225,-4.0893,0.0,0.0,0.0,0.0,0.0,0.0,0.0,0.0,0.0,0.0,0.0,0.0,0.0,0.0,0.0,0.0,0.0,0.0,0.0,0.0,0.0,0.0,0.0,0.0,0.0,0.0,0.0,0.0,0.0,0.0,0.0,0.0,0.0,0.0,0.0,0.0,0.0,0.0,0.0,0.0,0.0,-4.3598,-4.2905,-4.3153,-4.3077,0.0,0.0,-4.1321,-4.0298,-3.9681,0.0,0.0,0.0,0.0,0.0,0.0,0.0,0.0,0.0,0.0,0.0,0.0,0.0,0.0,0.0,0.0,0.0,0.0,0.0,0.0,0.0,0.0,0.0,0.0,0.0,0.0,0.0,0.0,0.0,0.0,0.0,0.0,0.0,0.0,0.0,0.0,0.0,0.0,0.0,0.0,0.0,0.0,0.0,0.0,0.0,0.0,0.0,0.0,0.0,0.0,0.0,0.0,0.0,0.0,0.0,-3.9913,-4.1298,-4.2448,-4.3755,-4.5111,-4.4603,-4.402,-4.3544,-4.2376,-4.0891,0.0,0.0,0.0,0.0,0.0,0.0,0.0,0.0,0.0,0.0,0.0,0.0,0.0,0.0,0.0,0.0,0.0,0.0,0.0,0.0,0.0,0.0,0.0,0.0,0.0,0.0,0.0,0.0,0.0,0.0,0.0,0.0,0.0,0.0,0.0,0.0,0.0,0.0,0.0,0.0,0.0,0.0,-4.4934,-4.4985,0.0,0.0,0.0,-4.3497,-4.2372,0.0,0.0,0.0,0.0,0.0,0.0,0.0,0.0,0.0,0.0,0.0,0.0,0.0,0.0,0.0,0.0,0.0,0.0,0.0,0.0,0.0,0.0,0.0,0.0,0.0,0.0,0.0,0.0,0.0,0.0,0.0,0.0,0.0,0.0,0.0,0.0,0.0,0.0,0.0,0.0,0.0,0.0,0.0,0.0,0.0,0.0,0.0,0.0,0.0,0.0,0.0,0.0,0.0,0.0,0.0,0.0,0.0,-4.1716,-4.2709,-4.3963,-4.5366,-4.4753,-4.43,-4.3998,-4.2471,0.0,0.0,0.0,0.0,0.0,0.0,0.0,0.0,0.0,0.0,0.0,0.0,0.0,0.0,0.0,0.0,0.0,0.0,0.0,0.0,0.0,0.0,0.0,0.0,0.0,0.0,0.0,-3.0809,0.0,0.0,0.0,0.0,0.0,0.0,0.0,0.0,0.0,0.0,0.0,0.0,0.0,0.0,-4.5741,-4.6583,-4.6722,-4.6597,0.0,0.0,-4.5648,-4.435,-4.3794,-4.3096,0.0,0.0,0.0,0.0,0.0,0.0,0.0,0.0,0.0,0.0,0.0,0.0,0.0,0.0,0.0,0.0,0.0,0.0,0.0,0.0,0.0,0.0,0.0,0.0,0.0,0.0,0.0,0.0,0.0,0.0,0.0,0.0,0.0,0.0,0.0,0.0,0.0,0.0,0.0,0.0,0.0,0.0,0.0,0.0,0.0,0.0,0.0,0.0,0.0,0.0,0.0,0.0,0.0,0.0,-4.0697,-4.2788,-4.3493,-4.4274,-4.5115,-4.4836,-4.4531,-4.4224,-4.2347,-4.1053,0.0,0.0,0.0,0.0,0.0,0.0,0.0,0.0,0.0,0.0,0.0,0.0,0.0,0.0,0.0,0.0,0.0,0.0,0.0,0.0,0.0,0.0,0.0,0.0,0.0,0.0,0.0,0.0,0.0,0.0,0.0,0.0,0.0,0.0,0.0,0.0,0.0,0.0,0.0,0.0,0.0,-4.7519,-4.7501,-4.8317,-4.88,0.0,0.0,-4.7751,-4.5974,-4.5742,-4.502,-4.3,0.0,0.0,0.0,0.0,0.0,0.0,0.0,0.0,0.0,0.0,0.0,0.0,0.0,0.0,0.0,0.0,0.0,0.0,0.0,0.0,0.0,0.0,0.0,0.0,0.0,0.0,0.0,0.0,0.0,0.0,0.0,0.0,0.0,0.0,0.0,0.0,0.0,0.0,0.0,0.0,0.0,0.0,0.0,0.0,0.0,0.0,0.0,0.0,0.0,0.0,0.0,0.0,0.0,-4.0723,-4.2997,-4.3572,-4.4483,-4.5607,-4.5402,-4.5118,-4.4776,-4.3204,-4.1781,0.0,0.0,0.0,0.0,0.0,0.0,0.0,0.0,0.0,0.0,0.0,0.0,0.0,0.0,0.0,0.0,0.0,0.0,0.0,0.0,0.0,0.0,0.0,0.0,0.0,0.0,0.0,0.0,-3.342,-3.4259,-3.4686,0.0,0.0,0.0,0.0,0.0,0.0,0.0,0.0,0.0,0.0,-4.8013,-4.8988,-4.9442,0.0,0.0,-4.9652,-4.9145,-4.7612,-4.7642,-4.7136,-4.5044,-4.4708,0.0,0.0,0.0,0.0,0.0,0.0,0.0,0.0,0.0,0.0,0.0,0.0,0.0,0.0,0.0,0.0,0.0,0.0,0.0,0.0,0.0,0.0,0.0,0.0,0.0,0.0,0.0,0.0,0.0,0.0,0.0,0.0,0.0,0.0,0.0,0.0,0.0,0.0,0.0,0.0,0.0,0.0,0.0,0.0,0.0,0.0,0.0,0.0,0.0,0.0,0.0,0.0,-4.1167,-4.3258,-4.3909,-4.4788,-4.5799,-4.5719,-4.5457,-4.4965,-4.3652,-4.2283,0.0,0.0,0.0,0.0,0.0,0.0,0.0,0.0,0.0,0.0,0.0,0.0,0.0,0.0,0.0,0.0,0.0,0.0,0.0,0.0,0.0,0.0,0.0,0.0,0.0,0.0,0.0,0.0,-3.4665,-3.5506,-3.6381,0.0,0.0,0.0,0.0,0.0,0.0,0.0,0.0,0.0,0.0,-4.8862,-5.0287,-5.0556,-5.0684,-5.0921,-5.1035,-5.0683,-4.9466,-4.9565,-4.9181,-4.7401,0.0,0.0,0.0,0.0,0.0,0.0,0.0,0.0,0.0,0.0,0.0,0.0,0.0,0.0,0.0,0.0,0.0,0.0,0.0,0.0,0.0,0.0,0.0,0.0,0.0,0.0,0.0,-3.8383,0.0,0.0,-3.8674,0.0,0.0,0.0,0.0,0.0,0.0,0.0,0.0,0.0,0.0,0.0,0.0,0.0,0.0,0.0,0.0,0.0,0.0,0.0,0.0,0.0,0.0,-4.2108,-4.3833,-4.4629,-4.5232,-4.5514,-4.5788,-4.5464,-4.4618,-4.3564,-4.2459,-4.1275,0.0,0.0,0.0,0.0,0.0,0.0,0.0,0.0,0.0,0.0,0.0,0.0,0.0,0.0,0.0,0.0,0.0,0.0,0.0,0.0,0.0,0.0,0.0,0.0,0.0,0.0,-3.5433,-3.6031,-3.6701,0.0,0.0,0.0,0.0,0.0,0.0,0.0,0.0,0.0,0.0,-4.9038,-5.0403,-5.1345,-5.193,-5.2301,-5.2693,-5.2743,-5.2453,-5.1561,-5.1441,-5.1081,0.0,0.0,0.0,0.0,0.0,0.0,0.0,0.0,0.0,0.0,0.0,0.0,0.0,0.0,0.0,0.0,0.0,0.0,0.0,0.0,0.0,0.0,0.0,0.0,0.0,0.0,0.0,-3.9597,-3.9206,0.0,0.0,0.0,0.0,0.0,0.0,0.0,0.0,0.0,0.0,0.0,-4.1853,-4.1621,0.0,0.0,0.0,0.0,0.0,0.0,0.0,0.0,0.0,0.0,0.0,0.0,-4.2814,-4.3619,-4.4934,-4.5531,-4.5279,-4.6078,-4.5868,-4.4644,-4.4267,-4.3037,-4.0852,0.0,0.0,0.0,0.0,0.0,0.0,0.0,0.0,0.0,0.0,0.0,0.0,0.0,0.0,0.0,0.0,0.0,0.0,0.0,0.0,0.0,0.0,0.0,0.0,0.0,-3.6238,0.0,0.0,0.0,0.0,0.0,0.0,0.0,0.0,0.0,0.0,0.0,-4.6525,-4.7519,-4.938,-5.09,-5.161,-5.2536,-5.318,0.0,0.0,0.0,0.0,0.0,0.0,0.0,0.0,0.0,0.0,0.0,0.0,0.0,0.0,-4.6728,-4.5014,-4.4395,-4.404,-4.3663,0.0,0.0,0.0,0.0,0.0,0.0,0.0,0.0,0.0,0.0,0.0,0.0,0.0,0.0,-4.0672,0.0,-4.0597,0.0,0.0,0.0,0.0,0.0,0.0,0.0,0.0,-4.3012,-4.3295,-4.3295,-4.3133,-4.3025,0.0,-4.2821,-4.2006,0.0,0.0,0.0,0.0,0.0,0.0,0.0,0.0,-4.328,-4.3607,-4.5145,-4.5687,-4.5157,-4.6079,-4.6053,-4.4945,-4.4342,-4.3037,-4.0877,-4.0074,-3.8944,0.0,0.0,0.0,0.0,0.0,0.0,0.0,0.0,0.0,0.0,0.0,0.0,0.0,0.0,0.0,0.0,0.0,0.0,0.0,0.0,0.0,0.0,0.0,-3.7792,0.0,0.0,0.0,0.0,0.0,0.0,0.0,0.0,0.0,-4.4473,-4.5908,-4.7381,-4.8633,-5.0179,-5.1603,-5.2566,0.0,0.0,0.0,0.0,0.0,0.0,0.0,-5.4135,-5.3461,-5.2932,-5.2403,-5.1874,-5.1778,-5.1658,-5.1297,0.0,0.0,-4.7954,-4.7269,-4.6921,-4.6431,-4.5691,-4.4925,-4.4119,-4.3314,-4.2725,0.0,0.0,0.0,0.0,0.0,0.0,0.0,0.0,-4.2042,-4.1808,0.0,-4.1899,0.0,0.0,0.0,0.0,-4.3427,-4.3679,0.0,0.0,-4.4459,-4.474,-4.4766,-4.474,-4.4715,-4.4689,-4.407,-4.3563,-4.3,-4.278,0.0,0.0,0.0,0.0,0.0,0.0,-4.3604,-4.387,-4.5221,-4.569,-4.5182,-4.5926,-4.6024,-4.5422,-4.3865,-4.2509,-4.1351,-4.0375,-3.9496,-3.8944,-3.741,0.0,0.0,0.0,0.0,0.0,0.0,0.0,0.0,0.0,0.0,0.0,0.0,0.0,0.0,0.0,0.0,0.0,0.0,0.0,0.0,-3.8814,0.0,0.0,0.0,0.0,0.0,0.0,0.0,0.0,0.0,0.0,-4.6224,-4.7602,-4.9148,-5.0627,0.0,0.0,0.0,0.0,-5.4706,-5.5366,-5.5482,-5.5506,-5.553,-5.5482,-5.5458,-5.5433,0.0,0.0,-5.3942,-5.3846,-5.3822,-5.3846,-5.3413,-5.2331,-4.9806,-4.9662,-4.9496,-4.8243,-4.7951,-4.7582,-4.6329,-4.5806,-4.5524,-4.7656,0.0,0.0,0.0,0.0,-4.4832,-4.4413,-4.4001,-4.3254,-4.2966,-4.3129,-4.3494,0.0,0.0,0.0,0.0,0.0,0.0,-4.4941,-4.5323,-4.5501,-4.5781,-4.6078,-4.5547,-4.5254,-4.5287,-4.4648,-4.4295,-4.4143,-4.4331,-4.3508,-4.1799,0.0,0.0,0.0,0.0,-4.5073,-4.4224,-4.569,-4.6155,-4.5448,-4.6009,-4.5849,-4.4895,-4.4041,-4.3062,-4.1957,-4.1605,-4.088,-3.9521,-3.8994,0.0,0.0,0.0,0.0,0.0,0.0,0.0,0.0,0.0,0.0,0.0,0.0,0.0,0.0,0.0,0.0,0.0,0.0,0.0,-4.0249,-4.0761,-4.123,0.0,0.0,0.0,0.0,0.0,0.0,0.0,0.0,0.0,-4.8657,-4.9233,-4.9769,0.0,0.0,-5.3445,-5.39,-5.5299,-5.6306,-5.6516,-5.7189,0.0,-5.767,-5.7357,-5.6997,-5.6612,-5.5794,-5.5121,-5.4977,-5.4952,-5.4952,-5.4952,-5.4808,-5.4447,-5.3726,-5.2451,-5.1441,-5.0602,-5.0033,-4.9415,-4.8685,-4.8111,-4.7608,-5.0065,-4.7778,-4.7721,-4.725,-4.6436,-4.6219,-4.5848,-4.5383,-4.4836,-4.4682,-4.4942,-4.5181,-4.5182,-4.4842,-4.5429,0.0,0.0,0.0,-4.6185,-4.6512,-4.6487,-4.6723,-4.7122,-4.6663,-4.6451,-4.6426,-4.61,-4.5698,-4.5296,-4.5473,-4.4738,-4.3153,0.0,0.0,-4.3526,-4.503,-4.5501,-4.48,-4.6197,-4.6657,-4.615,-4.6476,-4.61,-4.502,-4.4644,-4.384,-4.259,-4.2539,-4.1831,-4.04,-3.9923,-3.9371,0.0,0.0,0.0,0.0,0.0,0.0,0.0,0.0,0.0,0.0,0.0,-3.6182,-3.731,0.0,0.0,0.0,-3.9722,-4.0752,-4.2183,-4.242,0.0,0.0,0.0,0.0,0.0,0.0,0.0,-4.7088,-4.8122,-4.9205,-5.0359,-5.1225,-5.1802,-5.1922,-5.3197,-5.4351,-5.5001,0.0,-5.7405,-5.7622,-5.8175,-5.8608,-5.8608,-5.8319,-5.8007,-5.7718,-5.7117,-5.6684,-5.666,-5.666,-5.666,-5.6636,-5.6323,-5.6035,-5.6035,-5.4664,-5.3341,-5.2836,-5.2273,-5.1565,-5.0899,-5.0485,-5.0026,-5.2097,-5.1174,-5.0095,-4.8781,-4.7403,-4.7349,-4.7069,-4.6618,-4.668,-4.6773,-4.6796,-4.6941,-4.6732,-4.6317,-4.6786,0.0,-4.7076,-4.7304,-4.7494,-4.7519,-4.7519,-4.7682,-4.8033,-4.7983,-4.7983,-4.7958,-4.7933,-4.7405,-4.6476,-4.6426,-4.5899,-4.4895,-4.491,-4.4744,-4.444,-4.489,-4.533,-4.5673,-4.6677,-4.7205,-4.7179,-4.7093,-4.6627,-4.5598,-4.5522,-4.4719,-4.3137,-4.3092,-4.2534,-4.1455,-4.0425,-3.9873,-3.9798,0.0,0.0,0.0,0.0,0.0,0.0,0.0,0.0,0.0,0.0,0.0,0.0,0.0,0.0,0.0,-4.1681,0.0,-4.389,-4.3937,0.0,0.0,0.0,-4.5486,-4.6054,-4.704,-4.8074,-4.9084,0.0,0.0,-5.1658,-5.3413,-5.4471,-5.4111,-5.452,-5.5409,-5.6876,-5.755,-5.8127,-5.856,-5.8704,-5.8728,-5.8824,-5.8728,-5.8656,-5.8632,-5.8632,-5.8488,-5.8464,-5.8488,-5.856,-5.8464,-5.7766,-5.7141,-5.7141,-5.6299,-5.5506,-5.5049,-5.4454,-5.3832,-5.2947,-5.279,-5.2539,-5.3582,-5.2772,-5.2773,-5.1501,-4.954,-4.9724,-4.9533,-4.9065,-4.8328,-4.8136,-4.8352,-4.7958,-4.7869,-4.8125,-4.788,-4.7898,-4.8117,-4.8182,-4.8352,-4.8635,-4.8635,-4.8803,-4.9163,-4.8761,-4.856,-4.8535,-4.8109,-4.7782,-4.7531,-4.7531,-4.738,-4.7129,-4.7126,-4.6733,-4.5833,-4.6311,-4.6839,-4.733,-4.7606,-4.7732,-4.7707,-4.733,-4.6742,-4.615,-4.5698,-4.4895,-4.3664,-4.3614,-4.3087,-4.2032,-4.176,-4.1379,-4.0924,-4.03,0.0,0.0,0.0,0.0,0.0,0.0,0.0,0.0,0.0,-3.8919,-4.0049,0.0,-4.1028,0.0,-4.3137,-4.4493,-4.5623,-4.5597,0.0,0.0,-4.6924,-4.7136,-4.7666,-4.8652,-4.9565,-5.0239,-5.0912,-5.197,-5.3654,-5.4303,-5.5025,-5.6083,-5.6708,-5.7189,-5.7598,-5.8416,-5.9041,-5.9209,-5.9522,-5.9786,-5.9738,-5.945,-5.9185,-5.9185,-5.8872,-5.8608,-5.8608,-5.8608,-5.8608,-5.8608,-5.8416,-5.8223,-5.8199,-5.7983,-5.779,-5.7574,-5.6056,-5.4639,-5.4383,-5.448,-5.4303,-5.5093,-5.4192,-5.4712,-5.3838,-5.2123,-5.183,-5.1469,-5.0947,-5.0384,-5.0227,-5.0359,-4.9385,-4.9083,-4.9237,-4.8907,-4.8755,-4.8798,-4.8931,-4.9197,-4.9554,-4.9801,-5.0041,-5.0343,-5.0293,-4.9992,-4.949,-4.9188,-4.8761,-4.8309,-4.8284,-4.8159,-4.7908,-4.7908,-4.7732,-4.7431,-4.7456,-4.7631,-4.7908,-4.841,-4.8535,-4.8284,-4.7757,-4.7205,-4.6702,-4.615,-4.5447,-4.4593,-4.4543,-4.4041,-4.2936,-4.2715,-4.2338,-4.1731,-4.1178,-4.0877,0.0,0.0,0.0,0.0,0.0,0.0,0.0,0.0,0.0,0.0,0.0,-4.2886,-4.3915,-4.507,-4.62,-4.7305,-4.7282,-4.7479,-4.8314,-4.85,-4.8772,-4.9301,-5.0095,-5.0888,-5.1658,-5.2211,-5.3149,-5.4736,-5.5385,-5.6179,-5.755,-5.8175,-5.844,-5.8295,-5.9065,-5.9738,-5.9762,-5.9979,-6.0171,-6.0171,-5.9931,-5.9738,-5.9714,-5.9498,-5.9305,-5.9305,-5.9305,-5.9305,-5.9281,-5.9113,-5.8945,-5.8945,-5.8728,-5.8526,-5.8195,-5.7186,-5.6221,-5.5984,-5.5882,-5.5445,-5.642,-5.5622,-5.606,-5.5783,-5.4817,-5.3882,-5.3138,-5.257,-5.2444,-5.2336,-5.2193,-5.1091,-5.0435,-5.0213,-5.0032,-4.9697,-4.9301,-4.962,-4.9938,-5.0346,-5.0837,-5.1222,-5.1423,-5.1875,-5.1599,-5.0645,-5.0569,-4.9992,-4.8987,-4.8987,-4.8686,-4.8134,-4.8134,-4.8385,-4.8837,-4.836,-4.8134,-4.8134,-4.9088,-4.9364,-4.8887,-4.8309,-4.7757,-4.7255,-4.6702,-4.6125,-4.5522,-4.5497,-4.4995,-4.3966,-4.3438,-4.2961,-4.2539,-4.2007,-4.1702,0.0,-4.1702,0.0,0.0,0.0,0.0,0.0,0.0,0.0,0.0,-4.3865,-4.4895,-4.6476,-4.7129,-4.7883,-4.8887,-4.8958,-4.9067,-4.9566,-4.9951,-5.0357,-5.084,-5.1417,-5.2139,-5.3053,-5.3678,-5.4423,-5.5482,-5.6444,-5.7405,-5.8367,-5.9065,-5.9281,-5.8993,-5.9666,-6.0267,-6.0267,-6.0267,-6.0339,-6.0315,-6.0243,-6.0147,-6.0171,-6.0123,-6.0171,-6.0123,-6.0123,-6.0147,-6.0099,-5.9762,-5.9498,-5.9474,-5.9113,-5.8684,-5.8272,-5.8011,-5.7775,-5.729,-5.6791,-5.6214,-5.7469,-5.6575,-5.6993,-5.6939,-5.6351,-5.6074,-5.5253,-5.4092,-5.3634,-5.3089,-5.2523,-5.2656,-5.2419,-5.185,-5.1802,-5.1272,-5.0407,-5.0453,-5.0656,-5.0862,-5.1403,-5.1792,-5.1975,-5.2051,-5.2,-5.1774,-5.1322,-5.077,-5.0117,-5.0092,-4.9816,-4.9289,-4.9264,-4.9339,-4.9439,0.0,0.0,0.0,-4.949,-4.954,-4.9439,-4.8887,-4.8335,-4.7782,-4.7255,0.0,-4.5547,-4.5497,-4.5171,-4.4518,-4.4367,0.0,0.0,0.0,0.0,0.0,0.0,0.0,0.0,0.0,0.0,0.0,-4.5799,-4.5849,-4.5121,-4.5924,-4.7004,-4.8184,-4.8812,-4.9389,-5.0042,-5.0622,-5.1105,-5.1304,-5.1498,-5.1751,-5.2019,-5.2788,-5.3485,-5.3654,-5.4496,-5.5506,-5.6492,-5.6925,-5.743,-5.8512,-5.9426,-5.9955,-5.9907,-6.0412,-6.0796,-6.0796,-6.082,-6.082,-6.0796,-6.046,-6.0219,-6.0171,-6.0171,-6.0171,-6.0171,-6.0171,-6.0171,-6.0171,-6.0099,-6.0003,-6.0003,-5.9955,-5.9643,-5.9272,-5.8851,-5.8395,-5.7467,-5.6952,-5.6473,-5.8549,-5.7961,-5.8157,-5.7946,0.0,-5.72,-5.6643,-5.5862,-5.4875,-5.4187,-5.374,-5.3945,-5.378,-5.3413,-5.2908,-5.2235,-5.1465,-5.1225,-5.1216,-5.1452,-5.1943,-5.2461,-5.2904,-5.2904,-5.2754,-5.2503,-5.195,-5.1398,-5.0845,-5.0569,-5.0268,-4.9992,-4.9741,-4.959,-4.959,-4.959,-4.959,-4.959,-4.959,-4.959,-4.9565,-4.9063,-4.8636,-4.8309,-4.7556,0.0,0.0,0.0,0.0,0.0,0.0,0.0,0.0,-4.4618,0.0,-4.502,-4.5045,-4.5296,-4.5824,-4.6125,-4.6401,-4.6677,-4.7707,-4.8008,-4.7179,-4.7883,-4.8686,-4.9515,-5.0343,-5.1046,-5.1624,-5.2086,-5.2506,-5.2841,-5.2859,-5.2962,-5.33,-5.3876,-5.4303,-5.4616,-5.5289,-5.6131,-5.6925,-5.7021,-5.7694,-5.9089,-5.9594,-6.0099,-6.082,-6.1205,-6.1374,-6.1374,-6.1374,-6.1374,-6.1326,-6.0917,-6.0556,-6.0532,-6.0339,-6.0195,-6.0171,-6.0171,-6.0171,-6.0171,-6.0171,-6.0171,-5.9895,-5.9835,-5.9642,-5.8988,-5.8647,-5.8174,-5.7274,-5.6885,-5.6609,-5.9726,-5.9225,-5.9281,-5.8951,-5.842,-5.7936,-5.7685,-5.7467,0.0,0.0,0.0,-5.5209,-5.5028,-5.4712,-5.3846,-5.3053,-5.2259,-5.1826,-5.1654,-5.1705,-5.2337,-5.2936,-5.3638,-5.3808,-5.3582,-5.3055,-5.2603,-5.2051,-5.1423,-5.0946,-5.0594,-5.0393,-4.9967,-4.969,-4.9615,-4.959,-4.959,-4.959,-4.959,-4.959,-4.959,-4.9163,-4.8925,-4.8786,-4.7908,-4.738,-4.728,-4.6828,-4.6376,-4.5949,-4.5924,-4.5698,-4.5246,-4.5196,-4.5397,-4.5874,-4.5924,-4.6351,-4.7355,-4.7531,-4.7832,-4.846,-4.9364,-4.9665,-4.9113,-4.9565,-5.0167,-5.0795,-5.1699,-5.2503,-5.3155,-5.3428,-5.3715,-5.4116,-5.4107,-5.4229,-5.4519,-5.4824,-5.515,-5.5506,-5.6011,-5.654,-5.6949,-5.7117,-5.7838,-5.9498,-5.9859,-6.0243,-6.1638,-6.1999,-6.1975,-6.2095,-6.2047,-6.1927,-6.1855,-6.147,-6.1109,-6.0917,-6.058,-6.0291,-6.0195,-6.0171,-6.0171,-6.0171,-6.0171,-5.9919,-5.9558,-5.9412,-5.9073,-5.822,-5.8049,-5.7705,-5.7037,-5.669,-5.6407,-6.072,-6.021,-6.023,-5.9913,-5.9398,-5.8796,-5.8366,-5.7972,-5.7208,-5.6933,-5.6848,-5.6726,-5.6149,-5.5265,-5.5121,-5.4063,-5.2307,-5.2187,-5.185,-5.133,-5.2196,-5.2865,-5.3267,-5.4094,-5.416,-5.3607,-5.3507,-5.2955,-5.2076,-5.19,-5.1398,-5.0519,-5.0343,-5.0067,-4.964,-4.959,-4.959,-4.959,-4.959,-4.959,-4.959,-4.9515,-4.9238,-4.8786,-4.8611,-4.8309,-4.7807,-4.7707,-4.7657,-4.7581,-4.7556,-4.7531,-4.7456,-4.7405,-4.7481,-4.7556,-4.7556,-4.7857,-4.851,-4.8987,-4.969,-5.0695,-5.0971,-5.0795,-5.0268,-5.072,-5.1473,-5.2452,-5.2754,-5.3231,-5.421,-5.4813,-5.4974,-5.4835,-5.546,-5.5781,-5.5202,-5.5852,-5.6328,-5.6107,-5.6564,-5.69,-5.7021,-5.7381,-5.8103,-5.9305,-6.0339,-6.1326,-6.2528,-6.2744,-6.2696,-6.2937,-6.2744,-6.2504,-6.2408,-6.2023,-6.1566,-6.1037,-6.0917,-6.0737,-6.0315,-6.0195,-6.0195,-6.0171,-5.9895,-5.9558,-5.9473,-5.9158,-5.8733,-5.8134,-5.7705,-5.7274,-5.6777,-5.6145,-5.5621,-6.1422,-6.1118,-6.0611,-6.0228,-5.997,-5.9427,-5.9016,-5.8817,-5.8497,-5.7935,-5.7248,-5.7389,-5.7021,-5.6275,-5.5987,-5.5169,-5.3942,-5.3101,-5.2502,-5.2087,-5.2171,-5.2523,-5.3217,-5.3543,-5.3683,-5.3683,-5.3406,-5.303,-5.2553,-5.2251,-5.185,-5.1322,-5.072,-5.0142,-4.9615,-4.959,-4.959,-4.959,-4.959,-4.959,-4.959,-4.959,-4.9464,-4.9238,-4.8937,-4.8661,-4.8385,-4.8058,-4.7908,-4.7908,-4.7908,-4.7908,-4.7908,-4.7908,-4.8184,-4.8761,-4.8837,-4.9213,-5.0067,-5.0368,-5.0996,-5.2051,-5.2176,-5.2327,-5.2653,-5.2352,-5.2628,-5.3708,-5.4084,-5.4461,-5.4988,-5.5792,-5.6196,-5.6001,-5.6576,-5.6772,-5.6458,-5.6541,-5.6745,-5.6691,-5.6876,-5.7021,-5.7021,-5.7478,-5.8343,-5.9642,-6.1157,-6.2528,-6.3225,-6.3153,-6.3057,-6.3274,-6.3153,-6.3009,-6.2961,-6.2576,-6.2167,-6.1879,-6.135,-6.1026,-6.0604,-6.0412,-6.0135,-5.9835,-5.9642,-5.9304,-5.8903,-5.8562,-5.8134,-5.7556,-5.7297,-5.6864,-5.6145,-5.5269,-5.4652,-6.2011,-6.2006,-6.108,-6.06,-6.0316,-5.983,-5.9666,-5.9702,-5.9571,-5.8876,-5.7816,-5.7773,-5.7526,-5.6997,-5.6588,-5.6035,-5.5289,-5.4135,-5.3321,-5.2817,-5.2323,-5.2407,-5.2982,-5.3028,-5.3187,-5.3482,-5.3231,-5.3055,-5.2879,-5.2503,-5.2226,-5.2,-5.1096,-5.0318,-4.9791,-4.9791,-4.9715,-4.9615,-4.959,-4.959,-4.959,-4.959,-4.959,-4.9565,-4.9188,-4.8962,-4.8937,-4.8535,-4.8284,-4.8284,-4.841,-4.846,-4.846,-4.8611,-4.9063,-4.9866,-4.9967,-5.0469,-5.1523,-5.1774,-5.2251,-5.3206,-5.3306,-5.3708,-5.4536,-5.3984,-5.3808,-5.4637,-5.5089,-5.544,-5.5792,-5.6495,-5.7072,-5.7149,-5.7424,-5.7595,-5.7531,-5.7315,-5.7145,-5.7187,-5.7021,-5.7045,-5.7261,-5.7646,-5.868,-6.0412,-6.2191,-6.3249,-6.3322,-6.3322,-6.3322,-6.3322,-6.3322,-6.3298,-6.3322,-6.3033,-6.272,-6.2624,-6.1927,-6.135,-6.1037,-6.058,-6.0039,-5.9629,-5.9327,-5.8879,-5.822,-5.7877,-5.7556,-5.7037,-5.669,-5.6145,-5.5445,-5.4652,-5.3922,-6.2523,-6.2469,-6.1867,-6.1144,-6.0303,-6.0135,-6.0087,-6.0087,-6.0123,-5.9786,-5.903,-5.8247,-5.755,-5.7069,-5.6973,-5.6371,-5.5482,-5.5241,-5.4451,-5.3201,-5.2817,-5.2667,-5.2752,-5.3006,-5.3083,-5.3036,-5.3381,-5.3306,-5.2861,-5.2854,-5.2603,-5.2101,-5.1498,-5.0921,-5.0419,-5.0343,-5.0092,-4.9615,-4.959,-4.959,-4.959,-4.959,-4.959,-4.959,-4.954,-4.9515,-4.9515,-4.9464,-4.9439,-4.949,-4.9891,-5.0167,-5.0193,-5.0645,-5.0996,-5.1096,-5.1122,-5.1624,-5.2653,-5.3206,-5.3708,-5.4336,-5.4386,-5.4637,-5.5239,-5.5214,-5.5164,-5.5365,-5.539,-5.5867,-5.6721,-5.7022,-5.7323,-5.7775,-5.8227,-5.845,-5.8089,-5.8073,-5.8001,-5.7552,-5.7204,-5.7189,-5.7646,-5.8247,-5.9402,-6.1229,-6.2528,-6.3322,-6.3322,-6.3322,-6.3322,-6.3322,-6.3322,-6.3322,-6.3322,-6.3322,-6.3057,-6.272,-6.2504,-6.1999,-6.1288,-6.0648,-6.0091,-5.9456,-5.8818,-5.8306,-5.7963,-5.7556,-5.6951,-5.6603,-5.608,-5.5357,-5.4829,-5.4298,-5.3765,-6.2967,-6.296,-6.2128,-6.1157,-6.0243,-6.0171,-6.0171,-6.0171,-6.0171,-5.9883,-5.9378,-5.8921,-5.8295,-5.7478,-5.7165,-5.6756,-5.6323,-5.5698,-5.5073,-5.4451,-5.3955,-5.3498,-5.3148,-5.3431,-5.3338,-5.2911,-5.313,-5.3155,-5.2886,-5.2861,-5.2628,-5.2151,-5.1875,-5.1498,-5.0971,-5.0921,-5.0795,-5.0594,-5.0594,-5.0594,-5.0519,-4.9941,-4.959,-4.9615,-4.9916,-5.0067,-5.0117,-5.0419,-5.0594,-5.0594,-5.082,-5.0921,-5.0921,-5.1147,-5.1423,-5.1749,-5.2377,-5.2904,-5.3356,-5.3884,-5.4461,-5.5013,-5.5039,-5.529,-5.5817,-5.5867,-5.5993,-5.6319,-5.6369,-5.6595,-5.7047,-5.755,-5.8127,-5.8403,-5.8855,-5.9002,-5.8641,-5.8373,-5.8129,-5.7655,-5.7525,-5.755,-5.7983,-5.9113,-6.0412,-6.1686,-6.2696,-6.3298,-6.3322,-6.3322,-6.3322,-6.3322,-6.3322,-6.3322,-6.3322,-6.3322,-6.3225,-6.2945,-6.2481,-6.1828,-6.1565,-6.0504,-5.9695,-5.9288,-5.8539,-5.786,-5.7383,-5.7124,-5.669,-5.6168,-5.5533,-5.4829,-5.4276,-5.3854,-5.3319,-6.3322,-6.3177,-6.2215,-6.1133,-6.0195,-6.0171,-6.0171,-6.0171,-6.0171,-5.9955,-5.9594,-5.945,-5.8897,-5.8031,-5.7478,-5.7165,-5.6925,-5.6203,-5.5746,-5.553,-5.4993,-5.4397,-5.3912,-5.3955,-5.3719,-5.3248,-5.3161,-5.308,-5.2886,-5.2861,-5.2729,-5.2377,-5.2327,-5.2076,-5.1574,-5.1498,-5.1423,-5.1272,-5.1272,-5.1272,-5.1172,-5.0469,-5.0067,-5.0092,-5.0444,-5.067,-5.067,-5.1071,-5.1272,-5.1272,-5.1423,-5.1498,-5.1523,-5.1774,-5.2201,-5.2754,-5.3507,-5.4009,-5.416,-5.4561,-5.5039,-5.5516,-5.5616,-5.5842,-5.6294,-5.6445,-5.6696,-5.7173,-5.7399,-5.7499,-5.7525,-5.8252,-5.873,-5.893,-5.9282,-5.9353,-5.9095,-5.8731,-5.8359,-5.8112,-5.8031,-5.804,-5.844,-5.9907,-6.135,-6.1807,-6.2672,-6.3322,-6.3322,-6.3322,-6.3322,-6.3233,-6.3233,-6.3145,-6.3233,-6.3322,-6.3257,-6.3008,-6.2432,-6.2041,-6.1699,-6.048,-5.9388,-5.9011,-5.8403,-5.7694,-5.6887,-5.6516,-5.6255,-5.5445,-5.4917,-5.4564,-5.4099,-5.3587,-5.3051,-6.3322,-6.3177,-6.2215,-6.1157,-6.0171,-6.0171,-6.0171,-6.0171,-6.0171,-6.0147,-6.0027,-5.9618,-5.9089,-5.8536,-5.8055,-5.7502,-5.7045,-5.69,-5.6612,-5.6155,-5.5602,-5.5279,-5.5102,-5.4475,-5.4128,-5.3893,-5.3748,-5.3482,-5.2936,-5.2861,-5.2904,-5.281,-5.2854,-5.2603,-5.2151,-5.2076,-5.18,-5.1448,-5.1398,-5.1348,-5.1322,-5.1272,-5.1222,-5.1222,-5.1222,-5.1247,-5.1247,-5.1272,-5.1322,-5.1297,-5.18,-5.2076,-5.2176,-5.3005,-5.3783,-5.431,-5.4461,-5.4762,-5.5164,-5.529,-5.5566,-5.6043,-5.6143,-5.6394,-5.6846,-5.6972,-5.7248,-5.7801,-5.8252,-5.8529,-5.8579,-5.8704,-5.8956,-5.9357,-5.9458,-5.9508,-5.9533,-5.9117,-5.9003,-5.8949,-5.8611,-5.8645,-5.9292,-6.0724,-6.1566,-6.1975,-6.2696,-6.3322,-6.3233,-6.3233,-6.3233,-6.3145,-6.2943,-6.2766,-6.3145,-6.3056,-6.2967,-6.2677,-6.2315,-6.2108,-6.1446,-6.0627,-5.9561,-5.866,-5.7965,-5.7231,-5.639,-5.5818,-5.5357,-5.4917,-5.4741,-5.4387,-5.3833,-5.3498,-5.2961,-6.2937,-6.2336,-6.1951,-6.1181,-6.0219,-6.0171,-6.0171,-6.0171,-6.0171,-6.0171,-6.0147,-5.9955,-5.9594,-5.9089,-5.8897,-5.8151,-5.7093,-5.7021,-5.6925,-5.6708,-5.654,-5.6221,-5.5706,-5.5497,-5.5063,-5.4622,-5.4464,-5.4027,-5.3457,-5.308,-5.2861,-5.2861,-5.2861,-5.2804,-5.2653,-5.2628,-5.2528,-5.2352,-5.2327,-5.2327,-5.2302,-5.2327,-5.2327,-5.2327,-5.1975,-5.18,-5.1825,-5.2151,-5.2327,-5.2327,-5.2528,-5.2779,-5.3155,-5.3833,-5.4336,-5.4632,-5.4888,-5.5164,-5.539,-5.5717,-5.5993,-5.6194,-5.6545,-5.6821,-5.7047,-5.7374,-5.7826,-5.8328,-5.8579,-5.883,-5.9156,-5.9207,-5.9282,-5.9433,-5.9508,-5.9659,-5.9857,-5.9644,-5.9474,-5.9515,-5.9317,-5.9278,-5.9966,-6.1013,-6.1758,-6.1903,-6.2696,-6.3225,-6.3233,-6.3056,-6.2855,-6.2718,-6.2262,-6.1901,-6.2368,-6.2368,-6.2279,-6.21,-6.1874,-6.1648,-6.1102,-6.0127,-5.9108,-5.8589,-5.787,-5.6931,-5.6176,-5.538,-5.4895,-5.4741,-5.4475,-5.4032,-5.3587,-5.314,-5.2513,-6.2744,-6.1879,-6.1782,-6.1157,-6.0219,-6.0171,-6.0171,-6.0171,-6.0171,-6.0171,-6.0171,-6.0171,-5.9883,-5.945,-5.9378,-5.8752,-5.7574,-5.7357,-5.7189,-5.7021,-5.71,-5.6873,-5.6401,-5.6391,-5.6061,-5.5407,-5.5114,-5.4708,-5.4073,-5.3638,-5.3356,-5.3206,-5.303,-5.2861,-5.2861,-5.2861,-5.2861,-5.2861,-5.2861,-5.2861,-5.2861,-5.2861,-5.2861,-5.2904,-5.2729,-5.2528,-5.2402,-5.2729,-5.3005,-5.3155,-5.3181,-5.3507,-5.4185,-5.4612,-5.4913,-5.5114,-5.544,-5.5666,-5.5717,-5.6168,-5.647,-5.6495,-5.6997,-5.7374,-5.7549,-5.7951,-5.8403,-5.8805,-5.8981,-5.9156,-5.9382,-5.9483,-5.9508,-5.9533,-5.9659,-5.9885,-6.0261,-6.0251,-6.0229,-6.0105,-5.9883,-5.9918,-6.0388,-6.1229,-6.1782,-6.2023,-6.2817,-6.3209,-6.3056,-6.2735,-6.2262,-6.206,-6.1281,-6.0926,-6.0982,-6.0919,-6.1422,-6.1379,-6.1202,-6.1021,-6.059,-5.9545,-5.8865,-5.8458,-5.7806,-5.691,-5.5998,-5.5069,-5.4695,-5.4519,-5.4032,-5.3498,-5.314,-5.2761,-5.2132,-6.2744,-6.1855,-6.1758,-6.1157,-6.0243,-6.0171,-6.0171,-6.0171,-6.0171,-6.0171,-6.0171,-6.0171,-5.9907,-5.9522,-5.9474,-5.9089,-5.8536,-5.8103,-5.7598,-5.7141,-5.7411,-5.7363,-5.6932,-5.7053,-5.6647,-5.5859,-5.5657,-5.5285,-5.481,-5.4548,-5.426,-5.3733,-5.3306,-5.3155,-5.2936,-5.3105,-5.303,-5.308,-5.3105,-5.3055,-5.2886,-5.308,-5.3105,-5.3105,-5.3432,-5.3432,-5.3005,-5.3005,-5.3281,-5.3658,-5.3708,-5.4235,-5.5089,-5.534,-5.5616,-5.5993,-5.6168,-5.6219,-5.6269,-5.6721,-5.7047,-5.7123,-5.7575,-5.8077,-5.8428,-5.8654,-5.8905,-5.9282,-5.9433,-5.9508,-5.9533,-5.9583,-5.9583,-5.9558,-5.996,-6.0261,-6.0512,-6.0889,-6.1071,-6.0727,-6.0393,-6.0424,-6.0893,-6.1422,-6.1927,-6.2345,-6.2873,-6.308,-6.2653,-6.2078,-6.1658,-6.1187,-6.0328,-5.9612,-5.9444,-5.9473,-6.0131,-6.0542,-6.0499,-6.0296,-5.9931,-5.918,-5.8679,-5.8204,-5.7777,-5.6791,-5.5769,-5.4928,-5.4488,-5.4202,-5.3647,-5.3204,-5.2761,-5.2402,-5.1861,-6.2744,-6.1855,-6.1782,-6.1157,-6.0243,-6.0171,-6.0171,-6.0171,-6.0171,-6.0171,-6.0171,-6.0171,-6.0075,-5.9955,-5.9931,-5.9642,-5.9161,-5.8945,-5.8416,-5.7694,-5.7734,-5.7542,-5.7076,-5.6728,-5.6212,-5.5564,-5.5402,-5.5311,-5.5285,-5.4884,-5.4727,-5.4716,-5.431,-5.4059,-5.4009,-5.4059,-5.4059,-5.4059,-5.4059,-5.4059,-5.4059,-5.4034,-5.4034,-5.4084,-5.421,-5.421,-5.4059,-5.4059,-5.4135,-5.4285,-5.431,-5.4637,-5.529,-5.5742,-5.6043,-5.6219,-5.657,-5.6697,-5.6846,-5.7298,-5.7625,-5.7725,-5.8152,-5.8504,-5.873,-5.9056,-5.9307,-5.9483,-5.9508,-5.9608,-5.996,-6.006,-5.9982,-6.006,-6.0211,-6.0688,-6.1261,-6.1677,-6.1694,-6.1269,-6.0886,-6.0808,-6.1002,-6.147,-6.185,-6.2091,-6.248,-6.2612,-6.2095,-6.1315,-6.0702,-6.0164,-5.9166,-5.8265,-5.8274,-5.8345,-5.8729,-5.9295,-5.9476,-5.9635,-5.9199,-5.8809,-5.8329,-5.7898,-5.738,-5.6732,-5.5687,-5.4956,-5.4406,-5.3985,-5.3581,-5.3029,-5.2575,-5.2125,-5.1635,-6.3244,-6.2323,-6.2274,-6.1583,-6.0447,-6.0423,-6.0339,-6.0255,-6.0171,-6.0255,-6.0423,-6.0255,-6.0255,-6.0339,-6.0255,-6.0003,-5.969,-5.9666,-5.9209,-5.844,-5.8313,-5.7976,-5.7261,-5.6564,-5.6017,-5.5674,-5.5537,-5.5475,-5.546,-5.509,-5.4938,-5.5052,-5.4624,-5.4465,-5.4561,-5.4561,-5.4561,-5.4561,-5.4561,-5.4561,-5.4561,-5.4561,-5.4561,-5.4587,-5.4762,-5.4863,-5.4888,-5.5064,-5.5089,-5.4963,-5.5039,-5.534,-5.5717,-5.6194,-5.652,-5.662,-5.7022,-5.7374,-5.7399,-5.7876,-5.8202,-5.8303,-5.8704,-5.9006,-5.9106,-5.9483,-5.9706,-5.9576,-5.9801,-5.9922,-6.0089,-6.0084,-6.0238,-6.0463,-6.0751,-6.1286,-6.2089,-6.2189,-6.1952,-6.1589,-6.1262,-6.1123,-6.1096,-6.1451,-6.1828,-6.1888,-6.2131,-6.2024,-6.1437,-6.0458,-5.9758,-5.8922,-5.7818,-5.7352,-5.7089,-5.7223,-5.7423,-5.7981,-5.8449,-5.872,-5.8739,-5.8278,-5.7841,-5.7432,-5.6936,-5.6398,-5.542,-5.4817,-5.4287,-5.3928,-5.3457,-5.2986,-5.2587,-5.225,-5.1739,-6.4087,-6.3178,-6.3104,-6.2261,-6.0963,-6.0865,-6.059,-6.0255,-6.0171,-6.0423,-6.059,-6.0423,-6.0507,-6.0674,-6.0507,-6.0315,-6.0231,-6.0099,-5.9859,-5.9436,-5.9249,-5.8741,-5.767,-5.6876,-5.6419,-5.6233,-5.6086,-5.5832,-5.5521,-5.5161,-5.4967,-5.4938,-5.4539,-5.4331,-5.467,-5.4687,-5.4787,-5.4813,-5.4762,-5.4762,-5.4762,-5.4737,-5.4737,-5.4762,-5.5189,-5.544,-5.5491,-5.5892,-5.5942,-5.5566,-5.5917,-5.6194,-5.6344,-5.6771,-5.7072,-5.7123,-5.7625,-5.7876,-5.8052,-5.8453,-5.8678,-5.8728,-5.9155,-5.9481,-5.9478,-5.9801,-5.9968,-5.9702,-6.005,-6.0187,-5.9964,-6.0013,-6.0235,-6.0703,-6.1297,-6.2002,-6.2534,-6.2331,-6.1944,-6.1571,-6.152,-6.1498,-6.1255,-6.1605,-6.1794,-6.1864,-6.1827,-6.1324,-6.0438,-5.9554,-5.8513,-5.7639,-5.6749,-5.6308,-5.6132,-5.6663,-5.6769,-5.6783,-5.731,-5.7797,-5.8,-5.7629,-5.7234,-5.6825,-5.6437,-5.5879,-5.5408,-5.4845,-5.4242,-5.3704,-5.3292,-5.292,-5.2518,-5.2075,-5.1622,-6.4309,-6.3645,-6.3251,-6.2602,-6.1796,-6.1178,-6.0733,-6.059,-6.0339,-6.0423,-6.0757,-6.065,-6.09,-6.1233,-6.0817,-6.0674,-6.059,-6.0339,-6.0147,-5.9979,-5.9918,-5.9133,-5.8031,-5.755,-5.7165,-5.678,-5.6432,-5.625,-5.6318,-5.5592,-5.5357,-5.5633,-5.5287,-5.5209,-5.5331,-5.5622,-5.5767,-5.5792,-5.5792,-5.5792,-5.5767,-5.5767,-5.5792,-5.5792,-5.5942,-5.6018,-5.6043,-5.652,-5.657,-5.6093,-5.652,-5.6821,-5.6798,-5.7274,-5.76,-5.7675,-5.8102,-5.8529,-5.8553,-5.8929,-5.9103,-5.8946,-5.9341,-5.9508,-5.9217,-5.9662,-5.9854,-5.9767,-5.9915,-6.0161,-6.04,-6.0441,-6.0711,-6.1211,-6.1524,-6.1713,-6.1787,-6.1754,-6.1629,-6.1604,-6.163,-6.174,-6.1898,-6.1867,-6.18,-6.1733,-6.1215,-6.0554,-5.9651,-5.879,-5.7934,-5.6842,-5.5977,-5.549,-5.5446,-5.5949,-5.6116,-5.5948,-5.6376,-5.7004,-5.7069,-5.6789,-5.6508,-5.6162,-5.6026,-5.5532,-5.5407,-5.5104,-5.4362,-5.3487,-5.3279,-5.2882,-5.2087,-5.1511,-5.1343,-6.5012,-6.4466,-6.392,-6.329,-6.2519,-6.1727,-6.1174,-6.0841,-6.059,-6.0674,-6.1008,-6.0841,-6.1174,-6.1647,-6.1066,-6.0841,-6.0757,-6.0423,-6.0255,-6.0171,-6.0147,-5.9522,-5.8608,-5.8103,-5.7646,-5.7333,-5.6828,-5.6643,-5.6758,-5.6202,-5.6172,-5.6211,-5.612,-5.6101,-5.6004,-5.6377,-5.66,-5.6674,-5.6749,-5.6922,-5.6922,-5.6922,-5.6922,-5.6848,-5.6774,-5.66,-5.6452,-5.6701,-5.6775,-5.6676,-5.6925,-5.7,-5.6925,-5.7397,-5.7671,-5.7721,-5.8218,-5.8616,-5.889,-5.9164,-5.9334,-5.9321,-5.9613,-5.9632,-5.9595,-5.9827,-6.0147,-5.9903,-6.0074,-6.0285,-6.0496,-6.0656,-6.0949,-6.1157,-6.1292,-6.1387,-6.1497,-6.1506,-6.1585,-6.1582,-6.1607,-6.1652,-6.1955,-6.1729,-6.1479,-6.1242,-6.0836,-6.0108,-5.9158,-5.8321,-5.7424,-5.6443,-5.5776,-5.5377,-5.5196,-5.5604,-5.5652,-5.5457,-5.5472,-5.609,-5.6132,-5.5944,-5.585,-5.5661,-5.5546,-5.5262,-5.4999,-5.4619,-5.3903,-5.3202,-5.3087,-5.2795,-5.1963,-5.1439,-5.1249,-6.581,-6.5308,-6.4781,-6.4061,-6.3144,-6.249,-6.1746,-6.1091,-6.0841,-6.1091,-6.1423,-6.1091,-6.1423,-6.2167,-6.1506,-6.0924,-6.0924,-6.0507,-6.0255,-6.0255,-6.0147,-5.9834,-5.9378,-5.868,-5.8343,-5.8103,-5.7478,-5.7141,-5.7028,-5.6852,-5.6697,-5.6551,-5.661,-5.6643,-5.6587,-5.6894,-5.707,-5.7047,-5.7224,-5.7375,-5.7375,-5.7375,-5.7375,-5.7375,-5.7148,-5.692,-5.6791,-5.6813,-5.689,-5.7193,-5.7219,-5.7042,-5.6811,-5.7253,-5.7573,-5.7798,-5.8217,-5.8684,-5.9048,-5.9226,-5.9343,-5.9607,-5.9673,-5.9796,-5.9837,-6.0123,-6.0383,-6.0029,-6.0515,-6.0639,-6.0713,-6.0857,-6.1135,-6.1194,-6.1102,-6.1205,-6.1363,-6.1429,-6.1398,-6.1547,-6.159,-6.1415,-6.1299,-6.1122,-6.0998,-6.0838,-6.0248,-5.9318,-5.8616,-5.7963,-5.7132,-5.6415,-5.5788,-5.5343,-5.5267,-5.5296,-5.5251,-5.5065,-5.4884,-5.5188,-5.5188,-5.5188,-5.5283,-5.5188,-5.4693,-5.4312,-5.3951,-5.3569,-5.3165,-5.2932,-5.2715,-5.2487,-5.2198,-5.1807,-5.1516,-6.6036,-6.5886,-6.5358,-6.4806,-6.4086,-6.3203,-6.2481,-6.1862,-6.1091,-6.134,-6.1837,-6.1564,-6.1919,-6.2659,-6.2084,-6.1754,-6.1233,-6.0817,-6.0507,-6.0255,-6.0171,-6.0147,-5.9979,-5.9618,-5.9618,-5.9281,-5.8223,-5.7694,-5.7478,-5.6684,-5.5963,-5.6408,-5.6473,-5.6391,-5.6789,-5.6805,-5.674,-5.6715,-5.6917,-5.7067,-5.7092,-5.7067,-5.7067,-5.6991,-5.689,-5.6986,-5.7204,-5.7201,-5.7344,-5.7462,-5.7393,-5.7274,-5.7295,-5.7765,-5.8207,-5.8472,-5.8747,-5.9091,-5.9508,-5.9551,-5.9519,-5.9496,-5.9756,-5.9868,-5.9563,-6.0047,-6.023,-6.0267,-6.0628,-6.0917,-6.1192,-6.1494,-6.1504,-6.1466,-6.1216,-6.1042,-6.104,-6.0834,-6.0828,-6.1106,-6.1168,-6.1322,-6.155,-6.0836,-6.0636,-6.0318,-5.9567,-5.8615,-5.805,-5.753,-5.694,-5.6326,-5.5964,-5.5533,-5.5444,-5.5328,-5.502,-5.4769,-5.4524,-5.4361,-5.4361,-5.4238,-5.4238,-5.4047,-5.3664,-5.3377,-5.3185,-5.3089,-5.278,-5.2587,-5.2394,-5.2104,-5.1911,-5.1717,-5.162,-6.6112,-6.6061,-6.5509,-6.5132,-6.4756,-6.3752,-6.3004,-6.2539,-6.177,-6.1754,-6.2084,-6.1919,-6.2249,-6.2741,-6.2413,-6.1919,-6.1399,-6.0817,-6.0423,-6.0255,-6.0171,-6.0171,-6.0171,-6.0171,-6.0171,-6.0003,-5.9113,-5.8584,-5.8223,-5.7478,-5.7069,-5.6949,-5.6873,-5.6873,-5.6958,-5.698,-5.7087,-5.714,-5.7271,-5.7425,-5.7425,-5.7425,-5.7271,-5.7091,-5.7038,-5.7184,-5.7193,-5.7218,-5.7352,-5.7563,-5.7673,-5.7582,-5.7607,-5.7874,-5.8288,-5.8725,-5.8847,-5.909,-5.9455,-5.9625,-5.964,-5.966,-5.995,-6.0109,-6.0075,-6.0243,-6.0337,-6.0552,-6.0644,-6.0781,-6.1042,-6.1352,-6.1399,-6.1407,-6.1198,-6.1051,-6.1004,-6.0675,-6.0359,-6.0604,-6.0543,-6.0578,-6.0496,-6.0136,-5.9909,-5.9521,-5.9199,-5.8196,-5.7806,-5.7327,-5.6881,-5.6394,-5.6122,-5.5906,-5.5619,-5.5419,-5.4924,-5.456,-5.4153,-5.396,-5.3879,-5.3483,-5.3185,-5.3089,-5.2992,-5.278,-5.2587,-5.2491,-5.2317,-5.2008,-5.1814,-5.162,-5.1523,-5.1523,-5.1523,-6.6112,-6.6086,-6.5609,-6.5383,-6.5157,-6.4354,-6.3652,-6.3203,-6.2639,-6.249,-6.2398,-6.2373,-6.2563,-6.2684,-6.2495,-6.2002,-6.1423,-6.0674,-6.0255,-6.0171,-6.0171,-6.0171,-6.0195,-6.0291,-6.0364,-6.0243,-5.957,-5.9305,-5.9113,-5.8776,-5.7935,-5.7862,-5.7622,-5.7413,-5.7221,-5.7339,-5.7352,-5.7382,-5.7643,-5.7824,-5.7849,-5.7849,-5.7692,-5.7431,-5.7497,-5.7442,-5.7324,-5.7341,-5.7502,-5.7806,-5.783,-5.7797,-5.7869,-5.7983,-5.8175,-5.8762,-5.881,-5.923,-5.9736,-5.9798,-5.9966,-6.0339,-6.0351,-6.0435,-6.06,-6.0462,-6.0457,-6.0569,-6.0631,-6.0446,-6.0318,-6.0692,-6.0926,-6.0931,-6.1013,-6.0975,-6.0859,-6.0454,-6.0117,-6.0213,-6.0039,-5.9975,-5.959,-5.9085,-5.8924,-5.8669,-5.8252,-5.7924,-5.7458,-5.7192,-5.6757,-5.6496,-5.6285,-5.5909,-5.5738,-5.5358,-5.4964,-5.4414,-5.394,-5.3662,-5.3444,-5.3149,-5.2852,-5.2647,-5.2491,-5.2317,-5.2104,-5.1911,-5.1717,-5.1426,-5.1426,-5.1426,-5.1426,-5.1445,-5.1445,-6.6112,-6.6112,-6.6011,-6.5735,-6.5308,-6.5082,-6.4731,-6.4186,-6.3676,-6.3511,-6.341,-6.3028,-6.2862,-6.2834,-6.2766,-6.2274,-6.1571,-6.0868,-6.0315,-6.0315,-6.0315,-6.0315,-6.0412,-6.07,-6.082,-6.0556,-6.0027,-5.9594,-5.9257,-5.8464,-5.844,-5.8271,-5.779,-5.7478,-5.7646,-5.7389,-5.7445,-5.7493,-5.7629,-5.7605,-5.7508,-5.7508,-5.7508,-5.7373,-5.7662,-5.7726,-5.779,-5.8079,-5.8228,-5.7949,-5.7867,-5.794,-5.8094,-5.8341,-5.8684,-5.9054,-5.9247,-5.9547,-6.0195,-6.0567,-6.0709,-6.081,-6.0772,-6.056,-6.0529,-6.0316,-6.0259,-6.0224,-6.031,-6.0346,-6.0427,-6.036,-6.0429,-6.0407,-6.0249,-6.0,-5.9954,-5.9704,-5.9454,-5.9681,-5.9567,-5.9384,-5.8806,-5.8406,-5.8237,-5.7972,-5.7568,-5.7255,-5.6898,-5.6847,-5.6814,-5.6681,-5.6523,-5.6132,-5.5767,-5.5302,-5.4803,-5.4285,-5.3847,-5.3391,-5.3193,-5.2876,-5.266,-5.2541,-5.2185,-5.1776,-5.1581,-5.1445,-5.1426,-5.1426,-5.1445,-5.1445,-5.1445,-5.1445,-5.1445,-6.6112,-6.6112,-6.6112,-6.5961,-6.5685,-6.5409,-6.5157,-6.4881,-6.4353,-6.4161,-6.407,-6.3886,-6.3761,-6.3726,-6.3676,-6.3178,-6.2233,-6.1438,-6.1098,-6.1013,-6.1013,-6.1013,-6.0989,-6.1301,-6.1374,-6.1277,-6.0869,-6.0436,-6.0171,-5.9474,-5.9161,-5.9233,-5.8848,-5.88,-5.8945,-5.8872,-5.8464,-5.8295,-5.8199,-5.8055,-5.7838,-5.7814,-5.7814,-5.7911,-5.8031,-5.8199,-5.819,-5.8147,-5.8461,-5.8569,-5.8225,-5.8304,-5.8573,-5.8715,-5.8756,-5.9103,-5.9378,-5.9687,-6.0258,-6.0472,-6.0608,-6.06,-6.0631,-6.0598,-6.0323,-6.0152,-5.9866,-5.9697,-5.9678,-5.9658,-5.9681,-5.9635,-5.9635,-5.9635,-5.9474,-5.9314,-5.9291,-5.913,-5.8991,-5.9058,-5.9122,-5.884,-5.816,-5.7843,-5.7595,-5.7228,-5.6836,-5.6495,-5.6206,-5.6307,-5.6405,-5.6205,-5.5918,-5.5706,-5.5366,-5.5004,-5.4704,-5.4222,-5.3902,-5.3445,-5.3188,-5.3049,-5.2814,-5.264,-5.2129,-5.1816,-5.1504,-5.1465,-5.1445,-5.1484,-5.1504,-5.1543,-5.1465,-5.1445,-5.1465,-6.6112,-6.6112,-6.6112,-6.6112,-6.6036,-6.566,-6.5459,-6.5358,-6.5032,-6.4781,-6.463,-6.463,-6.4555,-6.4454,-6.4262,-6.3816,-6.3019,-6.2226,-6.1858,-6.1686,-6.1686,-6.1758,-6.1807,-6.1927,-6.1951,-6.1951,-6.2071,-6.1758,-6.1013,-6.0315,-6.0219,-6.0099,-6.0171,-6.0099,-5.9979,-5.9859,-5.9859,-5.9666,-5.9378,-5.9113,-5.8728,-5.8608,-5.8608,-5.8632,-5.868,-5.8752,-5.8506,-5.8532,-5.8438,-5.8634,-5.8413,-5.8298,-5.8825,-5.871,-5.8571,-5.8686,-5.9201,-5.9562,-5.9756,-6.0077,-6.0318,-6.0175,-6.0147,-6.0114,-5.9988,-5.9633,-5.9272,-5.8834,-5.8717,-5.851,-5.8348,-5.8459,-5.8525,-5.8499,-5.8565,-5.8703,-5.8583,-5.8462,-5.8297,-5.8407,-5.8677,-5.8235,-5.7487,-5.7031,-5.6769,-5.6232,-5.5742,-5.5641,-5.5455,-5.5442,-5.5475,-5.5344,-5.5206,-5.5044,-5.49,-5.4716,-5.4375,-5.4133,-5.3933,-5.3636,-5.3499,-5.3301,-5.3127,-5.2912,-5.2756,-5.2402,-5.1953,-5.168,-5.1894,-5.1953,-5.1758,-5.168,-5.1719,-5.166,-5.1641,-6.6112,-6.6112,-6.6112,-6.6112,-6.6112,-6.6011,-6.5986,-6.5961,-6.586,-6.5634,-6.5208,-6.5267,-6.5016,-6.468,-6.4134,-6.3662,-6.3178,-6.2763,-6.232,-6.2172,-6.1975,-6.1975,-6.1951,-6.2312,-6.2456,-6.2528,-6.2889,-6.2552,-6.1807,-6.082,-6.0532,-6.0724,-6.0243,-5.9762,-6.0388,-6.0436,-6.0147,-6.0027,-5.9642,-5.9161,-5.8776,-5.8704,-5.8704,-5.88,-5.8958,-5.9164,-5.8927,-5.8853,-5.8832,-5.7993,-5.8143,-5.7782,-5.7372,-5.749,-5.7648,-5.8004,-5.8782,-5.965,-5.9619,-5.9893,-6.0101,-5.9792,-5.9749,-5.9545,-5.9271,-5.9019,-5.8514,-5.7771,-5.7743,-5.7508,-5.7034,-5.6916,-5.6971,-5.7332,-5.7651,-5.775,-5.7741,-5.8031,-5.7885,-5.7824,-5.807,-5.7375,-5.6622,-5.622,-5.5882,-5.5291,-5.4808,-5.4806,-5.4724,-5.4899,-5.4824,-5.4783,-5.4582,-5.4499,-5.4237,-5.4074,-5.4051,-5.3906,-5.3848,-5.3769,-5.373,-5.3613,-5.3574,-5.3379,-5.3203,-5.3047,-5.2715,-5.2558,-5.2558,-5.2422,-5.2246,-5.2129,-5.207,-5.1973,-5.1894,-6.6112,-6.6112,-6.6112,-6.6112,-6.6112,-6.6112,-6.6112,-6.6112,-6.6112,-6.5986,-6.5871,-6.6101,-6.6035,-6.5613,-6.5043,-6.464,-6.4272,-6.3644,-6.3259,-6.2973,-6.2799,-6.2624,-6.2744,-6.2889,-6.3009,-6.3081,-6.3177,-6.3129,-6.2456,-6.2023,-6.1686,-6.1686,-6.1157,-6.0917,-6.1013,-6.1085,-6.0893,-6.058,-6.0123,-5.9738,-5.9546,-5.9498,-5.9498,-5.9498,-5.9488,-5.9475,-5.9422,-5.8905,-5.8901,-5.8415,-5.8336,-5.7803,-5.7559,-5.7557,-5.7488,-5.7601,-5.83,-5.8752,-5.882,-5.934,-5.9386,-5.9361,-5.9177,-5.8971,-5.837,-5.7929,-5.7557,-5.6789,-5.6954,-5.6778,-5.6601,-5.6868,-5.7059,-5.7133,-5.7228,-5.727,-5.7355,-5.7367,-5.7475,-5.7527,-5.7516,-5.6983,-5.6697,-5.6715,-5.65,-5.5939,-5.5463,-5.5274,-5.4923,-5.4664,-5.4499,-5.4313,-5.4054,-5.3877,-5.3639,-5.346,-5.3558,-5.3535,-5.3613,-5.3633,-5.3926,-5.3926,-5.3848,-5.3828,-5.3711,-5.3555,-5.3398,-5.3105,-5.2812,-5.2754,-5.2715,-5.2598,-5.25,-5.2422,-5.2344,-6.6112,-6.6112,-6.6112,-6.6112,-6.6112,-6.6112,-6.6112,-6.6112,-6.6112,-6.6112,-6.6197,-6.6429,-6.6601,-6.6601,-6.595,-6.5384,-6.5285,-6.4639,-6.4202,-6.3939,-6.3675,-6.3362,-6.3225,-6.3298,-6.3394,-6.3538,-6.3586,-6.3634,-6.3586,-6.3225,-6.2865,-6.2768,-6.2119,-6.1951,-6.1951,-6.1879,-6.1638,-6.0893,-6.0748,-6.0532,-6.0388,-6.0508,-6.0471,-6.0326,-6.0095,-5.9897,-5.9735,-5.9087,-5.8847,-5.8321,-5.8008,-5.758,-5.7371,-5.7295,-5.713,-5.7103,-5.7415,-5.7731,-5.7964,-5.8444,-5.8647,-5.8692,-5.8618,-5.8242,-5.7776,-5.712,-5.6778,-5.639,-5.6507,-5.6581,-5.6612,-5.6853,-5.6967,-5.7094,-5.7199,-5.7297,-5.7297,-5.736,-5.7346,-5.7396,-5.7361,-5.7235,-5.7137,-5.7436,-5.7223,-5.6623,-5.6207,-5.5688,-5.5044,-5.4395,-5.4251,-5.4067,-5.3988,-5.3773,-5.3656,-5.3398,-5.334,-5.332,-5.3418,-5.3574,-5.3926,-5.4043,-5.3965,-5.4004,-5.4023,-5.3926,-5.3711,-5.3359,-5.3047,-5.3203,-5.3281,-5.3066,-5.2949,-5.2851,-5.2734,-6.6112,-6.6112,-6.6112,-6.6112,-6.6112,-6.6112,-6.6112,-6.6112,-6.6112,-6.6112,-6.6283,-6.6197,-6.654,-6.6626,-6.6369,-6.5853,-6.5421,-6.5335,-6.4814,-6.429,-6.3939,-6.3747,-6.3619,-6.3538,-6.3682,-6.4019,-6.4067,-6.4332,-6.4524,-6.4115,-6.3706,-6.3298,-6.2904,-6.2687,-6.2528,-6.2504,-6.2119,-6.159,-6.1518,-6.1398,-6.1253,-6.1326,-6.1394,-6.0939,-6.0789,-6.0363,-5.9158,-5.8828,-5.8409,-5.7602,-5.7528,-5.7226,-5.6985,-5.7033,-5.6926,-5.6709,-5.6637,-5.6924,-5.7314,-5.7754,-5.7951,-5.7782,-5.7647,-5.7741,-5.7363,-5.7389,-5.708,-5.6513,-5.6479,-5.639,-5.6342,-5.6396,-5.6863,-5.6947,-5.7149,-5.7254,-5.7296,-5.728,-5.7264,-5.719,-5.7227,-5.7139,-5.7119,-5.7389,-5.7028,-5.6386,-5.5586,-5.5065,-5.4481,-5.3933,-5.3949,-5.3906,-5.3945,-5.3906,-5.3906,-5.3769,-5.3535,-5.3652,-5.3828,-5.3887,-5.4043,-5.4082,-5.418,-5.4023,-5.4023,-5.4023,-5.4004,-5.3711,-5.3594,-5.3848,-5.3848,-5.3555,-5.334,-5.3203,-5.3047,-6.6369,-6.6112,-6.6112,-6.6112,-6.6112,-6.6112,-6.6112,-6.6112,-6.6112,-6.6455,-6.6967,-6.6967,-6.7052,-6.7052,-6.6711,-6.6283,-6.5853,-6.5533,-6.5186,-6.4874,-6.4646,-6.44,-6.4255,-6.4294,-6.4428,-6.4572,-6.462,-6.4644,-6.4813,-6.4741,-6.4596,-6.4229,-6.3828,-6.3329,-6.3145,-6.3033,-6.272,-6.26,-6.2528,-6.2456,-6.2119,-6.2071,-6.1859,-6.1066,-6.0718,-6.0294,-5.9441,-5.8772,-5.8255,-5.7838,-5.7612,-5.7206,-5.6846,-5.7066,-5.6973,-5.673,-5.6709,-5.6836,-5.6921,-5.7259,-5.7255,-5.7556,-5.7464,-5.7358,-5.707,-5.6971,-5.6647,-5.6398,-5.6453,-5.6479,-5.6464,-5.6676,-5.7086,-5.7008,-5.707,-5.7173,-5.7277,-5.7318,-5.7318,-5.7339,-5.7256,-5.7231,-5.7132,-5.7194,-5.675,-5.6187,-5.5206,-5.4463,-5.4097,-5.3789,-5.3984,-5.4082,-5.4141,-5.4141,-5.4141,-5.3926,-5.3691,-5.3945,-5.4238,-5.4297,-5.4355,-5.4433,-5.4453,-5.4258,-5.4043,-5.4062,-5.4062,-5.4043,-5.4023,-5.4023,-5.4004,-5.3926,-5.373,-5.3555,-5.3437,-6.6711,-6.6283,-6.6283,-6.6197,-6.6112,-6.6112,-6.6112,-6.6112,-6.6112,-6.6626,-6.7477,-6.7477,-6.7561,-6.7477,-6.7052,-6.6626,-6.6359,-6.6053,-6.5869,-6.5719,-6.5601,-6.538,-6.5283,-6.5209,-6.5156,-6.5259,-6.5173,-6.5221,-6.5486,-6.5414,-6.539,-6.5355,-6.5298,-6.4886,-6.3892,-6.3595,-6.3458,-6.3346,-6.3466,-6.3442,-6.3057,-6.3049,-6.2783,-6.1806,-6.1296,-6.063,-5.9977,-5.9267,-5.8596,-5.8231,-5.7857,-5.7556,-5.7325,-5.7208,-5.711,-5.7056,-5.698,-5.7022,-5.7022,-5.7101,-5.7006,-5.739,-5.7355,-5.7225,-5.6954,-5.6843,-5.6702,-5.6485,-5.6614,-5.6759,-5.678,-5.7028,-5.7152,-5.7132,-5.7132,-5.7235,-5.7463,-5.7546,-5.7525,-5.7525,-5.7463,-5.7504,-5.7306,-5.7226,-5.6617,-5.591,-5.4923,-5.4415,-5.4365,-5.4258,-5.4355,-5.4414,-5.4433,-5.4414,-5.4375,-5.4277,-5.4238,-5.4473,-5.4707,-5.4707,-5.4765,-5.4824,-5.4726,-5.4473,-5.4297,-5.418,-5.4101,-5.4043,-5.4023,-5.4023,-5.4023,-5.4004,-5.3965,-5.3808,-5.3867,-6.7222,-6.6797,-6.6797,-6.654,-6.6197,-6.6112,-6.6112,-6.6112,-6.6197,-6.6711,-6.7561,-6.7561,-6.784,-6.784,-6.7333,-6.6933,-6.6854,-6.6837,-6.6716,-6.6453,-6.6636,-6.6656,-6.6398,-6.6186,-6.6142,-6.627,-6.6093,-6.5987,-6.6304,-6.6183,-6.6256,-6.6557,-6.6604,-6.6529,-6.495,-6.4367,-6.386,-6.3466,-6.4019,-6.4187,-6.4122,-6.4115,-6.371,-6.2999,-6.2108,-6.1188,-6.033,-5.9698,-5.8991,-5.827,-5.8157,-5.7689,-5.6938,-5.6849,-5.6641,-5.6328,-5.6209,-5.6376,-5.6666,-5.7073,-5.7301,-5.7385,-5.7291,-5.72,-5.7206,-5.7238,-5.7107,-5.6863,-5.7132,-5.7215,-5.7235,-5.7277,-5.7359,-5.7422,-5.7463,-5.7546,-5.7794,-5.7898,-5.7898,-5.7918,-5.7918,-5.7838,-5.7657,-5.7393,-5.6558,-5.5705,-5.4733,-5.4423,-5.4551,-5.4687,-5.4765,-5.4765,-5.4785,-5.4941,-5.4941,-5.4805,-5.4824,-5.5058,-5.5215,-5.5273,-5.5254,-5.5273,-5.5078,-5.4746,-5.4531,-5.4394,-5.4219,-5.4043,-5.4043,-5.4023,-5.4023,-5.4023,-5.4023,-5.4023,-5.4023,-6.7646,-6.7307,-6.7307,-6.6967,-6.654,-6.6197,-6.6112,-6.6197,-6.6797,-6.7417,-6.7925,-6.8261,-6.8261,-6.8119,-6.7918,-6.7622,-6.7355,-6.737,-6.7215,-6.7392,-6.7563,-6.7469,-6.7324,-6.7185,-6.7091,-6.6988,-6.6785,-6.6509,-6.6448,-6.6496,-6.6496,-6.6658,-6.7309,-6.7336,-6.6895,-6.6487,-6.5894,-6.5553,-6.5606,-6.5558,-6.5154,-6.4885,-6.431,-6.3543,-6.2504,-6.1501,-6.0606,-6.0038,-5.9182,-5.8363,-5.8203,-5.7771,-5.7151,-5.6961,-5.6895,-5.6718,-5.6738,-5.6821,-5.6966,-5.7238,-5.7296,-5.7337,-5.7238,-5.7243,-5.7248,-5.7211,-5.7194,-5.7339,-5.7566,-5.7649,-5.7691,-5.8001,-5.8167,-5.8208,-5.8229,-5.825,-5.8374,-5.8374,-5.8374,-5.8374,-5.8374,-5.8374,-5.8252,-5.7698,-5.7041,-5.6385,-5.5444,-5.4933,-5.4941,-5.5058,-5.5117,-5.5137,-5.5195,-5.543,-5.5508,-5.5351,-5.5488,-5.5801,-5.5937,-5.5996,-5.5937,-5.5762,-5.5488,-5.5176,-5.4902,-5.4629,-5.4433,-5.4238,-5.4082,-5.4023,-5.4023,-5.4023,-5.4023,-5.4023,-5.4023,-6.7893,-6.7473,-6.7653,-6.7477,-6.6967,-6.654,-6.6369,-6.654,-6.7307,-6.7925,-6.8203,-6.8597,-6.868,-6.8481,-6.8436,-6.8422,-6.809,-6.8351,-6.8293,-6.8411,-6.8648,-6.858,-6.8509,-6.8321,-6.8006,-6.7672,-6.7304,-6.7027,-6.675,-6.6589,-6.6709,-6.7181,-6.7488,-6.7913,-6.7928,-6.7499,-6.679,-6.644,-6.6256,-6.6115,-6.5646,-6.5228,-6.4552,-6.3689,-6.2661,-6.1601,-6.0914,-6.0129,-5.934,-5.8557,-5.8144,-5.7866,-5.7478,-5.7206,-5.7215,-5.7215,-5.7215,-5.7277,-5.7401,-5.7442,-5.7584,-5.7812,-5.7463,-5.7339,-5.7422,-5.7504,-5.7629,-5.7794,-5.798,-5.8084,-5.8229,-5.8581,-5.8643,-5.8664,-5.8664,-5.8664,-5.885,-5.885,-5.885,-5.885,-5.885,-5.885,-5.8768,-5.8106,-5.7459,-5.6941,-5.63,-5.5743,-5.5273,-5.5312,-5.5371,-5.541,-5.5508,-5.5723,-5.5859,-5.5859,-5.6094,-5.6504,-5.6504,-5.6426,-5.6367,-5.6152,-5.5879,-5.5644,-5.541,-5.5137,-5.4726,-5.4473,-5.4316,-5.4141,-5.4023,-5.4023,-5.4023,-5.4023,-5.4023,-6.7711,-6.7401,-6.7944,-6.7899,-6.7477,-6.7052,-6.6882,-6.6967,-6.7756,-6.8203,-6.8287,-6.868,-6.8816,-6.8837,-6.9001,-6.9057,-6.9171,-6.965,-6.9571,-6.9587,-6.9726,-6.9635,-6.9351,-6.8949,-6.8726,-6.8337,-6.7904,-6.7469,-6.7261,-6.6995,-6.7236,-6.7783,-6.8122,-6.8431,-6.8213,-6.7779,-6.7205,-6.695,-6.6857,-6.6646,-6.6176,-6.5447,-6.4812,-6.3917,-6.2825,-6.1992,-6.1223,-6.0373,-5.9441,-5.8796,-5.8267,-5.7792,-5.7414,-5.7235,-5.7235,-5.7297,-5.7359,-5.7629,-5.7856,-5.7918,-5.8084,-5.8208,-5.7794,-5.7711,-5.7794,-5.7939,-5.8063,-5.8291,-5.8498,-5.856,-5.8684,-5.8767,-5.885,-5.885,-5.885,-5.8995,-5.9243,-5.9326,-5.9326,-5.9326,-5.9326,-5.9326,-5.916,-5.8658,-5.7821,-5.7261,-5.6642,-5.5842,-5.539,-5.543,-5.5488,-5.5586,-5.5742,-5.5996,-5.6074,-5.6015,-5.623,-5.6504,-5.6582,-5.6523,-5.6523,-5.6484,-5.625,-5.6035,-5.5957,-5.5644,-5.5078,-5.4746,-5.457,-5.4394,-5.4238,-5.4082,-5.4101,-5.4043,-5.4023,-6.7511,-6.782,-6.8002,-6.8065,-6.8009,-6.784,-6.7756,-6.7866,-6.8119,-6.8287,-6.868,-6.8764,-6.9082,-6.9448,-6.9462,-6.9754,-7.0153,-7.0384,-7.042,-7.0552,-7.0579,-7.0299,-7.0056,-6.9696,-6.9361,-6.8817,-6.8411,-6.8125,-6.7844,-6.762,-6.7721,-6.8104,-6.8441,-6.8489,-6.8368,-6.8008,-6.7793,-6.7578,-6.7484,-6.7105,-6.656,-6.5824,-6.5159,-6.4086,-6.28,-6.2055,-6.1309,-6.0332,-5.9426,-5.8889,-5.8252,-5.7755,-5.7235,-5.7525,-5.7794,-5.8187,-5.825,-5.8312,-5.8394,-5.8415,-5.8519,-5.8643,-5.8353,-5.8332,-5.8374,-5.8457,-5.8539,-5.8767,-5.8995,-5.9078,-5.916,-5.9243,-5.9305,-5.9347,-5.9347,-5.945,-5.9657,-5.9657,-5.9678,-5.9678,-5.9678,-5.9678,-5.9531,-5.8799,-5.7937,-5.7586,-5.6965,-5.6038,-5.5547,-5.5586,-5.5508,-5.5586,-5.5625,-5.5781,-5.5937,-5.5918,-5.6191,-5.6445,-5.6523,-5.6582,-5.6562,-5.6523,-5.6484,-5.6387,-5.6191,-5.5801,-5.5273,-5.5058,-5.498,-5.4707,-5.4531,-5.4316,-5.4141,-5.4101,-5.4043,-6.6991,-6.7331,-6.754,-6.782,-6.8091,-6.8351,-6.8455,-6.8455,-6.8455,-6.8597,-6.879,-6.9108,-6.937,-6.971,-7.018,-7.0584,-7.0958,-7.1235,-7.1283,-7.106,-7.1126,-7.0859,-7.0592,-7.026,-6.9876,-6.9386,-6.9041,-6.8856,-6.8676,-6.8628,-6.8706,-6.8444,-6.8588,-6.8709,-6.8757,-6.8781,-6.8661,-6.8277,-6.7989,-6.7511,-6.6842,-6.6101,-6.5094,-6.4182,-6.2915,-6.2045,-6.1315,-6.0329,-5.9656,-5.9079,-5.8478,-5.8076,-5.7794,-5.8084,-5.8229,-5.8539,-5.8539,-5.8664,-5.8808,-5.8871,-5.8974,-5.9078,-5.9119,-5.916,-5.9078,-5.9057,-5.9119,-5.9243,-5.9429,-5.9595,-5.9699,-5.9781,-5.9885,-5.9968,-5.9968,-5.9968,-5.9968,-5.9968,-5.9968,-5.9968,-5.9968,-5.9947,-5.9548,-5.8812,-5.8138,-5.7806,-5.7223,-5.6266,-5.5859,-5.5781,-5.5566,-5.5449,-5.543,-5.5469,-5.5605,-5.5742,-5.5918,-5.6172,-5.6484,-5.6543,-5.6562,-5.6543,-5.6484,-5.6445,-5.6387,-5.5957,-5.5527,-5.5527,-5.5449,-5.5156,-5.4922,-5.4805,-5.4551,-5.4238,-5.416,-6.6259,-6.6364,-6.6861,-6.7436,-6.7958,-6.8398,-6.8659,-6.8795,-6.8711,-6.8764,-6.8952,-6.9448,-6.971,-7.0023,-7.0729,-7.1252,-7.1583,-7.1923,-7.1878,-7.1656,-7.1656,-7.1417,-7.0974,-7.0579,-7.0553,-7.0205,-7.0003,-6.9904,-6.9715,-6.9606,-6.9358,-6.9094,-6.9334,-6.9478,-6.943,-6.943,-6.9188,-6.8704,-6.7984,-6.7435,-6.6641,-6.5724,-6.4776,-6.4142,-6.3187,-6.225,-6.1551,-6.0771,-6.0006,-5.9397,-5.8866,-5.8498,-5.8601,-5.8622,-5.8684,-5.8829,-5.8933,-5.9078,-5.9285,-5.9347,-5.9554,-5.974,-5.9988,-5.9843,-5.9636,-5.9492,-5.9533,-5.9616,-5.9781,-5.9802,-5.9885,-5.9906,-5.9968,-5.9988,-5.9988,-5.9988,-5.9988,-5.9988,-5.9988,-5.9988,-5.9988,-5.9988,-5.9779,-5.9023,-5.8284,-5.8012,-5.7316,-5.6395,-5.6191,-5.6055,-5.5742,-5.543,-5.5215,-5.5195,-5.5332,-5.5449,-5.5527,-5.5801,-5.6172,-5.625,-5.6113,-5.625,-5.6445,-5.623,-5.6015,-5.6094,-5.5898,-5.584,-5.5723,-5.5527,-5.5351,-5.5332,-5.5039,-5.4629,-5.4375,-6.5867,-6.6312,-6.6861,-6.72,-6.741,-6.7958,-6.8194,-6.8246,-6.8664,-6.8764,-6.8868,-6.9448,-6.9945,-7.0415,-7.1095,-7.1644,-7.2062,-7.2167,-7.2184,-7.2122,-7.2122,-7.191,-7.1609,-7.1537,-7.1359,-7.1138,-7.0947,-7.0991,-7.067,-7.0411,-7.0252,-6.9962,-6.9986,-6.9792,-6.9695,-6.9695,-6.9378,-6.8768,-6.8237,-6.7465,-6.6778,-6.6008,-6.5157,-6.4153,-6.319,-6.217,-6.1424,-6.0676,-5.9947,-5.9418,-5.8908,-5.8788,-5.9098,-5.9119,-5.9326,-5.9574,-5.9554,-5.9636,-5.9678,-5.974,-5.9843,-5.9926,-6.0009,-6.0009,-5.9947,-5.9864,-5.9885,-5.9988,-6.003,-6.003,-6.0071,-6.0071,-6.0071,-6.0071,-6.0071,-6.0071,-6.005,-6.003,-6.003,-5.9988,-5.9988,-5.9884,-5.9779,-5.9254,-5.8601,-5.784,-5.7096,-5.6504,-5.6465,-5.6348,-5.5996,-5.5625,-5.5039,-5.4961,-5.5117,-5.5234,-5.5332,-5.539,-5.5664,-5.5703,-5.5703,-5.5879,-5.6055,-5.5742,-5.5547,-5.5859,-5.6074,-5.5957,-5.584,-5.5781,-5.5762,-5.5742,-5.5527,-5.5156,-5.4863,-6.558,-6.5946,-6.6495,-6.673,-6.6913,-6.7645,-6.7985,-6.8089,-6.8586,-6.8894,-6.9291,-6.9814,-7.0311,-7.0755,-7.1409,-7.1879,-7.2271,-7.2297,-7.2297,-7.2297,-7.2376,-7.2331,-7.2362,-7.2408,-7.2129,-7.1869,-7.1737,-7.1618,-7.1554,-7.1352,-7.1,-7.0543,-7.018,-6.9889,-6.9792,-6.9695,-6.9305,-6.8619,-6.8202,-6.761,-6.6815,-6.5719,-6.4984,-6.4069,-6.3153,-6.2147,-6.1437,-6.0723,-6.0232,-5.9842,-5.9388,-5.9347,-5.9574,-5.9616,-5.9719,-5.9864,-5.9947,-5.9988,-6.0009,-6.003,-6.003,-6.0071,-6.0257,-6.034,-6.0423,-6.0382,-6.0464,-6.0527,-6.0402,-6.0402,-6.0692,-6.0775,-6.0775,-6.0775,-6.0713,-6.0692,-6.0527,-6.0382,-6.0216,-5.9988,-5.9988,-5.9988,-5.9674,-5.9043,-5.8389,-5.8072,-5.7329,-5.6689,-5.6582,-5.6582,-5.625,-5.5937,-5.543,-5.5078,-5.5195,-5.5234,-5.5215,-5.5254,-5.5312,-5.5508,-5.5703,-5.5664,-5.5625,-5.5644,-5.5762,-5.6074,-5.6191,-5.6094,-5.6191,-5.623,-5.6191,-5.6172,-5.5918,-5.5683,-5.5469,-6.5397,-6.5475,-6.5946,-6.6155,-6.6338,-6.7383,-6.7854,-6.7958,-6.856,-6.9161,-6.9684,-7.0285,-7.0572,-7.1069,-7.1748,-7.2088,-7.2297,-7.2297,-7.2297,-7.2323,-7.2428,-7.2575,-7.2826,-7.2923,-7.2966,-7.2767,-7.2581,-7.2401,-7.2236,-7.1886,-7.1408,-7.0736,-7.0349,-7.018,-6.9889,-6.9597,-6.9207,-6.8497,-6.7906,-6.7114,-6.6093,-6.5189,-6.4661,-6.3973,-6.3097,-6.2275,-6.1612,-6.1094,-6.0574,-6.0135,-5.9843,-5.9843,-5.9864,-5.9885,-5.9906,-5.9988,-5.9988,-6.005,-6.0113,-6.0175,-6.0195,-6.0299,-6.0589,-6.0775,-6.0858,-6.092,-6.0982,-6.1023,-6.0899,-6.0878,-6.1168,-6.1313,-6.1313,-6.1313,-6.1251,-6.1189,-6.0961,-6.0754,-6.0485,-6.0175,-6.0113,-6.0113,-5.961,-5.8958,-5.841,-5.8092,-5.7541,-5.7009,-5.6582,-5.6582,-5.6426,-5.6289,-5.6035,-5.5762,-5.5508,-5.5332,-5.5293,-5.5254,-5.5332,-5.5547,-5.5664,-5.5566,-5.5664,-5.5996,-5.6152,-5.6133,-5.625,-5.6211,-5.6367,-5.6504,-5.6465,-5.6387,-5.6348,-5.6133,-5.6055,-6.5397,-6.5397,-6.5528,-6.558,-6.5763,-6.6782,-6.7253,-6.7436,-6.8429,-6.9161,-6.9762,-7.0337,-7.0807,-7.1278,-7.1958,-7.2297,-7.2297,-7.2297,-7.2297,-7.2323,-7.2689,-7.2951,-7.3332,-7.3857,-7.4378,-7.4099,-7.3537,-7.318,-7.2835,-7.2361,-7.1886,-7.1599,-7.0639,-7.0446,-7.0253,-6.9889,-6.9305,-6.8497,-6.7808,-6.7213,-6.5614,-6.4908,-6.4604,-6.3915,-6.3097,-6.2253,-6.1633,-6.1094,-6.0595,-6.0198,-5.9988,-5.9988,-6.003,-6.005,-6.0092,-6.0154,-6.0133,-6.032,-6.0444,-6.0527,-6.0609,-6.0878,-6.1127,-6.121,-6.1272,-6.1334,-6.1458,-6.1706,-6.1562,-6.1355,-6.1479,-6.1479,-6.1479,-6.1479,-6.1458,-6.1417,-6.1272,-6.1168,-6.1023,-6.0754,-6.0568,-6.0402,-6.007,-5.9291,-5.849,-5.8046,-5.7348,-5.6815,-5.6601,-5.6601,-5.664,-5.6601,-5.6562,-5.623,-5.5898,-5.5586,-5.5488,-5.539,-5.5371,-5.5566,-5.5586,-5.541,-5.5566,-5.6035,-5.5957,-5.5801,-5.5957,-5.6328,-5.6387,-5.6484,-5.6543,-5.6543,-5.6543,-5.6504,-5.6348]},{"header":{"parameterUnit":"m.s-1","parameterCategory":1,"la1":31.0,"la2":29.5877,"lo1":-88.7671,"lo2":-86.6584,"dy":0.0162,"dx":0.0185,"nx":115,"ny":88,"refTime":"2024-03-24T18:00:00:Z","depth":0,"parameterNumber":3,"parameterNumberName":"V-component_of_WINDS"},"data":[0.0,0.0,0.0,0.0,0.0,0.0,0.0,0.0,0.0,0.0,0.0,0.0,0.0,0.0,0.0,0.0,0.0,0.0,0.0,0.0,0.0,0.0,0.0,0.0,0.0,0.0,0.0,0.0,0.0,0.0,0.0,0.0,0.0,0.0,0.0,0.0,0.0,0.0,0.0,0.0,0.0,0.0,0.0,0.0,0.0,0.0,0.0,0.0,0.0,0.0,0.0,0.0,0.0,0.0,0.0,0.0,0.0,0.0,0.0,0.0,0.0,0.0,0.0,0.0,0.0,0.0,0.0,0.0,0.0,0.0,0.0,0.0,0.0,0.0,0.0,0.0,0.0,0.0,0.0,0.0,0.0,0.0,0.0,0.0,0.0,0.0,0.0,0.0,0.0,0.0,0.0,0.0,0.0,0.0,0.0,0.0,0.0,0.0,0.0,0.0,0.0,0.0,0.0,0.0,0.0,0.0,0.0,0.0,0.0,0.0,0.0,0.0,0.0,0.0,0.0,0.0,0.0,0.0,0.0,0.0,0.0,0.0,0.0,0.0,0.0,0.0,0.0,0.0,0.0,0.0,0.0,0.0,0.0,0.0,0.0,0.0,0.0,0.0,0.0,0.0,0.0,0.0,0.0,0.0,0.0,0.0,0.0,0.0,0.0,0.0,0.0,0.0,0.0,0.0,0.0,0.0,0.0,0.0,0.0,0.0,0.0,0.0,0.0,0.0,0.0,0.0,0.0,0.0,0.0,0.0,0.0,0.0,0.0,0.0,0.0,0.0,0.0,0.0,0.0,0.0,0.0,0.0,0.0,0.0,0.0,0.0,0.0,0.0,0.0,0.0,0.0,0.0,0.0,0.0,0.0,0.0,0.0,0.0,0.0,0.0,0.0,0.0,0.0,0.0,0.0,0.0,0.0,0.0,0.0,0.0,0.0,0.0,0.0,0.0,0.0,0.0,0.0,0.0,0.0,0.0,0.0,0.0,0.0,0.0,0.0,0.0,0.0,0.0,0.0,0.0,0.0,0.0,0.0,0.0,0.0,0.0,0.0,0.0,0.0,0.0,0.0,0.0,0.0,0.0,0.0,0.0,0.0,0.0,0.0,0.0,0.0,0.0,0.0,0.0,0.0,0.0,0.0,0.0,0.0,0.0,0.0,0.0,0.0,0.0,0.0,0.0,0.0,0.0,0.0,0.0,0.0,0.0,0.0,0.0,0.0,0.0,0.0,0.0,0.0,0.0,0.0,0.0,0.0,0.0,0.0,0.0,0.0,0.0,0.0,0.0,0.0,0.0,0.0,0.0,0.0,0.0,0.0,0.0,0.0,0.0,0.0,0.0,0.0,0.0,0.0,0.0,0.0,0.0,0.0,0.0,0.0,0.0,0.0,0.0,0.0,0.0,0.0,0.0,0.0,0.0,0.0,0.0,0.0,0.0,0.0,0.0,0.0,0.0,0.0,0.0,0.0,0.0,0.0,0.0,0.0,0.0,0.0,0.0,0.0,0.0,0.0,0.0,0.0,0.0,0.0,0.0,0.0,0.0,0.0,0.0,0.0,0.0,0.0,0.0,0.0,0.0,0.0,0.0,0.0,0.0,0.0,0.0,0.0,0.0,0.0,0.0,0.0,0.0,0.0,0.0,0.0,0.0,0.0,0.0,0.0,0.0,0.0,0.0,0.0,0.0,0.0,0.0,0.0,0.0,0.0,0.0,0.0,0.0,0.0,0.0,0.0,0.0,0.0,0.0,0.0,0.0,0.0,0.0,0.0,0.0,0.0,0.0,0.0,0.0,0.0,0.0,0.0,0.0,0.0,0.0,0.0,0.0,0.0,0.0,0.0,0.0,0.0,0.0,0.0,0.0,0.0,0.0,0.0,0.0,0.0,0.0,0.0,0.0,0.0,0.0,0.0,0.0,0.0,0.0,0.0,0.0,0.0,0.0,0.0,0.0,0.0,0.0,0.0,0.0,0.0,0.0,0.0,0.0,0.0,0.0,0.0,0.0,0.0,0.0,0.0,0.0,0.0,0.0,0.0,0.0,0.0,0.0,0.0,0.0,0.0,0.0,0.0,0.0,0.0,0.0,0.0,0.0,0.0,0.0,0.0,0.0,0.0,0.0,0.0,0.0,0.0,0.0,0.0,0.0,0.0,0.0,0.0,0.0,0.0,0.0,0.0,0.0,0.0,0.0,0.0,0.0,0.0,0.0,0.0,0.0,0.0,0.0,0.0,0.0,0.0,0.0,0.0,0.0,0.0,0.0,0.0,0.0,0.0,0.0,0.0,0.0,0.0,0.0,0.0,0.0,0.0,0.0,0.0,0.0,0.0,0.0,0.0,0.0,0.0,0.0,0.0,0.0,0.0,0.0,0.0,0.0,0.0,0.0,0.0,0.0,0.0,0.0,0.0,0.0,0.0,0.0,0.0,0.0,0.0,0.0,0.0,0.0,0.0,0.0,0.0,0.0,0.0,0.0,0.0,0.0,0.0,0.0,0.0,0.0,0.0,0.0,0.0,0.0,0.0,0.0,0.0,0.0,0.0,0.0,0.0,0.0,0.0,0.0,0.0,0.0,0.0,0.0,0.0,0.0,0.0,0.0,0.0,0.0,0.0,0.0,0.0,0.0,0.0,0.0,0.0,0.0,0.0,0.0,0.0,0.0,0.0,0.0,0.0,0.0,0.0,0.0,0.0,0.0,0.0,0.0,0.0,0.0,0.0,0.0,0.0,0.0,0.0,0.0,0.0,0.0,0.0,0.0,0.0,0.0,0.0,0.0,0.0,0.0,0.0,0.0,0.0,0.0,0.0,0.0,0.0,0.0,0.0,0.0,0.0,0.0,0.0,0.0,0.0,0.0,0.0,0.0,0.0,0.0,0.0,0.0,0.0,0.0,0.0,0.0,0.0,0.0,0.0,0.0,0.0,0.0,0.0,0.0,0.0,0.0,0.0,0.0,0.0,0.0,0.0,0.0,0.0,0.0,0.0,0.0,0.0,0.0,0.0,0.0,0.0,0.0,0.0,0.0,0.0,0.0,0.0,0.0,0.0,0.0,0.0,0.0,0.0,0.0,0.0,0.0,0.0,0.0,0.0,0.0,0.0,0.0,0.0,0.0,0.0,0.0,0.0,0.0,0.0,0.0,0.0,0.0,0.0,0.0,0.0,0.0,0.0,0.0,0.0,0.0,0.0,0.0,0.0,0.0,0.0,0.0,0.0,0.0,0.0,0.0,0.0,0.0,0.0,0.0,0.0,0.0,0.0,0.0,0.0,0.0,0.0,0.0,0.0,0.0,0.0,0.0,0.0,0.0,0.0,0.0,0.0,0.0,0.0,0.0,0.0,0.0,0.0,0.0,0.0,0.0,0.0,0.0,0.0,0.0,0.0,0.0,0.0,0.0,0.0,0.0,0.0,0.0,0.0,0.0,0.0,0.0,0.0,0.0,0.0,0.0,0.0,0.0,0.0,0.0,0.0,0.0,0.0,0.0,0.0,0.0,0.0,0.0,0.0,0.0,0.0,0.0,0.0,0.0,0.0,0.0,0.0,0.0,0.0,0.0,0.0,0.0,0.0,0.0,0.0,0.0,0.0,0.0,0.0,0.0,0.0,0.0,0.0,0.0,0.0,0.0,0.0,0.0,0.0,0.0,0.0,0.0,0.0,0.0,0.0,0.0,0.0,0.0,0.0,0.0,0.0,0.0,0.0,0.0,0.0,0.0,0.0,0.0,0.0,0.0,0.0,0.0,0.0,0.0,0.0,0.0,0.0,0.0,0.0,0.0,0.0,0.0,0.0,0.0,0.0,0.0,0.0,0.0,0.0,0.0,0.0,0.0,0.0,0.0,0.0,0.0,0.0,0.0,0.0,0.0,0.0,0.0,0.0,0.0,0.0,0.0,0.0,0.0,0.0,0.0,0.0,0.0,0.0,0.0,0.0,0.0,0.0,0.0,0.0,0.0,0.0,0.0,0.0,0.0,0.0,0.0,0.0,0.0,0.0,0.0,0.0,0.0,0.0,0.0,0.0,0.0,0.0,0.0,0.0,0.0,0.0,0.0,0.0,0.0,0.0,0.0,0.0,0.0,0.0,0.0,0.0,0.0,0.0,0.0,0.0,0.0,0.0,0.0,0.0,0.0,0.0,0.0,0.0,0.0,0.0,0.0,0.0,0.0,0.0,0.0,0.0,0.0,0.0,0.0,0.0,0.0,0.0,0.0,0.0,0.0,0.0,0.0,0.0,0.0,0.0,0.0,0.0,0.0,0.0,0.0,0.0,0.0,0.0,0.0,2.5532,0.0,0.0,0.0,0.0,0.0,0.0,0.0,0.0,0.0,0.0,0.0,0.0,0.0,0.0,0.0,0.0,0.0,0.0,0.0,0.0,0.0,0.0,0.0,0.0,0.0,0.0,0.0,0.0,0.0,0.0,0.0,0.0,0.0,0.0,0.0,0.0,0.0,0.0,0.0,0.0,0.0,0.0,0.0,0.0,0.0,0.0,0.0,0.0,0.0,0.0,0.0,0.0,0.0,0.0,0.0,0.0,0.0,0.0,0.0,0.0,0.0,0.0,0.0,0.0,0.0,0.0,0.0,0.0,0.0,0.0,0.0,0.0,0.0,0.0,0.0,0.0,0.0,0.0,0.0,0.0,0.0,0.0,0.0,0.0,0.0,0.0,0.0,0.0,0.0,0.0,0.0,0.0,0.0,0.0,0.0,0.0,0.0,0.0,0.0,0.0,0.0,0.0,0.0,0.0,0.0,0.0,0.0,0.0,0.0,0.0,2.6506,2.6322,2.6233,2.6106,2.5954,0.0,0.0,0.0,0.0,0.0,0.0,0.0,0.0,0.0,0.0,0.0,0.0,0.0,0.0,0.0,0.0,0.0,0.0,0.0,0.0,0.0,0.0,0.0,0.0,0.0,0.0,0.0,0.0,0.0,0.0,0.0,0.0,0.0,0.0,0.0,0.0,0.0,0.0,0.0,0.0,0.0,0.0,0.0,0.0,0.0,0.0,0.0,0.0,0.0,0.0,0.0,0.0,0.0,0.0,0.0,0.0,0.0,0.0,0.0,0.0,0.0,0.0,0.0,0.0,0.0,0.0,0.0,0.0,0.0,0.0,0.0,0.0,0.0,0.0,0.0,0.0,0.0,0.0,0.0,0.0,0.0,0.0,0.0,0.0,0.0,0.0,0.0,0.0,0.0,0.0,0.0,0.0,0.0,0.0,0.0,0.0,0.0,0.0,0.0,0.0,0.0,0.0,0.0,0.0,0.0,0.0,0.0,0.0,0.0,0.0,0.0,0.0,2.687,2.6886,2.6689,0.0,0.0,0.0,0.0,0.0,0.0,0.0,0.0,0.0,0.0,0.0,0.0,0.0,0.0,0.0,0.0,0.0,0.0,0.0,0.0,0.0,0.0,0.0,0.0,0.0,0.0,0.0,0.0,0.0,0.0,0.0,0.0,0.0,0.0,0.0,0.0,0.0,0.0,0.0,0.0,0.0,0.0,0.0,0.0,0.0,0.0,0.0,0.0,0.0,0.0,0.0,0.0,0.0,0.0,0.0,0.0,0.0,0.0,0.0,0.0,0.0,0.0,0.0,0.0,0.0,0.0,0.0,0.0,0.0,0.0,0.0,0.0,0.0,0.0,0.0,0.0,0.0,0.0,0.0,0.0,0.0,0.0,0.0,0.0,0.0,0.0,0.0,0.0,0.0,0.0,0.0,0.0,0.0,0.0,0.0,0.0,0.0,0.0,0.0,0.0,0.0,0.0,0.0,0.0,0.0,0.0,0.0,0.0,0.0,0.0,2.753,2.7677,2.771,0.0,2.8346,0.0,0.0,0.0,0.0,0.0,0.0,0.0,0.0,0.0,0.0,0.0,0.0,0.0,0.0,0.0,0.0,0.0,0.0,0.0,0.0,0.0,0.0,0.0,0.0,0.0,0.0,0.0,0.0,0.0,0.0,0.0,0.0,0.0,0.0,0.0,0.0,0.0,0.0,0.0,0.0,0.0,0.0,0.0,0.0,0.0,0.0,0.0,0.0,0.0,0.0,0.0,0.0,0.0,0.0,0.0,0.0,0.0,0.0,0.0,0.0,0.0,0.0,0.0,0.0,0.0,0.0,0.0,0.0,0.0,0.0,0.0,0.0,0.0,0.0,0.0,0.0,0.0,0.0,0.0,0.0,0.0,0.0,0.0,0.0,0.0,0.0,0.0,0.0,0.0,0.0,0.0,0.0,0.0,0.0,0.0,0.0,0.0,0.0,0.0,0.0,0.0,0.0,0.0,0.0,0.0,0.0,0.0,0.0,0.0,0.0,2.759,2.7789,2.8118,2.8444,0.0,0.0,0.0,0.0,0.0,0.0,0.0,0.0,0.0,0.0,0.0,0.0,0.0,0.0,0.0,0.0,0.0,0.0,0.0,0.0,0.0,0.0,0.0,0.0,0.0,0.0,0.0,0.0,0.0,0.0,0.0,0.0,0.0,0.0,0.0,0.0,0.0,0.0,0.0,0.0,0.0,0.0,0.0,0.0,0.0,0.0,0.0,0.0,0.0,0.0,0.0,0.0,0.0,0.0,0.0,0.0,0.0,0.0,0.0,0.0,0.0,0.0,0.0,0.0,0.0,0.0,0.0,0.0,0.0,0.0,0.0,0.0,0.0,0.0,0.0,0.0,0.0,0.0,0.0,0.0,0.0,0.0,0.0,0.0,0.0,0.0,0.0,0.0,0.0,0.0,0.0,0.0,0.0,0.0,0.0,0.0,0.0,0.0,0.0,0.0,0.0,0.0,0.0,0.0,0.0,0.0,0.0,0.0,0.0,0.0,2.8054,2.8197,2.8432,2.8762,2.9039,2.9334,0.0,0.0,0.0,0.0,0.0,0.0,0.0,0.0,0.0,0.0,0.0,0.0,0.0,0.0,0.0,0.0,0.0,0.0,0.0,0.0,0.0,0.0,0.0,0.0,0.0,0.0,0.0,0.0,0.0,0.0,0.0,0.0,0.0,0.0,0.0,0.0,0.0,0.0,0.0,0.0,0.0,0.0,0.0,0.0,0.0,0.0,0.0,0.0,0.0,0.0,0.0,0.0,0.0,0.0,0.0,0.0,0.0,0.0,0.0,0.0,0.0,0.0,0.0,0.0,0.0,0.0,0.0,0.0,0.0,0.0,0.0,0.0,0.0,0.0,0.0,0.0,0.0,0.0,0.0,0.0,0.0,0.0,0.0,0.0,0.0,0.0,0.0,0.0,0.0,0.0,0.0,0.0,0.0,0.0,0.0,0.0,0.0,0.0,0.0,0.0,0.0,0.0,0.0,0.0,0.0,0.0,0.0,0.0,2.9196,2.9381,2.9661,2.9947,2.9774,2.9772,0.0,0.0,0.0,0.0,0.0,0.0,0.0,0.0,0.0,0.0,0.0,0.0,0.0,0.0,0.0,0.0,0.0,0.0,0.0,0.0,0.0,0.0,0.0,0.0,0.0,0.0,0.0,0.0,0.0,0.0,0.0,0.0,0.0,0.0,0.0,0.0,0.0,0.0,0.0,0.0,0.0,0.0,0.0,0.0,0.0,0.0,0.0,0.0,0.0,0.0,0.0,0.0,0.0,0.0,0.0,0.0,0.0,0.0,0.0,0.0,0.0,0.0,0.0,0.0,0.0,0.0,0.0,0.0,0.0,0.0,0.0,0.0,0.0,0.0,0.0,0.0,0.0,0.0,0.0,0.0,0.0,0.0,0.0,0.0,0.0,0.0,0.0,0.0,0.0,0.0,0.0,0.0,0.0,0.0,0.0,0.0,0.0,0.0,0.0,0.0,0.0,0.0,0.0,0.0,0.0,0.0,0.0,0.0,0.0,2.931,2.9592,2.9846,3.0089,3.0351,3.0317,0.0,0.0,0.0,0.0,0.0,0.0,0.0,0.0,0.0,0.0,0.0,0.0,0.0,0.0,0.0,0.0,0.0,0.0,0.0,0.0,0.0,0.0,0.0,0.0,0.0,0.0,0.0,0.0,0.0,0.0,0.0,0.0,0.0,0.0,0.0,0.0,0.0,0.0,0.0,0.0,0.0,0.0,0.0,0.0,0.0,0.0,0.0,0.0,0.0,0.0,0.0,0.0,0.0,0.0,0.0,0.0,0.0,0.0,0.0,0.0,0.0,0.0,0.0,0.0,0.0,0.0,0.0,0.0,0.0,0.0,0.0,0.0,0.0,0.0,0.0,0.0,0.0,0.0,0.0,0.0,0.0,0.0,0.0,0.0,0.0,0.0,0.0,0.0,0.0,0.0,0.0,0.0,0.0,0.0,0.0,0.0,0.0,0.0,0.0,0.0,0.0,0.0,0.0,0.0,0.0,0.0,0.0,0.0,0.0,3.0303,0.0,3.069,3.1135,3.1199,3.1025,0.0,0.0,0.0,0.0,0.0,0.0,0.0,0.0,0.0,0.0,0.0,0.0,0.0,0.0,0.0,0.0,0.0,0.0,0.0,0.0,0.0,0.0,0.0,0.0,0.0,0.0,0.0,0.0,0.0,0.0,0.0,0.0,0.0,0.0,0.0,0.0,0.0,0.0,0.0,0.0,0.0,0.0,0.0,0.0,0.0,0.0,0.0,0.0,0.0,0.0,0.0,0.0,0.0,0.0,0.0,0.0,0.0,0.0,0.0,0.0,0.0,0.0,0.0,0.0,0.0,0.0,0.0,0.0,0.0,0.0,0.0,0.0,0.0,0.0,0.0,0.0,0.0,0.0,0.0,0.0,0.0,0.0,0.0,0.0,0.0,0.0,0.0,0.0,0.0,0.0,0.0,0.0,0.0,0.0,0.0,0.0,0.0,0.0,0.0,0.0,0.0,0.0,0.0,0.0,0.0,0.0,0.0,0.0,3.1514,3.2421,3.2112,3.2316,3.3229,3.2349,3.1924,0.0,0.0,0.0,0.0,0.0,0.0,0.0,0.0,0.0,0.0,0.0,0.0,0.0,0.0,0.0,0.0,0.0,0.0,0.0,0.0,0.0,0.0,0.0,0.0,0.0,0.0,0.0,0.0,0.0,0.0,0.0,0.0,0.0,0.0,0.0,0.0,0.0,0.0,0.0,0.0,0.0,0.0,0.0,0.0,0.0,0.0,0.0,0.0,0.0,0.0,0.0,0.0,0.0,0.0,0.0,0.0,0.0,0.0,0.0,0.0,0.0,0.0,0.0,0.0,0.0,0.0,0.0,0.0,0.0,0.0,0.0,0.0,0.0,0.0,0.0,0.0,0.0,0.0,0.0,0.0,0.0,0.0,0.0,0.0,0.0,0.0,0.0,0.0,0.0,0.0,0.0,0.0,0.0,0.0,0.0,0.0,0.0,0.0,0.0,0.0,0.0,0.0,0.0,0.0,0.0,0.0,0.0,0.0,0.0,3.3331,3.3333,3.356,3.396,3.3514,3.3155,0.0,0.0,0.0,0.0,0.0,0.0,0.0,0.0,0.0,0.0,0.0,0.0,0.0,0.0,0.0,0.0,0.0,0.0,0.0,0.0,0.0,0.0,0.0,0.0,0.0,0.0,0.0,0.0,0.0,0.0,0.0,0.0,0.0,0.0,0.0,0.0,0.0,0.0,0.0,0.0,0.0,0.0,0.0,0.0,0.0,0.0,0.0,0.0,0.0,0.0,0.0,0.0,0.0,0.0,0.0,0.0,0.0,0.0,0.0,0.0,0.0,0.0,0.0,0.0,0.0,0.0,0.0,0.0,0.0,0.0,0.0,0.0,0.0,0.0,0.0,0.0,0.0,0.0,0.0,0.0,0.0,0.0,0.0,0.0,0.0,0.0,0.0,0.0,0.0,0.0,0.0,0.0,0.0,0.0,0.0,0.0,0.0,0.0,0.0,0.0,0.0,0.0,0.0,0.0,0.0,0.0,0.0,0.0,0.0,3.5355,3.4959,3.4936,3.5179,3.4826,3.436,3.3762,0.0,0.0,0.0,0.0,0.0,0.0,0.0,0.0,0.0,0.0,0.0,0.0,0.0,0.0,0.0,0.0,0.0,0.0,0.0,0.0,0.0,0.0,0.0,0.0,0.0,0.0,0.0,0.0,0.0,0.0,0.0,0.0,0.0,0.0,0.0,0.0,0.0,0.0,0.0,0.0,0.0,0.0,0.0,0.0,0.0,0.0,0.0,0.0,0.0,0.0,0.0,0.0,0.0,0.0,0.0,0.0,0.0,0.0,0.0,0.0,0.0,0.0,0.0,0.0,0.0,0.0,0.0,0.0,0.0,0.0,0.0,0.0,0.0,0.0,0.0,0.0,0.0,0.0,0.0,0.0,0.0,0.0,0.0,0.0,0.0,0.0,0.0,0.0,0.0,0.0,0.0,0.0,0.0,0.0,0.0,0.0,0.0,0.0,0.0,0.0,0.0,0.0,0.0,0.0,0.0,0.0,0.0,0.0,3.8283,3.7098,3.6573,3.6765,3.6203,3.5498,0.0,0.0,0.0,0.0,0.0,0.0,0.0,0.0,0.0,0.0,0.0,0.0,0.0,0.0,0.0,0.0,0.0,0.0,0.0,0.0,0.0,0.0,0.0,0.0,0.0,0.0,0.0,0.0,0.0,0.0,0.0,0.0,0.0,0.0,0.0,0.0,0.0,0.0,0.0,0.0,0.0,0.0,0.0,0.0,0.0,0.0,0.0,0.0,0.0,0.0,0.0,0.0,0.0,0.0,0.0,0.0,0.0,0.0,0.0,0.0,0.0,0.0,0.0,0.0,0.0,0.0,0.0,0.0,0.0,0.0,0.0,0.0,0.0,0.0,0.0,0.0,0.0,0.0,0.0,0.0,0.0,0.0,0.0,0.0,0.0,0.0,0.0,0.0,0.0,0.0,0.0,0.0,0.0,0.0,0.0,0.0,0.0,0.0,0.0,0.0,0.0,0.0,0.0,0.0,0.0,0.0,0.0,0.0,0.0,3.9827,4.0498,3.9983,3.8086,3.7316,3.6854,0.0,0.0,0.0,0.0,0.0,0.0,0.0,0.0,0.0,0.0,0.0,0.0,0.0,0.0,0.0,0.0,0.0,0.0,0.0,0.0,0.0,0.0,0.0,0.0,0.0,0.0,0.0,0.0,0.0,0.0,0.0,0.0,0.0,0.0,0.0,0.0,0.0,0.0,0.0,0.0,0.0,0.0,0.0,0.0,0.0,0.0,0.0,0.0,0.0,0.0,0.0,0.0,0.0,0.0,0.0,0.0,0.0,0.0,0.0,0.0,0.0,0.0,0.0,0.0,0.0,0.0,0.0,0.0,0.0,0.0,0.0,0.0,0.0,0.0,0.0,0.0,0.0,0.0,0.0,0.0,0.0,0.0,0.0,0.0,0.0,0.0,0.0,0.0,0.0,0.0,0.0,0.0,0.0,0.0,0.0,0.0,0.0,0.0,0.0,0.0,0.0,0.0,0.0,0.0,0.0,0.0,0.0,0.0,4.0768,4.1446,4.2398,4.2131,4.0534,3.9568,3.8745,0.0,0.0,0.0,0.0,0.0,0.0,0.0,0.0,0.0,0.0,0.0,0.0,0.0,0.0,0.0,0.0,0.0,0.0,0.0,0.0,0.0,0.0,0.0,0.0,0.0,0.0,0.0,0.0,0.0,0.0,0.0,0.0,0.0,0.0,0.0,0.0,0.0,0.0,0.0,0.0,0.0,0.0,0.0,0.0,0.0,0.0,0.0,0.0,0.0,0.0,0.0,0.0,0.0,0.0,0.0,0.0,0.0,0.0,0.0,0.0,0.0,0.0,0.0,0.0,0.0,0.0,0.0,0.0,0.0,0.0,0.0,0.0,0.0,0.0,0.0,0.0,0.0,0.0,0.0,0.0,0.0,0.0,0.0,0.0,0.0,0.0,0.0,0.0,0.0,0.0,0.0,0.0,0.0,0.0,0.0,0.0,0.0,0.0,0.0,0.0,0.0,0.0,0.0,0.0,0.0,0.0,0.0,0.0,4.1994,4.3114,4.3551,4.3713,4.3627,4.221,4.0719,0.0,0.0,0.0,0.0,0.0,0.0,0.0,0.0,0.0,0.0,0.0,0.0,0.0,0.0,0.0,0.0,0.0,0.0,0.0,0.0,0.0,0.0,0.0,0.0,0.0,0.0,0.0,0.0,0.0,0.0,0.0,0.0,0.0,0.0,0.0,0.0,0.0,0.0,0.0,0.0,0.0,0.0,0.0,0.0,0.0,0.0,0.0,0.0,0.0,0.0,0.0,0.0,0.0,0.0,0.0,0.0,0.0,0.0,0.0,0.0,0.0,0.0,0.0,0.0,0.0,0.0,0.0,0.0,0.0,0.0,0.0,0.0,0.0,0.0,0.0,0.0,0.0,0.0,0.0,0.0,0.0,0.0,0.0,0.0,0.0,0.0,0.0,0.0,0.0,0.0,0.0,0.0,0.0,0.0,0.0,0.0,0.0,0.0,0.0,0.0,0.0,0.0,0.0,0.0,0.0,0.0,0.0,0.0,4.3922,4.4721,4.5895,4.6321,4.5832,4.3128,4.1542,0.0,0.0,0.0,0.0,0.0,0.0,0.0,0.0,0.0,0.0,0.0,0.0,0.0,0.0,0.0,0.0,0.0,0.0,0.0,0.0,0.0,0.0,0.0,0.0,0.0,0.0,0.0,0.0,0.0,0.0,0.0,0.0,0.0,0.0,0.0,0.0,0.0,0.0,0.0,0.0,0.0,0.0,0.0,0.0,0.0,0.0,0.0,0.0,4.094,0.0,0.0,0.0,0.0,0.0,0.0,0.0,0.0,0.0,0.0,0.0,0.0,0.0,0.0,0.0,0.0,0.0,0.0,0.0,0.0,0.0,0.0,0.0,0.0,0.0,0.0,0.0,0.0,0.0,0.0,0.0,0.0,0.0,0.0,0.0,0.0,0.0,0.0,0.0,0.0,0.0,0.0,0.0,0.0,0.0,0.0,0.0,0.0,0.0,0.0,0.0,0.0,0.0,0.0,0.0,0.0,0.0,0.0,0.0,4.5149,4.5809,4.6962,4.7304,4.6639,4.4791,4.3441,0.0,0.0,0.0,0.0,0.0,0.0,0.0,0.0,0.0,0.0,0.0,0.0,0.0,0.0,0.0,0.0,0.0,0.0,0.0,0.0,0.0,0.0,0.0,0.0,0.0,0.0,0.0,0.0,0.0,0.0,0.0,0.0,0.0,0.0,0.0,0.0,0.0,0.0,0.0,0.0,0.0,0.0,0.0,0.0,0.0,0.0,0.0,0.0,0.0,0.0,0.0,0.0,0.0,0.0,0.0,0.0,0.0,0.0,0.0,0.0,0.0,0.0,0.0,0.0,0.0,0.0,0.0,0.0,0.0,0.0,0.0,0.0,0.0,0.0,0.0,0.0,0.0,0.0,0.0,0.0,0.0,0.0,0.0,0.0,0.0,0.0,0.0,0.0,0.0,0.0,0.0,0.0,0.0,0.0,0.0,0.0,0.0,0.0,0.0,0.0,0.0,0.0,0.0,0.0,0.0,0.0,0.0,4.4681,4.6068,4.6818,4.7659,4.7724,4.7044,4.6719,4.5596,4.3646,0.0,0.0,0.0,0.0,0.0,0.0,0.0,0.0,0.0,0.0,0.0,0.0,0.0,0.0,0.0,0.0,0.0,0.0,0.0,0.0,0.0,0.0,0.0,0.0,0.0,0.0,0.0,0.0,0.0,0.0,0.0,0.0,0.0,0.0,0.0,0.0,0.0,0.0,3.9197,4.046,0.0,0.0,0.0,0.0,0.0,0.0,0.0,0.0,4.2879,0.0,0.0,0.0,0.0,0.0,0.0,0.0,0.0,0.0,0.0,0.0,0.0,0.0,0.0,0.0,0.0,0.0,0.0,0.0,0.0,0.0,0.0,0.0,0.0,0.0,0.0,0.0,0.0,0.0,0.0,0.0,0.0,0.0,0.0,0.0,0.0,0.0,0.0,0.0,0.0,0.0,0.0,0.0,0.0,0.0,0.0,0.0,0.0,0.0,0.0,0.0,0.0,0.0,0.0,0.0,0.0,4.4443,4.5863,4.7166,4.8296,4.903,4.8894,4.7946,4.8047,4.7066,4.4786,0.0,0.0,0.0,0.0,0.0,0.0,0.0,0.0,0.0,0.0,0.0,0.0,0.0,0.0,0.0,0.0,0.0,0.0,0.0,0.0,0.0,0.0,0.0,0.0,0.0,0.0,0.0,0.0,0.0,0.0,0.0,0.0,0.0,0.0,0.0,0.0,0.0,0.0,0.0,4.2473,4.3553,0.0,0.0,0.0,0.0,0.0,0.0,0.0,0.0,4.3377,0.0,0.0,0.0,0.0,0.0,0.0,0.0,0.0,0.0,0.0,0.0,0.0,0.0,0.0,0.0,0.0,0.0,0.0,0.0,0.0,0.0,0.0,0.0,0.0,0.0,0.0,0.0,0.0,0.0,0.0,0.0,0.0,0.0,0.0,0.0,0.0,0.0,0.0,0.0,0.0,0.0,0.0,0.0,0.0,0.0,0.0,0.0,0.0,0.0,0.0,0.0,0.0,0.0,0.0,0.0,4.4879,4.6505,4.7782,4.8663,4.9349,4.9203,4.8185,4.8358,4.7377,0.0,0.0,0.0,0.0,0.0,0.0,0.0,0.0,0.0,0.0,0.0,0.0,0.0,0.0,0.0,0.0,0.0,0.0,0.0,0.0,0.0,0.0,0.0,0.0,0.0,0.0,0.0,0.0,0.0,0.0,0.0,0.0,0.0,0.0,0.0,0.0,0.0,0.0,0.0,0.0,4.3647,4.4807,4.6005,0.0,0.0,0.0,0.0,0.0,0.0,4.6326,4.5649,0.0,0.0,0.0,0.0,0.0,0.0,0.0,0.0,0.0,0.0,0.0,0.0,0.0,0.0,0.0,0.0,0.0,0.0,0.0,0.0,0.0,0.0,0.0,0.0,0.0,0.0,0.0,0.0,0.0,0.0,0.0,0.0,0.0,0.0,0.0,0.0,0.0,0.0,0.0,0.0,0.0,0.0,0.0,0.0,0.0,0.0,0.0,0.0,0.0,0.0,0.0,0.0,0.0,0.0,0.0,4.5082,4.6882,4.8159,4.8885,4.9456,4.931,4.8407,4.8538,4.7555,0.0,0.0,0.0,0.0,0.0,0.0,0.0,0.0,0.0,0.0,0.0,0.0,0.0,0.0,0.0,0.0,0.0,0.0,0.0,0.0,0.0,0.0,0.0,0.0,0.0,0.0,0.0,0.0,0.0,0.0,0.0,0.0,0.0,0.0,0.0,0.0,0.0,0.0,0.0,0.0,0.0,4.6159,4.7743,4.7792,0.0,0.0,0.0,0.0,4.9166,4.8666,0.0,0.0,0.0,0.0,0.0,0.0,0.0,0.0,0.0,0.0,0.0,0.0,0.0,0.0,0.0,0.0,0.0,0.0,0.0,0.0,0.0,0.0,0.0,0.0,0.0,0.0,0.0,0.0,0.0,0.0,0.0,0.0,0.0,0.0,0.0,0.0,0.0,0.0,0.0,0.0,0.0,0.0,0.0,0.0,0.0,0.0,0.0,0.0,0.0,0.0,0.0,0.0,0.0,0.0,0.0,0.0,4.5721,4.7085,4.841,4.9543,4.9883,4.9831,4.9363,4.9005,4.7986,0.0,0.0,0.0,0.0,0.0,0.0,0.0,0.0,0.0,0.0,0.0,0.0,0.0,0.0,0.0,0.0,0.0,0.0,0.0,0.0,0.0,0.0,0.0,0.0,0.0,0.0,0.0,0.0,0.0,0.0,0.0,0.0,0.0,0.0,0.0,0.0,0.0,0.0,0.0,0.0,0.0,4.8315,4.9139,4.9752,5.0436,0.0,0.0,5.1484,5.1348,5.079,0.0,0.0,0.0,0.0,0.0,0.0,0.0,0.0,0.0,0.0,0.0,0.0,0.0,0.0,0.0,0.0,0.0,0.0,0.0,0.0,0.0,0.0,0.0,0.0,0.0,0.0,0.0,0.0,0.0,0.0,0.0,0.0,0.0,0.0,0.0,0.0,0.0,0.0,0.0,0.0,0.0,0.0,0.0,0.0,0.0,0.0,0.0,0.0,0.0,0.0,0.0,0.0,0.0,0.0,0.0,4.4327,4.5866,4.7143,4.8595,5.0211,5.0194,5.0084,4.9981,4.9288,4.809,0.0,0.0,0.0,0.0,0.0,0.0,0.0,0.0,0.0,0.0,0.0,0.0,0.0,0.0,0.0,0.0,0.0,0.0,0.0,0.0,0.0,0.0,0.0,0.0,0.0,0.0,0.0,0.0,0.0,0.0,0.0,0.0,0.0,0.0,0.0,0.0,0.0,0.0,0.0,0.0,0.0,0.0,5.1464,5.2093,0.0,0.0,0.0,5.4196,5.3991,0.0,0.0,0.0,0.0,0.0,0.0,0.0,0.0,0.0,0.0,0.0,0.0,0.0,0.0,0.0,0.0,0.0,0.0,0.0,0.0,0.0,0.0,0.0,0.0,0.0,0.0,0.0,0.0,0.0,0.0,0.0,0.0,0.0,0.0,0.0,0.0,0.0,0.0,0.0,0.0,0.0,0.0,0.0,0.0,0.0,0.0,0.0,0.0,0.0,0.0,0.0,0.0,0.0,0.0,0.0,0.0,0.0,4.633,4.7433,4.8933,5.0717,5.0584,5.0514,5.0725,4.9618,0.0,0.0,0.0,0.0,0.0,0.0,0.0,0.0,0.0,0.0,0.0,0.0,0.0,0.0,0.0,0.0,0.0,0.0,0.0,0.0,0.0,0.0,0.0,0.0,0.0,0.0,0.0,3.6716,0.0,0.0,0.0,0.0,0.0,0.0,0.0,0.0,0.0,0.0,0.0,0.0,0.0,0.0,5.1587,5.3706,5.4463,5.5287,0.0,0.0,5.6877,5.6511,5.6053,5.5161,0.0,0.0,0.0,0.0,0.0,0.0,0.0,0.0,0.0,0.0,0.0,0.0,0.0,0.0,0.0,0.0,0.0,0.0,0.0,0.0,0.0,0.0,0.0,0.0,0.0,0.0,0.0,0.0,0.0,0.0,0.0,0.0,0.0,0.0,0.0,0.0,0.0,0.0,0.0,0.0,0.0,0.0,0.0,0.0,0.0,0.0,0.0,0.0,0.0,0.0,0.0,0.0,0.0,0.0,4.5198,4.7625,4.8304,4.9388,5.0993,5.1239,5.1453,5.1665,5.0133,4.8925,0.0,0.0,0.0,0.0,0.0,0.0,0.0,0.0,0.0,0.0,0.0,0.0,0.0,0.0,0.0,0.0,0.0,0.0,0.0,0.0,0.0,0.0,0.0,0.0,0.0,0.0,0.0,0.0,0.0,0.0,0.0,0.0,0.0,0.0,0.0,0.0,0.0,0.0,0.0,0.0,0.0,5.4185,5.5493,5.6697,5.8028,0.0,0.0,5.9497,5.8712,5.8547,5.7623,5.5037,0.0,0.0,0.0,0.0,0.0,0.0,0.0,0.0,0.0,0.0,0.0,0.0,0.0,0.0,0.0,0.0,0.0,0.0,0.0,0.0,0.0,0.0,0.0,0.0,0.0,0.0,0.0,0.0,0.0,0.0,0.0,0.0,0.0,0.0,0.0,0.0,0.0,0.0,0.0,0.0,0.0,0.0,0.0,0.0,0.0,0.0,0.0,0.0,0.0,0.0,0.0,0.0,0.0,4.5227,4.7753,4.8391,4.9621,5.1549,5.1885,5.2132,5.2426,5.1148,4.9793,0.0,0.0,0.0,0.0,0.0,0.0,0.0,0.0,0.0,0.0,0.0,0.0,0.0,0.0,0.0,0.0,0.0,0.0,0.0,0.0,0.0,0.0,0.0,0.0,0.0,0.0,0.0,0.0,3.9828,4.101,4.2078,0.0,0.0,0.0,0.0,0.0,0.0,0.0,0.0,0.0,0.0,5.5722,5.7357,5.8662,0.0,0.0,6.1727,6.1783,6.0803,6.0978,6.0332,5.7654,5.7223,0.0,0.0,0.0,0.0,0.0,0.0,0.0,0.0,0.0,0.0,0.0,0.0,0.0,0.0,0.0,0.0,0.0,0.0,0.0,0.0,0.0,0.0,0.0,0.0,0.0,0.0,0.0,0.0,0.0,0.0,0.0,0.0,0.0,0.0,0.0,0.0,0.0,0.0,0.0,0.0,0.0,0.0,0.0,0.0,0.0,0.0,0.0,0.0,0.0,0.0,0.0,0.0,4.5721,4.8043,4.8981,5.0291,5.2109,5.2594,5.2872,5.2881,5.1792,5.0391,0.0,0.0,0.0,0.0,0.0,0.0,0.0,0.0,0.0,0.0,0.0,0.0,0.0,0.0,0.0,0.0,0.0,0.0,0.0,0.0,0.0,0.0,0.0,0.0,0.0,0.0,0.0,0.0,4.1588,4.3072,4.4628,0.0,0.0,0.0,0.0,0.0,0.0,0.0,0.0,0.0,0.0,5.7464,5.9533,6.0786,6.1896,6.3163,6.3873,6.4003,6.3171,6.3441,6.2948,6.0671,0.0,0.0,0.0,0.0,0.0,0.0,0.0,0.0,0.0,0.0,0.0,0.0,0.0,0.0,0.0,0.0,0.0,0.0,0.0,0.0,0.0,0.0,0.0,0.0,0.0,0.0,0.0,4.4941,0.0,0.0,4.4588,0.0,0.0,0.0,0.0,0.0,0.0,0.0,0.0,0.0,0.0,0.0,0.0,0.0,0.0,0.0,0.0,0.0,0.0,0.0,0.0,0.0,0.0,4.6766,4.8682,5.0223,5.1463,5.2358,5.3257,5.3585,5.3174,5.1917,5.0601,4.9299,0.0,0.0,0.0,0.0,0.0,0.0,0.0,0.0,0.0,0.0,0.0,0.0,0.0,0.0,0.0,0.0,0.0,0.0,0.0,0.0,0.0,0.0,0.0,0.0,0.0,0.0,4.2321,4.3904,4.5525,0.0,0.0,0.0,0.0,0.0,0.0,0.0,0.0,0.0,0.0,5.7416,5.9538,6.201,6.2996,6.4156,6.5948,6.6308,6.6239,6.5847,6.5842,6.538,0.0,0.0,0.0,0.0,0.0,0.0,0.0,0.0,0.0,0.0,0.0,0.0,0.0,0.0,0.0,0.0,0.0,0.0,0.0,0.0,0.0,0.0,0.0,0.0,0.0,0.0,0.0,4.8356,4.7666,0.0,0.0,0.0,0.0,0.0,0.0,0.0,0.0,0.0,0.0,0.0,4.7099,4.7252,0.0,0.0,0.0,0.0,0.0,0.0,0.0,0.0,0.0,0.0,0.0,0.0,4.7759,4.8978,5.0788,5.2032,5.2665,5.3832,5.4062,5.3204,5.2755,5.1289,4.8686,0.0,0.0,0.0,0.0,0.0,0.0,0.0,0.0,0.0,0.0,0.0,0.0,0.0,0.0,0.0,0.0,0.0,0.0,0.0,0.0,0.0,0.0,0.0,0.0,0.0,4.3379,0.0,0.0,0.0,0.0,0.0,0.0,0.0,0.0,0.0,0.0,0.0,5.6314,5.7773,6.0036,6.2022,6.3308,6.5022,6.6409,0.0,0.0,0.0,0.0,0.0,0.0,0.0,0.0,0.0,0.0,0.0,0.0,0.0,0.0,5.9809,5.7875,5.7466,5.7394,5.7289,0.0,0.0,0.0,0.0,0.0,0.0,0.0,0.0,0.0,0.0,0.0,0.0,0.0,0.0,5.0903,0.0,4.991,0.0,0.0,0.0,0.0,0.0,0.0,0.0,0.0,4.9046,4.9369,4.9369,4.951,4.9604,0.0,4.9368,4.811,0.0,0.0,0.0,0.0,0.0,0.0,0.0,0.0,4.8705,4.9615,5.1591,5.2673,5.2872,5.419,5.452,5.3563,5.2845,5.1289,4.8716,4.7758,4.6411,0.0,0.0,0.0,0.0,0.0,0.0,0.0,0.0,0.0,0.0,0.0,0.0,0.0,0.0,0.0,0.0,0.0,0.0,0.0,0.0,0.0,0.0,0.0,4.5541,0.0,0.0,0.0,0.0,0.0,0.0,0.0,0.0,0.0,5.5165,5.6818,5.8641,6.0191,6.2105,6.3867,6.5349,0.0,0.0,0.0,0.0,0.0,0.0,0.0,6.9289,6.8427,6.775,6.7073,6.6396,6.6273,6.6119,6.5657,0.0,0.0,6.1379,6.0774,6.0599,6.0237,6.036,6.0299,5.9487,6.0028,6.0735,0.0,0.0,0.0,0.0,0.0,0.0,0.0,0.0,5.4298,5.3391,0.0,5.2322,0.0,0.0,0.0,0.0,5.0959,5.0692,0.0,0.0,5.1257,5.1581,5.1611,5.1581,5.1552,5.1522,5.0921,5.0224,4.9575,4.8781,0.0,0.0,0.0,0.0,0.0,0.0,4.9721,5.0578,5.2714,5.3496,5.2902,5.4371,5.485,5.4132,5.2276,5.0661,4.9389,4.8117,4.707,4.6309,4.4485,0.0,0.0,0.0,0.0,0.0,0.0,0.0,0.0,0.0,0.0,0.0,0.0,0.0,0.0,0.0,0.0,0.0,0.0,0.0,0.0,4.6876,0.0,0.0,0.0,0.0,0.0,0.0,0.0,0.0,0.0,0.0,5.7466,5.8915,6.0829,6.2798,0.0,0.0,0.0,0.0,6.9238,7.0707,7.1013,7.1044,7.1075,7.1013,7.0982,7.0952,0.0,0.0,6.9043,6.892,6.8889,6.892,6.8366,6.6981,6.3749,6.3564,6.3495,6.2588,6.3058,6.3287,6.2468,6.3046,6.397,6.806,0.0,0.0,0.0,0.0,6.0174,5.9073,5.8259,5.7011,5.6248,5.5828,5.5544,0.0,0.0,0.0,0.0,0.0,0.0,5.2388,5.2833,5.304,5.3366,5.3832,5.3565,5.3456,5.3377,5.274,5.2323,5.2144,5.1676,5.0271,4.7979,0.0,0.0,0.0,0.0,5.1965,5.1665,5.3496,5.428,5.3804,5.471,5.464,5.3503,5.2486,5.1319,5.0002,4.9583,4.8611,4.71,4.6471,0.0,0.0,0.0,0.0,0.0,0.0,0.0,0.0,0.0,0.0,0.0,0.0,0.0,0.0,0.0,0.0,0.0,0.0,0.0,4.7967,4.9118,5.0351,0.0,0.0,0.0,0.0,0.0,0.0,0.0,0.0,0.0,6.1721,6.2311,6.3132,0.0,0.0,6.7795,6.8679,7.0462,7.1906,7.2337,7.3199,0.0,7.3814,7.3414,7.2952,7.246,7.1413,7.0551,7.0367,7.0336,7.0336,7.0336,7.0151,6.969,6.8766,6.7135,6.5842,6.506,6.5351,6.5575,6.4902,6.5765,6.6898,7.3186,6.9355,6.768,6.6242,6.4951,6.347,6.2386,6.1613,6.0317,5.9701,5.9505,5.8882,5.8091,5.7266,5.6351,0.0,0.0,0.0,5.4919,5.5308,5.5278,5.5436,5.5662,5.5487,5.5359,5.5329,5.494,5.4461,5.3982,5.3834,5.2613,5.0525,0.0,0.0,5.0514,5.226,5.304,5.2919,5.4449,5.5236,5.4999,5.5388,5.494,5.3653,5.3204,5.2247,5.0644,5.0584,4.9853,4.8147,4.7578,4.692,0.0,0.0,0.0,0.0,0.0,0.0,0.0,0.0,0.0,0.0,0.0,4.312,4.4366,0.0,0.0,0.0,4.7339,4.8566,5.0272,5.1345,0.0,0.0,0.0,0.0,0.0,0.0,0.0,6.027,6.1594,6.2979,6.4457,6.5565,6.6304,6.6457,6.8089,6.9566,7.0398,0.0,7.3476,7.3753,7.4461,7.5015,7.5015,7.4645,7.4245,7.3876,7.3106,7.2552,7.2521,7.2521,7.2521,7.2491,7.2091,7.1721,7.1721,6.9967,6.8274,6.7627,6.7817,6.7965,6.7392,6.8383,6.9491,7.7236,7.5691,7.2549,6.999,6.7856,6.6843,6.5988,6.5205,6.3956,6.3355,6.3241,6.201,6.104,6.0226,5.8818,0.0,5.8134,5.7898,5.7743,5.7773,5.7773,5.7587,5.7244,5.7184,5.7184,5.7154,5.7124,5.6496,5.5388,5.5329,5.47,5.3503,5.2466,5.2043,5.2148,5.2792,5.3545,5.4431,5.5628,5.6256,5.6226,5.6248,5.5568,5.4341,5.4251,5.3294,5.1409,5.1242,5.069,4.9404,4.8177,4.7519,4.7429,0.0,0.0,0.0,0.0,0.0,0.0,0.0,0.0,0.0,0.0,0.0,0.0,0.0,0.0,0.0,4.9673,0.0,5.2306,5.3537,0.0,0.0,0.0,5.835,5.8947,6.0209,6.1532,6.2825,0.0,0.0,6.6119,6.8366,6.972,6.9259,6.9782,7.0921,7.2798,7.366,7.4399,7.4953,7.5138,7.5169,7.5292,7.5169,7.5076,7.5046,7.5046,7.4861,7.483,7.4861,7.4953,7.483,7.3937,7.3137,7.3137,7.206,7.1044,7.0459,7.0328,7.0314,7.0104,7.0856,7.1818,7.9438,7.8053,7.6965,7.4759,7.1745,7.0521,6.9604,6.8786,6.667,6.5649,6.5345,6.3787,6.2383,6.1046,6.0193,5.9679,5.9553,5.95,5.9312,5.913,5.913,5.8941,5.859,5.8112,5.7872,5.7842,5.7334,5.6944,5.6645,5.6645,5.6466,5.6166,5.5914,5.5326,5.4501,5.5069,5.5696,5.6406,5.6735,5.6885,5.6855,5.6406,5.5829,5.4999,5.4461,5.3503,5.2037,5.1977,5.1349,5.0092,4.9657,4.9314,4.888,4.8027,0.0,0.0,0.0,0.0,0.0,0.0,0.0,0.0,0.0,4.6381,4.7728,0.0,4.8895,0.0,5.1409,5.3025,5.4371,5.556,0.0,0.0,5.9257,6.0332,6.1009,6.2271,6.3441,6.4303,6.5165,6.6519,6.8674,6.9505,7.0428,7.1783,7.2583,7.3199,7.3722,7.4769,7.5569,7.5784,7.6184,7.6523,7.6461,7.6092,7.5754,7.5754,7.5353,7.5015,7.5015,7.5015,7.5015,7.5015,7.4769,7.4522,7.4491,7.4214,7.3968,7.3691,7.2397,7.1368,7.2005,7.2958,7.406,8.0915,7.9591,7.9235,7.7607,7.5136,7.3338,7.2157,7.1426,6.9666,6.8815,6.8524,6.6135,6.4111,6.2457,6.1622,6.1294,6.121,6.1104,6.089,6.0651,6.0953,6.0705,5.9997,5.9937,5.9578,5.8979,5.862,5.8112,5.7573,5.7543,5.7393,5.7094,5.7094,5.6885,5.6526,5.6555,5.6765,5.7094,5.7693,5.7842,5.7543,5.6915,5.6256,5.5658,5.4999,5.4162,5.3144,5.3084,5.2486,5.1169,5.0794,5.0345,4.9733,4.9075,4.8716,0.0,0.0,0.0,0.0,0.0,0.0,0.0,0.0,0.0,0.0,0.0,5.1109,5.2336,5.3713,5.5059,5.6376,5.7613,5.8763,5.9796,6.1247,6.2425,6.3102,6.4118,6.5134,6.6119,6.6827,6.8027,7.0059,7.089,7.1906,7.366,7.4461,7.4799,7.4615,7.56,7.6461,7.6492,7.6769,7.7016,7.7016,7.6708,7.6461,7.6431,7.6154,7.5907,7.5907,7.5907,7.5907,7.5877,7.5661,7.5446,7.5446,7.5169,7.5079,7.499,7.419,7.3601,7.4125,7.4836,7.5791,8.19,8.0553,8.0248,7.9298,7.7924,7.5714,7.4325,7.3531,7.2515,7.1869,7.1345,6.8419,6.6027,6.4125,6.3323,6.304,6.3102,6.2802,6.25,6.2172,6.2779,6.2414,6.1283,6.1822,6.1493,6.0356,6.0266,5.9578,5.8381,5.8381,5.8022,5.7363,5.7363,5.7663,5.8201,5.7633,5.7363,5.7363,5.8501,5.883,5.8261,5.7573,5.6915,5.6316,5.5658,5.497,5.4251,5.4221,5.3623,5.2396,5.1768,5.1199,5.0584,5.0062,4.9808,0.0,4.9808,0.0,0.0,0.0,0.0,0.0,0.0,0.0,0.0,5.2276,5.3503,5.5388,5.6166,5.7064,5.8261,5.9523,6.0593,6.1345,6.2938,6.4309,6.5072,6.5811,6.6735,6.7904,6.8705,6.9659,7.1013,7.2244,7.3476,7.4707,7.56,7.5877,7.5507,7.6369,7.7139,7.7139,7.7139,7.7231,7.72,7.7108,7.6985,7.7016,7.6954,7.7016,7.6954,7.6954,7.6985,7.6923,7.6492,7.6154,7.6123,7.5661,7.5451,7.577,7.5773,7.5806,7.6026,7.64,7.7018,8.2266,8.0985,8.0643,8.0011,7.9183,7.7892,7.6751,7.566,7.4161,7.2238,7.0177,6.9246,6.7853,6.6365,6.6155,6.5478,6.4518,6.4432,6.3825,6.2809,6.3477,6.3109,6.1942,6.2032,6.1972,6.1702,6.1164,6.0505,5.9727,5.9697,5.9368,5.874,5.871,5.88,5.8919,0.0,0.0,0.0,5.8979,5.9039,5.8919,5.8261,5.7603,5.6944,5.6316,0.0,5.4281,5.4221,5.3832,5.3054,5.2875,0.0,0.0,0.0,0.0,0.0,0.0,0.0,0.0,0.0,0.0,0.0,5.4581,5.464,5.3773,5.473,5.6017,5.7423,5.8171,5.886,5.9638,6.1137,6.241,6.3355,6.4453,6.5499,6.6432,6.7566,6.8458,6.8674,6.9751,7.1044,7.2306,7.286,7.3506,7.4892,7.6061,7.6739,7.6677,7.7323,7.7816,7.7816,7.7847,7.7847,7.7816,7.7385,7.7077,7.7016,7.7016,7.7016,7.7016,7.7016,7.7016,7.7016,7.6923,7.68,7.68,7.6739,7.6684,7.707,7.7392,7.7492,7.7309,7.7495,7.8086,8.2844,8.1824,8.1157,8.0491,0.0,7.891,7.7963,7.6888,7.5529,7.3564,7.1315,7.0621,6.9615,6.8366,6.772,6.6858,6.5873,6.5565,6.4677,6.3538,6.4145,6.3924,6.3049,6.3049,6.2869,6.257,6.1912,6.1253,6.0595,6.0266,5.9907,5.9578,5.9279,5.9099,5.9099,5.9099,5.9099,5.9099,5.9099,5.9099,5.9069,5.8471,5.7962,5.7573,5.6675,0.0,0.0,0.0,0.0,0.0,0.0,0.0,0.0,5.3174,0.0,5.3653,5.3683,5.3982,5.461,5.497,5.5299,5.5628,5.6855,5.7214,5.6226,5.7064,5.8022,5.9009,5.9997,6.0835,6.1523,6.2765,6.3837,6.4674,6.5715,6.6732,6.7611,6.8649,6.9505,6.9905,7.0767,7.1844,7.286,7.2983,7.3845,7.563,7.6277,7.6923,7.7847,7.8339,7.8555,7.8555,7.8555,7.8555,7.8493,7.797,7.7508,7.7477,7.7231,7.7046,7.7016,7.7016,7.7016,7.7016,7.7016,7.7016,7.7181,7.7277,7.7377,7.7925,7.8182,7.8438,7.847,7.8656,7.8998,8.3156,8.2458,8.1406,8.0583,7.9857,7.9195,7.8313,7.7309,0.0,0.0,0.0,7.2113,7.1069,7.0028,6.892,6.7904,6.6888,6.6334,6.5376,6.4136,6.463,6.4646,6.4065,6.4126,6.3857,6.3228,6.269,6.2032,6.1283,6.0715,6.0296,6.0057,5.9548,5.9219,5.9129,5.9099,5.9099,5.9099,5.9099,5.9099,5.9099,5.859,5.8178,5.8141,5.7094,5.6466,5.6346,5.5807,5.5269,5.476,5.473,5.4461,5.3922,5.3862,5.4102,5.467,5.473,5.5239,5.6436,5.6645,5.7004,5.7752,5.883,5.9189,5.853,5.9069,5.9787,6.0535,6.1613,6.257,6.3348,6.424,6.5017,6.5648,6.6816,6.7871,6.8539,6.9543,7.043,7.1044,7.169,7.2368,7.2891,7.3106,7.403,7.6154,7.6615,7.7108,7.8893,7.9355,7.9324,7.9478,7.9417,7.9263,7.917,7.8678,7.8216,7.797,7.7539,7.7169,7.7046,7.7016,7.7016,7.7016,7.7016,7.7212,7.7442,7.7603,7.7861,7.8501,7.8628,7.888,7.9412,7.9661,7.9814,8.2434,8.1742,8.0657,7.9869,7.9182,7.8559,7.7807,7.6931,7.5403,7.4532,7.4253,7.3262,7.2029,7.0736,7.0551,6.9197,6.695,6.6796,6.5919,6.4387,6.4744,6.4704,6.4475,6.4753,6.4545,6.3887,6.3767,6.3109,6.2061,6.1852,6.1253,6.0206,5.9997,5.9668,5.9159,5.9099,5.9099,5.9099,5.9099,5.9099,5.9099,5.9009,5.868,5.8141,5.7932,5.7573,5.6974,5.6855,5.6795,5.6705,5.6675,5.6645,5.6555,5.6496,5.6585,5.6675,5.6675,5.7034,5.7812,5.8381,5.9219,6.0416,6.0745,6.0535,5.9907,6.0446,6.1343,6.251,6.2869,6.3438,6.4605,6.5323,6.5952,6.6372,6.7578,6.8577,6.9243,7.0373,7.1292,7.1813,7.2398,7.2829,7.2983,7.3445,7.4368,7.5907,7.7231,7.8493,8.0032,8.0309,8.0248,8.0555,8.0309,8.0001,7.9878,7.9386,7.8801,7.8124,7.797,7.7565,7.72,7.7046,7.7046,7.7016,7.7181,7.7442,7.7507,7.7797,7.8118,7.8564,7.888,7.9194,7.9599,7.9998,8.0364,8.2254,8.1847,8.0616,7.9926,7.9583,7.8328,7.761,7.7173,7.5892,7.4993,7.4438,7.3786,7.2983,7.2029,7.166,7.0613,6.9043,6.7966,6.6748,6.5482,6.4714,6.4429,6.4415,6.4093,6.3977,6.3977,6.3647,6.3199,6.263,6.2271,6.1792,6.1164,6.0446,5.9757,5.9129,5.9099,5.9099,5.9099,5.9099,5.9099,5.9099,5.9099,5.8949,5.868,5.8321,5.7992,5.7663,5.7274,5.7094,5.7094,5.7094,5.7094,5.7094,5.7094,5.7423,5.8112,5.8201,5.865,5.9668,6.0027,6.0775,6.2032,6.2181,6.2361,6.275,6.2391,6.272,6.4006,6.4455,6.4904,6.5533,6.649,6.712,6.7334,6.8328,6.9331,7.0189,7.0923,7.1659,7.2398,7.2798,7.2983,7.2983,7.3568,7.4676,7.6338,7.8278,8.0032,8.0925,8.0832,8.0709,8.0986,8.0832,8.0648,8.0586,8.0094,7.957,7.9201,7.8524,7.7934,7.757,7.7323,7.7143,7.7277,7.7377,7.7636,7.799,7.8246,7.8564,7.9037,7.9225,7.9537,7.9998,8.0606,8.1025,8.2104,8.1912,8.0506,7.9693,7.932,7.7972,7.7408,7.7281,7.6592,7.5697,7.4839,7.4279,7.363,7.2952,7.2429,7.1721,7.0767,6.9289,6.7942,6.6698,6.5193,6.4573,6.4558,6.376,6.3526,6.3737,6.3438,6.3228,6.3019,6.257,6.2241,6.1972,6.0894,5.9967,5.9338,5.9338,5.9249,5.9129,5.9099,5.9099,5.9099,5.9099,5.9099,5.9069,5.862,5.8351,5.8321,5.7842,5.7543,5.7543,5.7693,5.7752,5.7752,5.7932,5.8471,5.9428,5.9548,6.0146,6.1403,6.1702,6.2271,6.3408,6.3528,6.4006,6.4994,6.4336,6.4126,6.5114,6.5652,6.6071,6.649,6.7328,6.8016,6.8258,6.9045,6.9868,7.0728,7.1254,7.1841,7.2704,7.2983,7.3014,7.3291,7.3783,7.5107,7.7323,7.9601,8.0956,8.1048,8.1048,8.1048,8.1048,8.1048,8.1017,8.1048,8.0679,8.0278,8.0155,7.9263,7.8524,7.8124,7.7539,7.7366,7.7535,7.7667,7.7959,7.8501,7.8754,7.9037,7.9412,7.9661,7.9998,8.0485,8.1025,8.1467,8.1666,8.1411,7.9903,7.8437,7.7358,7.7143,7.7081,7.7081,7.6954,7.6523,7.5726,7.4553,7.366,7.3045,7.2922,7.2152,7.1013,7.0705,6.9538,6.7788,6.6698,6.5769,6.4998,6.4588,6.3968,6.3346,6.3617,6.3528,6.3137,6.2989,6.269,6.2091,6.1373,6.0685,6.0086,5.9997,5.9697,5.9129,5.9099,5.9099,5.9099,5.9099,5.9099,5.9099,5.9039,5.9009,5.9009,5.8949,5.8919,5.8979,5.9458,5.9787,5.9817,6.0356,6.0775,6.0894,6.0924,6.1523,6.275,6.3408,6.4006,6.4755,6.4814,6.5114,6.5832,6.5802,6.5742,6.5981,6.6011,6.658,6.7597,6.7956,6.8315,6.8854,6.9546,7.0123,7.0625,7.1395,7.2106,7.2515,7.2889,7.3199,7.3783,7.4553,7.6031,7.837,8.0032,8.1048,8.1048,8.1048,8.1048,8.1048,8.1048,8.1048,8.1048,8.1048,8.0709,8.0278,8.0001,7.9355,7.8622,7.8328,7.8312,7.8012,7.8054,7.8437,7.8691,7.9037,7.9475,7.9722,8.0091,8.0545,8.0906,8.1263,8.1617,8.1323,8.1131,7.97,7.8278,7.7108,7.7016,7.7016,7.7016,7.7016,7.6646,7.6,7.5415,7.4615,7.3568,7.3168,7.2645,7.2091,7.129,7.049,6.9538,6.8288,6.6955,6.5632,6.5251,6.4417,6.3196,6.3318,6.3348,6.3166,6.3137,6.272,6.2151,6.1822,6.1373,6.0745,6.0685,6.0535,6.0296,6.0296,6.0296,6.0206,5.9518,5.9099,5.9129,5.9488,5.9668,5.9727,6.0086,6.0296,6.0296,6.0565,6.0685,6.0685,6.0954,6.1283,6.1672,6.2421,6.3049,6.3588,6.4216,6.4904,6.5562,6.5592,6.5892,6.652,6.658,6.6729,6.7119,6.7178,6.7448,6.7986,6.8737,6.9273,6.9602,7.0141,7.0629,7.098,7.1604,7.2104,7.2483,7.3134,7.366,7.4214,7.5661,7.7323,7.8955,8.0248,8.1017,8.1048,8.1048,8.1048,8.1048,8.1048,8.1048,8.1048,8.1048,8.0925,8.0747,8.0514,8.0032,7.9692,7.9029,7.886,7.8678,7.8751,7.8912,7.9163,7.935,7.9661,8.003,8.0424,8.0906,8.123,8.1558,8.1909,8.1048,8.0863,7.9632,7.8247,7.7046,7.7016,7.7016,7.7016,7.7016,7.6739,7.6277,7.6092,7.5384,7.4276,7.3568,7.3168,7.286,7.1937,7.1352,7.1075,6.9758,6.8386,6.7023,6.6185,6.5166,6.3882,6.3496,6.3258,6.3166,6.3137,6.2839,6.2421,6.2361,6.2061,6.1463,6.1373,6.1283,6.1104,6.1104,6.1104,6.0984,6.0146,5.9668,5.9697,6.0116,6.0386,6.0386,6.0864,6.1104,6.1104,6.1283,6.1373,6.1403,6.1702,6.2211,6.2869,6.3767,6.4366,6.4545,6.5024,6.5592,6.6161,6.6281,6.655,6.7089,6.7268,6.7567,6.8136,6.8405,6.8525,6.8707,6.9423,6.9991,7.0231,7.0649,7.1048,7.1212,7.1564,7.2068,7.2568,7.3282,7.412,7.4799,7.6677,7.8524,7.9109,8.0217,8.1048,8.1048,8.1048,8.1048,8.1117,8.1117,8.1186,8.1117,8.1048,8.1148,8.1193,8.0997,8.0854,8.0772,8.0078,7.9531,7.9568,7.9288,7.9227,7.9568,7.9784,7.9969,8.0485,8.0846,8.1085,8.1349,8.1734,8.2083,8.1048,8.0863,7.9632,7.8278,7.7016,7.7016,7.7016,7.7016,7.7016,7.6985,7.6831,7.6308,7.563,7.4922,7.4307,7.3599,7.3014,7.2829,7.246,7.1875,7.1167,7.0279,6.9273,6.7723,6.6397,6.5377,6.4482,6.3737,6.3226,6.3137,6.3049,6.3077,6.2989,6.269,6.2151,6.2061,6.1732,6.1313,6.1253,6.1194,6.1164,6.1104,6.1044,6.1044,6.1044,6.1074,6.1074,6.1104,6.1164,6.1134,6.1732,6.2061,6.2181,6.3169,6.4096,6.4725,6.4904,6.5263,6.5742,6.5892,6.6221,6.6789,6.6909,6.7208,6.7747,6.7897,6.8226,6.8884,6.9423,6.9752,6.9812,6.9961,7.026,7.0739,7.0859,7.0919,7.0949,7.1397,7.1896,7.2797,7.3519,7.439,7.572,7.7724,7.8801,7.9324,8.0248,8.1048,8.1117,8.1117,8.1117,8.1186,8.1293,8.143,8.1186,8.1255,8.1323,8.1498,8.1579,8.1491,8.1356,8.1189,8.0861,8.0553,8.0333,8.0235,8.016,8.0274,8.0545,8.0846,8.0966,8.1204,8.1525,8.1792,8.2141,8.0555,7.9786,7.9293,7.8308,7.7077,7.7016,7.7016,7.7016,7.7016,7.7016,7.6985,7.6739,7.6277,7.563,7.5384,7.443,7.3076,7.2983,7.286,7.2583,7.2368,7.1476,7.019,6.9458,6.8454,6.7153,6.607,6.4961,6.3707,6.3258,6.3137,6.3137,6.3137,6.2929,6.275,6.272,6.26,6.2391,6.2361,6.2361,6.2331,6.2361,6.2361,6.2361,6.1942,6.1732,6.1762,6.2151,6.2361,6.2361,6.26,6.2899,6.3348,6.4156,6.4755,6.4964,6.5413,6.5742,6.6011,6.64,6.6729,6.6969,6.7388,6.7717,6.7986,6.8375,6.8914,6.9512,6.9812,7.0111,7.05,7.056,7.0649,7.0829,7.0919,7.1098,7.1493,7.1874,7.247,7.3495,7.4405,7.5532,7.6581,7.8093,7.9047,7.9232,8.0248,8.0925,8.1117,8.1255,8.1361,8.1368,8.1325,8.1403,8.1833,8.1833,8.1901,8.2037,8.211,8.2182,8.2199,8.219,8.1917,8.1761,8.1506,8.1117,8.0977,8.0767,8.1003,8.0966,8.1144,8.144,8.1734,8.2025,8.2428,8.0309,7.9201,7.9078,7.8278,7.7077,7.7016,7.7016,7.7016,7.7016,7.7016,7.7016,7.7016,7.6646,7.6092,7.6,7.5199,7.3691,7.3414,7.3199,7.2983,7.2921,7.2305,7.1384,7.0893,7.0007,6.8728,6.7457,6.6072,6.4872,6.4065,6.3588,6.3408,6.3199,6.3137,6.3137,6.3137,6.3137,6.3137,6.3137,6.3137,6.3137,6.3137,6.3137,6.3049,6.2839,6.26,6.245,6.2839,6.3169,6.3348,6.3378,6.3767,6.4575,6.5084,6.5443,6.5682,6.6071,6.634,6.64,6.6939,6.7298,6.7328,6.7926,6.8375,6.8585,6.9064,6.9602,7.0081,7.029,7.05,7.0769,7.0889,7.0919,7.0949,7.1098,7.1368,7.1816,7.2283,7.3063,7.4223,7.5452,7.6519,7.7293,7.837,7.9078,7.9386,8.0402,8.1086,8.1255,8.1207,8.1325,8.1429,8.1138,8.1405,8.1851,8.214,8.2254,8.2383,8.2709,8.2842,8.3013,8.3094,8.3099,8.2908,8.2555,8.2036,8.1669,8.1451,8.1279,8.1209,8.144,8.1792,8.2025,8.2223,8.2623,8.0309,7.917,7.9047,7.8278,7.7108,7.7016,7.7016,7.7016,7.7016,7.7016,7.7016,7.7016,7.6677,7.6184,7.6123,7.563,7.4922,7.4368,7.3722,7.3137,7.2826,7.2764,7.2706,7.1565,7.0739,7.0068,6.8425,6.7216,6.6342,6.5442,6.4665,6.4036,6.3528,6.3348,6.3226,6.3288,6.3199,6.3258,6.3288,6.3228,6.3166,6.3258,6.3288,6.3288,6.3677,6.3677,6.3169,6.3169,6.3498,6.3947,6.4006,6.4635,6.5652,6.5951,6.6281,6.6729,6.6939,6.6999,6.7059,6.7597,6.7986,6.8076,6.8615,6.9213,6.9632,6.9901,7.0201,7.0649,7.0829,7.0919,7.0949,7.1009,7.1009,7.0979,7.1457,7.1816,7.2116,7.2565,7.343,7.4825,7.6095,7.7165,7.7939,7.8616,7.9263,7.9977,8.0655,8.1286,8.1467,8.1268,8.0901,8.1013,8.0974,8.1115,8.1818,8.2424,8.2574,8.2758,8.3079,8.3372,8.3634,8.3737,8.3803,8.3706,8.3479,8.3019,8.2487,8.2205,8.1934,8.189,8.2021,8.2123,8.2223,8.2452,8.2794,8.0309,7.917,7.9078,7.8278,7.7108,7.7016,7.7016,7.7016,7.7016,7.7016,7.7016,7.7016,7.6892,7.6739,7.6708,7.6338,7.5723,7.5446,7.4769,7.3845,7.3565,7.332,7.289,7.2121,7.0985,6.9854,6.9184,6.8304,6.7216,6.6432,6.5802,6.5353,6.4725,6.4425,6.4366,6.4425,6.4425,6.4425,6.4425,6.4425,6.4425,6.4395,6.4395,6.4455,6.4605,6.4605,6.4425,6.4425,6.4515,6.4695,6.4725,6.5114,6.5892,6.643,6.6789,6.6999,6.7418,6.7719,6.7747,6.8286,6.8675,6.8794,6.9303,6.9722,6.9991,7.038,7.0679,7.0889,7.0919,7.1038,7.1457,7.1577,7.1643,7.1577,7.1757,7.2325,7.317,7.3994,7.4841,7.5492,7.6202,7.6962,7.7903,7.8678,7.9521,8.0372,8.1058,8.1597,8.1844,8.1553,8.1475,8.1679,8.1248,8.0935,8.1698,8.2366,8.2716,8.3129,8.3575,8.3798,8.4154,8.4379,8.4474,8.4439,8.4273,8.391,8.3342,8.303,8.2785,8.2734,8.2903,8.284,8.2527,8.2813,8.3441,7.9866,7.8702,7.8641,7.7943,7.6849,7.6818,7.6884,7.695,7.7016,7.695,7.6818,7.695,7.695,7.6884,7.695,7.68,7.64,7.6369,7.5784,7.4799,7.4303,7.3873,7.3291,7.2398,7.1537,7.0464,6.9975,6.9275,6.8183,6.7426,6.6793,6.6192,6.5532,6.5053,6.5024,6.5024,6.5024,6.5024,6.5024,6.5024,6.5024,6.5024,6.5024,6.5054,6.5263,6.5383,6.5413,6.5622,6.5652,6.5503,6.5592,6.5951,6.64,6.6969,6.7358,6.7478,6.7956,6.8375,6.8405,6.8974,6.9363,6.9482,6.9961,7.032,7.044,7.0889,7.1313,7.1473,7.1743,7.2049,7.257,7.2726,7.2751,7.3022,7.2883,7.32,7.4158,7.494,7.5489,7.5887,7.6501,7.7361,7.8375,7.9187,8.0032,8.102,8.1522,8.1751,8.1901,8.1704,8.1686,8.1473,8.0871,8.0963,8.1721,8.2295,8.2774,8.3385,8.4059,8.4251,8.4476,8.4795,8.4951,8.4946,8.4809,8.4605,8.4128,8.401,8.3795,8.3841,8.3911,8.3978,8.3952,8.4024,8.4431,7.9141,7.8018,7.7927,7.7403,7.664,7.6518,7.6686,7.695,7.7016,7.6818,7.6686,7.6818,7.6752,7.662,7.6752,7.6853,7.6919,7.6923,7.6615,7.5904,7.5157,7.4513,7.3814,7.2798,7.2214,7.1814,7.0985,7.019,6.9488,6.8576,6.7577,6.6793,6.6161,6.5471,6.5443,6.5173,6.5293,6.5323,6.5263,6.5263,6.5263,6.5233,6.5233,6.5263,6.5772,6.6071,6.6131,6.661,6.667,6.6221,6.664,6.6969,6.7148,6.7657,6.8016,6.8076,6.8675,6.8974,6.9183,6.9662,7.0085,7.0145,7.0654,7.1044,7.1198,7.1743,7.2264,7.2586,7.3008,7.3502,7.3885,7.3945,7.4218,7.4795,7.4359,7.4384,7.4856,7.5278,7.5647,7.6203,7.6995,7.801,7.929,8.0105,8.0896,8.1725,8.2047,8.1936,8.1865,8.1593,8.1093,8.0807,8.0671,8.079,8.1482,8.2445,8.2987,8.3593,8.4368,8.4887,8.4985,8.5237,8.5455,8.5447,8.547,8.5229,8.5117,8.5062,8.4939,8.491,8.5078,8.531,8.5283,8.5187,8.528,7.9414,7.8595,7.8109,7.7479,7.6824,7.6568,7.6523,7.6686,7.6884,7.6818,7.6554,7.6589,7.6391,7.6124,7.6457,7.662,7.6686,7.6884,7.6985,7.6769,7.6519,7.5348,7.4276,7.366,7.3168,7.2675,7.1906,7.1353,7.0801,6.9732,6.8819,6.8243,6.7517,6.6974,6.6824,6.6582,6.646,6.649,6.649,6.649,6.646,6.646,6.649,6.649,6.667,6.6759,6.6789,6.7358,6.7418,6.6849,6.7358,6.7717,6.7839,6.8408,6.8797,6.8887,6.9396,6.9752,6.9935,7.0385,7.0749,7.1032,7.1668,7.2189,7.2478,7.3023,7.3421,7.3642,7.3824,7.4127,7.4588,7.4805,7.514,7.5589,7.5638,7.5533,7.5624,7.5752,7.6105,7.6928,7.7307,7.8317,7.9583,8.0445,8.1087,8.1922,8.2164,8.2022,8.2102,8.1664,8.1221,8.1179,8.1067,8.0928,8.1242,8.2365,8.3195,8.3731,8.4572,8.5515,8.5613,8.5799,8.5984,8.6071,8.6066,8.5921,8.6141,8.6289,8.6158,8.6015,8.6098,8.6296,8.6049,8.594,8.6086,7.9042,7.8378,7.7714,7.712,7.6691,7.6227,7.6221,7.6488,7.6686,7.662,7.6355,7.6488,7.6221,7.5789,7.6258,7.6488,7.6554,7.6818,7.695,7.7016,7.6985,7.6184,7.5015,7.4368,7.3783,7.3383,7.2737,7.2337,7.1997,7.1292,7.0618,7.0037,6.9458,6.8971,6.8546,6.8239,6.8054,6.7993,6.7931,6.7837,6.7837,6.7837,6.7837,6.7899,6.7961,6.8054,6.833,6.8631,6.8569,6.8296,6.8445,6.8687,6.8902,6.9474,6.9805,6.9865,7.0468,7.095,7.1281,7.1612,7.1978,7.2444,7.2962,7.3148,7.343,7.4046,7.4441,7.4637,7.485,7.5282,7.5714,7.6085,7.6452,7.6885,7.7227,7.7001,7.6112,7.5954,7.6392,7.7246,7.7974,7.8734,8.0378,8.0994,8.1771,8.2387,8.2591,8.2543,8.2555,8.1952,8.163,8.1742,8.1726,8.1714,8.2025,8.3021,8.3881,8.4385,8.5215,8.6164,8.623,8.6352,8.6413,8.6535,8.6563,8.6744,8.6957,8.7196,8.7319,8.7245,8.727,8.7218,8.7126,8.6892,8.7004,7.843,7.7831,7.7203,7.6684,7.643,7.5806,7.591,7.6288,7.6488,7.6288,7.6021,7.6288,7.6021,7.5414,7.5954,7.6421,7.6421,7.6752,7.695,7.695,7.6985,7.6585,7.6,7.5107,7.4676,7.4368,7.3568,7.3137,7.2829,7.2768,7.2244,7.1414,7.1168,7.0892,7.0035,6.9635,6.9541,6.9358,6.911,6.8985,6.8985,6.8985,6.8985,6.8985,6.9173,6.9512,6.9819,7.0002,6.994,6.9845,6.9722,6.9816,7.0155,7.0702,7.1097,7.1216,7.1731,7.2308,7.2918,7.2975,7.3282,7.3772,7.402,7.4172,7.4389,7.4911,7.5404,7.5636,7.6248,7.6748,7.7187,7.7719,7.7898,7.8149,7.8914,7.8339,7.6971,7.6368,7.6843,7.7723,7.8832,7.9857,8.0978,8.2039,8.2811,8.2783,8.2924,8.2969,8.294,8.2588,8.2548,8.2662,8.2709,8.2632,8.3105,8.3742,8.4473,8.5199,8.6151,8.6837,8.6837,8.6837,8.6777,8.6837,8.7104,8.7342,8.7611,8.7846,8.8045,8.8094,8.795,8.8223,8.8395,8.8171,8.8116,7.8699,7.8519,7.7891,7.7233,7.6714,7.6331,7.5965,7.5715,7.6288,7.6088,7.5685,7.5856,7.5617,7.5006,7.5482,7.5752,7.6124,7.6457,7.6752,7.695,7.7016,7.6985,7.6769,7.6308,7.6308,7.5877,7.4522,7.3845,7.3568,7.2552,7.1629,7.1875,7.1476,7.0893,7.1075,7.0462,6.9911,6.9881,6.9818,6.9846,6.9877,6.9846,6.9846,6.9909,6.994,7.0215,7.0641,7.0795,7.1131,7.1437,7.1192,7.0886,7.107,7.1494,7.204,7.253,7.2709,7.3134,7.3651,7.3868,7.3994,7.4463,7.4955,7.5265,7.5556,7.6169,7.6573,7.6792,7.7253,7.797,7.8498,7.8709,7.8899,7.9028,7.9419,7.9552,7.9012,7.8924,7.9273,7.9995,8.044,8.1009,8.1865,8.2591,8.3076,8.3211,8.3318,8.3323,8.329,8.3317,8.3627,8.3901,8.3955,8.41,8.4767,8.5401,8.6157,8.6594,8.7256,8.7633,8.7633,8.7434,8.7434,8.7552,8.7787,8.7962,8.8078,8.8136,8.8276,8.8391,8.8506,8.8677,8.879,8.8903,8.8959,7.8789,7.8729,7.8071,7.7622,7.7173,7.6484,7.6091,7.5866,7.5941,7.5752,7.5482,7.5617,7.5346,7.4937,7.521,7.5617,7.599,7.6457,7.6818,7.695,7.7016,7.7016,7.7016,7.7016,7.7016,7.68,7.5661,7.4984,7.4522,7.3568,7.3045,7.2891,7.2305,7.2305,7.2089,7.1473,7.1288,7.1195,7.104,7.0914,7.0914,7.0914,7.104,7.1134,7.1227,7.141,7.1902,7.1933,7.2425,7.2855,7.2668,7.2391,7.2422,7.2758,7.3278,7.3828,7.3981,7.4286,7.4745,7.4959,7.5146,7.5679,7.6047,7.6419,7.6892,7.7455,7.7926,7.8204,7.8676,7.9211,7.9552,7.9955,8.0017,8.0208,8.0662,8.1018,8.0955,8.0518,8.0463,8.1158,8.1447,8.2053,8.2695,8.3343,8.3602,8.3831,8.4154,8.4282,8.4502,8.4592,8.5128,8.5404,8.5397,8.5678,8.6469,8.72,8.8111,8.8383,8.8587,8.8705,8.8571,8.8355,8.8078,8.8136,8.8194,8.8276,8.8391,8.8448,8.8596,8.8733,8.8847,8.8959,8.9016,8.9016,8.9016,7.8789,7.8759,7.819,7.7921,7.7652,7.6694,7.6364,7.6331,7.5987,7.5806,7.5527,7.5497,7.5391,7.5036,7.5142,7.555,7.6021,7.662,7.695,7.7016,7.7016,7.7016,7.7046,7.7169,7.7262,7.7108,7.6246,7.5907,7.5661,7.523,7.4153,7.4061,7.3753,7.3321,7.3075,7.2734,7.2425,7.2301,7.2143,7.2048,7.2078,7.2078,7.2204,7.2362,7.2608,7.2702,7.3043,7.3228,7.3599,7.4154,7.4185,7.431,7.4402,7.4214,7.4461,7.5043,7.5105,7.5471,7.6116,7.6366,7.6581,7.7231,7.742,7.7702,7.8266,7.8618,7.8967,7.9472,7.9915,8.0397,8.0592,8.1092,8.1405,8.1596,8.2266,8.278,8.2622,8.1513,8.1616,8.1933,8.2448,8.2929,8.3542,8.4186,8.4347,8.4572,8.4955,8.5273,8.5587,8.6,8.6568,8.7205,8.7295,8.8184,8.8984,8.8807,8.9694,8.9892,8.9994,8.9751,8.9609,8.9557,8.9279,8.8492,8.8448,8.8596,8.8677,8.879,8.8903,8.9072,8.9072,8.9072,8.9072,8.9106,8.9106,7.8789,7.8789,7.8669,7.834,7.7831,7.7562,7.7143,7.6834,7.6903,7.6533,7.5905,7.6121,7.5751,7.5215,7.4967,7.5376,7.6203,7.6865,7.72,7.72,7.72,7.72,7.7323,7.7693,7.7847,7.7508,7.6831,7.6277,7.5846,7.483,7.4799,7.4584,7.3968,7.3568,7.3783,7.329,7.3197,7.3258,7.3102,7.3071,7.2948,7.2948,7.2948,7.3104,7.3473,7.3721,7.3968,7.4338,7.4865,7.518,7.5243,7.568,7.6053,7.5519,7.5451,7.5756,7.6003,7.6561,7.7393,7.7697,7.823,7.8893,7.9021,7.9282,7.96,7.986,8.0148,8.0466,8.1133,8.1739,8.26,8.2698,8.2792,8.2953,8.3116,8.3537,8.3474,8.3317,8.3159,8.3285,8.351,8.3832,8.4572,8.518,8.5532,8.5948,8.636,8.6708,8.699,8.7536,8.8116,8.8758,8.9367,9.0488,9.1675,9.1135,9.1208,9.1245,9.1186,9.0866,9.0755,9.0895,9.0524,8.9643,8.9037,8.9004,8.9117,8.9106,8.9072,8.9072,8.9106,8.9106,8.9106,8.9106,8.9106,7.8789,7.8789,7.8789,7.8609,7.828,7.7951,7.7652,7.7322,7.7204,7.6804,7.6525,7.6475,7.6325,7.5946,7.5886,7.6301,7.7023,7.7759,7.8026,7.8093,7.8093,7.8093,7.8062,7.8462,7.8555,7.8432,7.7908,7.7354,7.7016,7.6123,7.5723,7.5815,7.5323,7.5261,7.5446,7.5353,7.483,7.4615,7.4491,7.4307,7.403,7.3999,7.3999,7.4122,7.4276,7.4491,7.4647,7.4928,7.5673,7.6329,7.6396,7.7022,7.7553,7.774,7.7268,7.7199,7.7383,7.7786,7.8529,7.8808,7.9344,7.9693,7.9915,8.0234,8.0782,8.1105,8.1461,8.2166,8.2517,8.3253,8.3669,8.3798,8.3798,8.3798,8.396,8.4121,8.4089,8.425,8.4443,8.4539,8.4828,8.5214,8.5821,8.6364,8.6811,8.7287,8.7729,8.8042,8.8226,8.8811,8.9396,9.0166,9.0804,9.1575,9.2601,9.2453,9.2177,9.228,9.2196,9.1874,9.1662,9.1653,9.1247,9.049,9.0064,8.9748,8.9207,8.914,8.9106,8.9173,8.9207,8.9275,8.914,8.9106,8.914,7.8789,7.8789,7.8789,7.8789,7.8699,7.825,7.8011,7.7891,7.7502,7.7203,7.7023,7.7023,7.6933,7.6814,7.6924,7.7243,7.7996,7.858,7.882,7.8955,7.8955,7.9047,7.9109,7.9263,7.9293,7.9293,7.9447,7.9047,7.8093,7.72,7.7077,7.6923,7.7016,7.6923,7.6769,7.6615,7.6615,7.6369,7.6,7.5661,7.5169,7.5015,7.5015,7.5046,7.5107,7.5199,7.5391,7.5766,7.6676,7.7458,7.787,7.8248,7.9317,7.9887,7.9698,7.9128,7.928,7.9401,7.9841,8.0088,8.0592,8.1136,8.0914,8.1425,8.2001,8.2646,8.3097,8.4219,8.4443,8.4539,8.4699,8.486,8.4956,8.5117,8.5213,8.5214,8.5438,8.5662,8.5822,8.5984,8.6178,8.6336,8.6648,8.6575,8.6794,8.7422,8.792,8.8399,8.8747,8.9812,9.0526,9.1429,9.2105,9.252,9.2969,9.3122,9.3005,9.3056,9.2946,9.2667,9.243,9.2319,9.1788,9.1416,9.1146,9.0763,8.9985,8.9512,8.9884,8.9985,8.9647,8.9512,8.9579,8.9478,8.9444,7.8789,7.8789,7.8789,7.8789,7.8789,7.8669,7.8639,7.8609,7.8489,7.822,7.7711,7.761,7.7311,7.7083,7.7284,7.7573,7.8018,7.8552,7.9053,7.922,7.9324,7.9324,7.9293,7.9755,7.994,8.0032,8.0494,8.0063,7.9109,7.7847,7.7477,7.7724,7.7108,7.6492,7.7293,7.7354,7.6985,7.6831,7.6338,7.5723,7.523,7.5138,7.5138,7.5261,7.5633,7.6067,7.6449,7.7046,7.7896,7.8911,7.9479,8.008,8.0805,8.1535,8.1759,8.1506,8.1092,8.0796,8.1497,8.1684,8.1967,8.2675,8.2996,8.3478,8.3673,8.3898,8.4347,8.5047,8.5207,8.546,8.5965,8.6604,8.6895,8.7032,8.7102,8.7458,8.7651,8.6849,8.7041,8.7362,8.7527,8.7097,8.6983,8.6778,8.6671,8.742,8.8138,8.8782,8.952,9.0694,9.1468,9.2312,9.2431,9.2752,9.2769,9.2955,9.3149,9.3368,9.3267,9.3131,9.3064,9.2861,9.2793,9.2455,9.215,9.188,9.1305,9.1034,9.1034,9.0797,9.0493,9.029,9.0188,9.0019,8.9884,7.8789,7.8789,7.8789,7.8789,7.8789,7.8789,7.8789,7.8789,7.8789,7.8639,7.8328,7.8082,7.7831,7.7677,7.8205,7.8589,7.884,7.9298,7.9705,7.9881,8.0018,8.0155,8.0309,8.0494,8.0648,8.074,8.0863,8.0802,7.994,7.9386,7.8955,7.8955,7.8278,7.797,7.8093,7.8185,7.7939,7.7539,7.6954,7.6461,7.6215,7.6154,7.6154,7.6154,7.6657,7.716,7.7792,7.8526,7.96,8.0586,8.1221,8.1601,8.2203,8.2776,8.3062,8.3031,8.3067,8.294,8.2844,8.3,8.3448,8.38,8.4122,8.4219,8.4731,8.508,8.5332,8.5799,8.6252,8.6601,8.695,8.7569,8.7864,8.8188,8.8546,8.8611,8.8742,8.8549,8.8292,8.8584,8.8778,8.8378,8.8145,8.8597,8.8688,8.9089,8.9846,9.042,9.1181,9.211,9.2752,9.3132,9.2921,9.2617,9.2439,9.2363,9.2532,9.2725,9.2861,9.2895,9.3402,9.3402,9.3267,9.3233,9.303,9.2759,9.2489,9.1981,9.1474,9.1372,9.1305,9.1102,9.0932,9.0797,9.0662,7.8789,7.8789,7.8789,7.8789,7.8789,7.8789,7.8789,7.8789,7.8789,7.8789,7.8717,7.847,7.8325,7.8325,7.8771,7.9141,7.9374,8.0001,8.0352,8.0562,8.0771,8.0917,8.0925,8.1017,8.114,8.1325,8.1387,8.1448,8.1387,8.0925,8.0463,8.034,7.9509,7.9293,7.9293,7.9201,7.8893,7.7939,7.7754,7.7477,7.7293,7.7447,7.7574,7.7737,7.7965,7.8412,7.9271,7.9852,8.0996,8.1952,8.2461,8.2808,8.3475,8.3952,8.4301,8.4461,8.4722,8.479,8.4536,8.4443,8.454,8.4604,8.4892,8.534,8.5656,8.6095,8.6601,8.7041,8.743,8.7754,8.8013,8.8601,8.8992,8.9189,8.9354,8.9291,8.9291,8.939,8.9584,8.9877,9.0038,8.9841,8.9903,9.0592,9.0912,9.1057,9.1497,9.1997,9.252,9.3039,9.3259,9.3411,9.3275,9.2904,9.2701,9.2489,9.2387,9.2353,9.2522,9.2793,9.3402,9.3605,9.347,9.3537,9.3571,9.3402,9.303,9.2421,9.188,9.215,9.2286,9.1913,9.1711,9.1541,9.1338,7.8789,7.8789,7.8789,7.8789,7.8789,7.8789,7.8789,7.8789,7.8789,7.8789,7.8644,7.8717,7.8427,7.8354,7.8572,7.9005,7.9363,7.9434,7.986,8.0282,8.0562,8.0863,8.1063,8.1325,8.151,8.1941,8.2002,8.2341,8.2587,8.2064,8.154,8.1017,8.0333,8.0056,8.0032,8.0001,7.9509,7.8832,7.8739,7.8585,7.8401,7.8493,7.8935,7.9238,7.9402,7.9922,8.0866,8.1155,8.1698,8.284,8.3509,8.4047,8.4682,8.5355,8.5802,8.6086,8.618,8.6412,8.6388,8.5624,8.5113,8.5464,8.6072,8.662,8.6871,8.7742,8.8316,8.8494,8.8655,8.8943,8.9297,8.9816,9.0123,9.0255,9.0358,9.0523,9.0589,9.0783,9.0978,9.1301,9.114,9.078,9.0747,9.1176,9.1264,9.1341,9.1602,9.2098,9.249,9.2946,9.3208,9.3368,9.3436,9.3368,9.3368,9.3131,9.2725,9.2928,9.3233,9.3334,9.3605,9.3673,9.3842,9.3571,9.3571,9.3571,9.3537,9.303,9.2827,9.3267,9.3267,9.2759,9.2387,9.215,9.188,7.8572,7.8789,7.8789,7.8789,7.8789,7.8789,7.8789,7.8789,7.8789,7.8499,7.8063,7.8063,7.799,7.799,7.8282,7.8644,7.9005,7.9321,7.9607,8.0113,8.0547,8.1143,8.1507,8.1924,8.2464,8.2649,8.271,8.2741,8.2956,8.2864,8.2679,8.2025,8.1147,8.0695,8.0641,8.0679,8.0278,8.0124,8.0032,7.994,7.9509,7.9447,7.9712,7.9583,7.9849,8.056,8.1627,8.2206,8.3003,8.3959,8.5013,8.5615,8.6089,8.6833,8.7314,8.7565,8.7532,8.7729,8.786,8.7127,8.6708,8.7165,8.7647,8.7903,8.809,8.8572,8.8918,8.9169,8.9689,8.9949,9.0143,9.0701,9.1136,9.1231,9.1331,9.1496,9.1662,9.1728,9.1728,9.1761,9.1629,9.1368,9.143,9.1529,9.1484,9.1464,9.1877,9.2229,9.2761,9.3165,9.3503,9.3673,9.3774,9.3774,9.3774,9.3402,9.2996,9.3436,9.3943,9.4045,9.4146,9.4282,9.4315,9.3977,9.3605,9.3639,9.3639,9.3605,9.3571,9.3571,9.3537,9.3402,9.3064,9.2759,9.2556,7.8282,7.8644,7.8644,7.8717,7.8789,7.8789,7.8789,7.8789,7.8789,7.8354,7.7623,7.7623,7.7549,7.7623,7.799,7.8354,7.8734,7.9245,7.9551,8.0079,8.083,8.1461,8.1889,8.2347,8.2836,8.3153,8.3418,8.348,8.3818,8.3726,8.3695,8.3276,8.2276,8.1755,8.1047,8.1033,8.104,8.1079,8.1233,8.1202,8.0709,8.1063,8.1268,8.1279,8.1713,8.25,8.3505,8.425,8.486,8.5725,8.659,8.7165,8.7644,8.8093,8.8575,8.8703,8.8798,8.8864,8.8864,8.8349,8.7991,8.8161,8.8742,8.8966,8.9186,8.9442,9.0085,9.0176,9.0602,9.0834,9.0867,9.1264,9.1463,9.143,9.143,9.1596,9.196,9.2093,9.2059,9.2059,9.196,9.2026,9.238,9.2476,9.2391,9.2365,9.2547,9.3073,9.369,9.3977,9.4146,9.4248,9.4282,9.4248,9.418,9.4011,9.3943,9.4349,9.4755,9.4755,9.4857,9.4958,9.4789,9.4349,9.4045,9.3842,9.3706,9.3605,9.3571,9.3571,9.3571,9.3537,9.347,9.3199,9.33,7.7843,7.8209,7.8209,7.8427,7.8717,7.8789,7.8789,7.8789,7.8717,7.8282,7.7549,7.7549,7.7357,7.7357,7.7799,7.8195,7.8622,7.9301,7.9862,8.0436,8.1196,8.1583,8.1995,8.2466,8.3152,8.3499,8.3839,8.427,8.4865,8.4711,8.4803,8.4617,8.3733,8.2893,8.1654,8.092,8.0824,8.1233,8.1941,8.2156,8.2257,8.2806,8.3216,8.3414,8.3934,8.4606,8.5364,8.5855,8.6437,8.7207,8.7657,8.8199,8.8732,8.9021,8.9339,8.949,8.9519,8.9783,9.0247,8.9156,8.8871,8.9002,8.9712,9.0002,9.0229,9.0717,9.1169,9.0999,9.143,9.1562,9.1596,9.1662,9.1794,9.1894,9.196,9.2093,9.249,9.2656,9.2656,9.2689,9.2689,9.2785,9.3173,9.3428,9.3434,9.34,9.3384,9.3791,9.4485,9.4721,9.4857,9.4857,9.489,9.5161,9.5161,9.4924,9.4958,9.5364,9.5635,9.5736,9.5702,9.5736,9.5398,9.4823,9.4451,9.4214,9.3909,9.3605,9.3605,9.3571,9.3571,9.3571,9.3571,9.3571,9.3571,7.7475,7.777,7.777,7.8063,7.8427,7.8717,7.8789,7.8717,7.8209,7.7726,7.7283,7.6986,7.6986,7.7164,7.7445,7.7962,7.8862,7.9055,7.9749,8.0671,8.1597,8.2028,8.24,8.2966,8.3594,8.4027,8.4337,8.4555,8.505,8.5111,8.5111,8.4935,8.4619,8.3898,8.335,8.3027,8.3399,8.3716,8.3972,8.3911,8.3582,8.3989,8.4381,8.4324,8.5049,8.5825,8.6555,8.695,8.7535,8.8177,8.8563,8.9172,8.9709,9.0061,9.061,9.0767,9.0801,9.0933,9.1165,9.0717,9.0589,9.0655,9.0717,9.0945,9.1173,9.1335,9.1529,9.1761,9.2126,9.2258,9.2324,9.2821,9.3086,9.3153,9.3186,9.3219,9.3418,9.3418,9.3418,9.3418,9.3418,9.3418,9.3677,9.4386,9.4465,9.454,9.4597,9.4669,9.5161,9.5364,9.5466,9.5499,9.5601,9.6007,9.6142,9.5872,9.6108,9.665,9.6886,9.6988,9.6886,9.6582,9.6108,9.5567,9.5093,9.462,9.4282,9.3943,9.3673,9.3571,9.3571,9.3571,9.3571,9.3571,9.3571,7.6739,7.7108,7.7313,7.7623,7.8063,7.8427,7.8572,7.8427,7.777,7.7283,7.709,7.6687,7.6612,7.6895,7.7353,7.7678,7.8848,7.95,7.9961,8.0989,8.1811,8.2275,8.274,8.3249,8.3607,8.4129,8.4424,8.4643,8.4862,8.5039,8.5192,8.5219,8.5225,8.5187,8.4825,8.4668,8.4533,8.4659,8.4803,8.4814,8.4783,8.5006,8.5276,8.5484,8.6048,8.6761,8.7197,8.7693,8.8182,8.8891,8.9534,9.0179,9.0658,9.1107,9.1562,9.1562,9.1562,9.1662,9.1861,9.1927,9.193,9.2295,9.196,9.1761,9.1894,9.2026,9.2225,9.249,9.2788,9.2954,9.3186,9.3749,9.3848,9.3881,9.3881,9.3881,9.4179,9.4179,9.4179,9.4179,9.4179,9.4179,9.4277,9.5053,9.5627,9.5709,9.5817,9.5825,9.5736,9.5804,9.5905,9.5973,9.6142,9.6514,9.6751,9.6751,9.7157,9.7867,9.7867,9.7732,9.7631,9.7258,9.6785,9.6379,9.5973,9.5499,9.4789,9.4349,9.4079,9.3774,9.3571,9.3571,9.3571,9.3571,9.3571,7.5697,7.6183,7.6797,7.7254,7.7623,7.799,7.8136,7.8063,7.7431,7.709,7.7015,7.6612,7.6596,7.6787,7.7479,7.8055,7.8528,7.9771,8.0563,8.1117,8.182,8.2256,8.2649,8.3086,8.3371,8.364,8.4042,8.4442,8.4558,8.5365,8.5673,8.5789,8.6218,8.6223,8.5947,8.5593,8.525,8.55,8.5573,8.5688,8.5854,8.6068,8.64,8.6774,8.7471,8.792,8.8458,8.9087,8.9805,9.0322,9.0804,9.1153,9.1437,9.1596,9.1596,9.1695,9.1794,9.2225,9.2589,9.2689,9.2954,9.3153,9.249,9.2358,9.249,9.2722,9.2921,9.3285,9.3616,9.3716,9.3914,9.4047,9.4179,9.4179,9.4179,9.4411,9.4809,9.4941,9.4941,9.4941,9.4941,9.4941,9.5137,9.5722,9.623,9.6247,9.6159,9.5994,9.5939,9.6007,9.6108,9.6277,9.6548,9.6988,9.7123,9.7022,9.7394,9.7867,9.8003,9.7901,9.7901,9.7834,9.7428,9.7056,9.692,9.6379,9.5398,9.4823,9.4518,9.4214,9.3943,9.3673,9.3706,9.3605,9.3571,7.5143,7.5653,7.5856,7.6428,7.7209,7.7357,7.7431,7.7386,7.7164,7.7015,7.6612,7.6538,7.6724,7.713,7.7485,7.8325,7.912,7.9906,8.0653,8.1161,8.1551,8.1947,8.2206,8.2511,8.2844,8.3296,8.3731,8.4316,8.5292,8.5968,8.6484,8.6779,8.7012,8.7073,8.6919,8.6656,8.6576,8.6496,8.657,8.6667,8.6938,8.7154,8.7458,8.8005,8.8449,8.883,8.9205,8.9868,9.0424,9.0681,9.0999,9.1315,9.1596,9.2059,9.249,9.3119,9.3219,9.3318,9.3451,9.3484,9.3649,9.3848,9.3384,9.3351,9.3418,9.355,9.3683,9.4047,9.4411,9.4544,9.4676,9.4809,9.4908,9.4975,9.4975,9.514,9.5471,9.5471,9.5505,9.5505,9.5505,9.5505,9.5734,9.6186,9.6662,9.6553,9.6467,9.6331,9.621,9.6277,9.6142,9.6277,9.6345,9.6616,9.6886,9.6853,9.7326,9.7766,9.7901,9.8003,9.7969,9.7901,9.7834,9.7664,9.7326,9.665,9.5736,9.5364,9.5229,9.4755,9.4451,9.4079,9.3774,9.3706,9.3605,7.4401,7.4779,7.5011,7.5653,7.6458,7.6749,7.6866,7.6866,7.6866,7.6687,7.6567,7.6753,7.7043,7.742,7.7943,7.8736,7.9502,7.9987,8.0571,8.1028,8.1282,8.1514,8.1746,8.2083,8.2359,8.2874,8.3567,8.4276,8.5377,8.6665,8.7349,8.7604,8.7789,8.7943,8.8005,8.8035,8.808,8.7982,8.781,8.7784,8.7902,8.8119,8.8575,8.8949,8.9229,8.9646,9.0053,9.0716,9.1207,9.1628,9.2013,9.2267,9.249,9.2954,9.3186,9.3683,9.3683,9.3881,9.4113,9.4213,9.4378,9.4544,9.461,9.4676,9.4544,9.4511,9.461,9.4809,9.5107,9.5372,9.5538,9.567,9.5836,9.5968,9.5968,9.5968,9.5968,9.5968,9.5968,9.5968,9.5968,9.5935,9.6229,9.6681,9.6997,9.6922,9.6904,9.6967,9.6751,9.6616,9.6244,9.6041,9.6007,9.6074,9.6311,9.6548,9.6853,9.7292,9.7834,9.7935,9.7969,9.7935,9.7834,9.7766,9.7664,9.692,9.6176,9.6176,9.6041,9.5533,9.5127,9.4924,9.4485,9.3943,9.3808,7.3589,7.3705,7.4256,7.4895,7.5475,7.6131,7.6421,7.6404,7.6479,7.6538,7.6579,7.713,7.742,7.7769,7.8553,7.9133,7.9676,8.0053,8.0356,8.0815,8.0815,8.1078,8.1466,8.1912,8.2243,8.2746,8.3427,8.4425,8.5137,8.6534,8.798,8.8237,8.8743,8.8928,8.8866,8.8866,8.8956,8.9133,8.8799,8.8482,8.8838,8.9227,8.9773,9.0131,9.0661,9.1212,9.1685,9.2251,9.2843,9.3234,9.3524,9.3616,9.3782,9.3815,9.3914,9.4146,9.4312,9.4544,9.4875,9.4975,9.5306,9.5604,9.6001,9.577,9.5438,9.5206,9.5273,9.5405,9.567,9.5703,9.5836,9.5869,9.5968,9.6001,9.6001,9.6001,9.6001,9.6001,9.6001,9.6001,9.6001,9.6001,9.6132,9.6552,9.7,9.7027,9.7303,9.7434,9.7326,9.7089,9.6548,9.6007,9.5635,9.5601,9.5838,9.6041,9.6176,9.665,9.7292,9.7428,9.7191,9.7428,9.7766,9.7394,9.7022,9.7157,9.6819,9.6717,9.6514,9.6176,9.5872,9.5838,9.533,9.462,9.418,7.3153,7.3647,7.4256,7.4634,7.4866,7.5475,7.5737,7.5795,7.6259,7.6538,7.6654,7.713,7.7682,7.8204,7.8959,7.9569,8.0033,8.0149,8.0344,8.0452,8.0452,8.0746,8.1117,8.1752,8.227,8.2925,8.3806,8.4791,8.592,8.734,8.8318,8.8548,8.8977,8.9129,8.9205,8.9205,8.9402,8.9823,8.9737,8.9733,9.0245,9.023,9.0509,9.0985,9.1514,9.1739,9.2146,9.2547,9.2974,9.3267,9.359,9.408,9.4577,9.461,9.4941,9.5339,9.5306,9.5438,9.5505,9.5604,9.577,9.5902,9.6035,9.6035,9.5935,9.5803,9.5836,9.6001,9.6068,9.6068,9.6134,9.6134,9.6134,9.6134,9.6134,9.6134,9.6101,9.6068,9.6068,9.6001,9.6001,9.6067,9.6132,9.6457,9.6809,9.722,9.7659,9.7867,9.78,9.7597,9.6988,9.6345,9.533,9.5195,9.5466,9.5669,9.5838,9.5939,9.6413,9.648,9.648,9.6785,9.7089,9.6548,9.621,9.6751,9.7123,9.692,9.6717,9.6616,9.6582,9.6548,9.6176,9.5533,9.5026,7.2834,7.324,7.385,7.4111,7.4314,7.5127,7.5504,7.5621,7.6172,7.6683,7.6956,7.7537,7.8088,7.8582,7.9307,7.983,8.0265,8.0294,8.0294,8.0294,8.0381,8.0685,8.1075,8.1662,8.2428,8.3224,8.4366,8.554,8.6609,8.7331,8.807,8.8486,8.8824,8.9053,8.9129,8.9205,8.9508,9.0035,9.0302,9.0747,9.1333,9.15,9.1737,9.2141,9.2535,9.279,9.3262,9.3729,9.4091,9.4386,9.481,9.4975,9.5339,9.5405,9.5571,9.5803,9.5935,9.6001,9.6035,9.6068,9.6068,9.6134,9.6432,9.6565,9.6697,9.6631,9.6763,9.6863,9.6664,9.6664,9.7128,9.726,9.726,9.726,9.7161,9.7128,9.6863,9.6631,9.6366,9.6001,9.6001,9.6001,9.6197,9.6586,9.6937,9.7127,9.7568,9.7941,9.8003,9.8003,9.7428,9.6886,9.6007,9.5398,9.5601,9.5669,9.5635,9.5702,9.5804,9.6142,9.648,9.6413,9.6345,9.6379,9.6582,9.7123,9.7326,9.7157,9.7326,9.7394,9.7326,9.7292,9.6853,9.6447,9.6074,7.2631,7.2718,7.324,7.3472,7.3676,7.4837,7.5359,7.5475,7.6143,7.6811,7.7391,7.8059,7.8378,7.893,7.9685,8.0062,8.0294,8.0294,8.0294,8.0323,8.0439,8.078,8.1237,8.1883,8.2837,8.3893,8.4981,8.5902,8.6855,8.7398,8.7789,8.8332,8.864,8.8824,8.9053,8.9281,8.9584,9.0079,9.0525,9.1114,9.1809,9.2454,9.2776,9.3299,9.3987,9.4534,9.4874,9.5209,9.5541,9.5771,9.577,9.577,9.5803,9.5836,9.5869,9.6001,9.6001,9.6101,9.62,9.63,9.6333,9.6498,9.6962,9.726,9.7393,9.7492,9.7592,9.7658,9.7459,9.7426,9.789,9.8122,9.8122,9.8122,9.8022,9.7923,9.7558,9.7227,9.6797,9.63,9.62,9.62,9.6329,9.6683,9.697,9.7161,9.7443,9.7755,9.8003,9.8003,9.7732,9.7495,9.7056,9.6582,9.6142,9.5838,9.577,9.5702,9.5838,9.621,9.6413,9.6244,9.6413,9.6988,9.7258,9.7225,9.7428,9.736,9.7631,9.7867,9.78,9.7664,9.7597,9.7225,9.7089,7.2631,7.2631,7.2776,7.2834,7.3037,7.4169,7.4692,7.4895,7.5998,7.6811,7.7478,7.8117,7.864,7.9162,7.9917,8.0294,8.0294,8.0294,8.0294,8.0323,8.073,8.102,8.1623,8.2568,8.3517,8.4494,8.5344,8.6062,8.6609,8.7005,8.7398,8.7633,8.8409,8.8563,8.8716,8.9053,8.9508,9.0079,9.0599,9.1041,9.22,9.2698,9.291,9.3433,9.3987,9.4502,9.4907,9.5209,9.5574,9.587,9.6001,9.6001,9.6068,9.6101,9.6167,9.6266,9.6233,9.6532,9.673,9.6863,9.6995,9.7426,9.7823,9.7956,9.8055,9.8155,9.8353,9.8751,9.8519,9.8188,9.8387,9.8387,9.8387,9.8387,9.8353,9.8287,9.8055,9.789,9.7658,9.7227,9.6929,9.6664,9.6365,9.6754,9.7104,9.7325,9.7601,9.7913,9.8037,9.8037,9.8104,9.8037,9.7969,9.7394,9.6819,9.6277,9.6108,9.5939,9.5905,9.6244,9.6277,9.5973,9.6244,9.7056,9.692,9.665,9.692,9.7563,9.7664,9.7834,9.7935,9.7935,9.7935,9.7867,9.7597]}]]